<?xml version="1.0" encoding="UTF-8" standalone="no" ?>
<gpx xmlns="http://www.topografix.com/GPX/1/1" xmlns:xsi="http://www.w3.org/2001/XMLSchema-instance" xsi:schemaLocation="http://www.topografix.com/GPX/1/1 http://www.topografix.com/GPX/1/1/gpx.xsd" version="1.1" creator="VisuGPX - https://www.visugpx.com">
  <metadata>
    <name>Calanques Marseille</name>
    <desc><![CDATA[Belvédère de Titou Ninou]]></desc>
  </metadata>
  <trk>
    <name><![CDATA[TITOUN-14 16:04:44]]></name>
    <trkseg>
      <trkpt lat="43.22969" lon="5.36718">
        <ele>3.5</ele>
        <time>2014-01-23T08:45:34Z</time>
      </trkpt>
      <trkpt lat="43.22969" lon="5.3672">
        <ele>3.5</ele>
        <time>2014-01-23T08:45:35Z</time>
      </trkpt>
      <trkpt lat="43.22962" lon="5.36706">
        <ele>3.5</ele>
        <time>2014-01-23T08:45:48Z</time>
      </trkpt>
      <trkpt lat="43.22962" lon="5.36705">
        <ele>7.35</ele>
        <time>2014-01-23T08:45:53Z</time>
      </trkpt>
      <trkpt lat="43.22964" lon="5.36703">
        <ele>11.19</ele>
        <time>2014-01-23T08:45:56Z</time>
      </trkpt>
      <trkpt lat="43.22964" lon="5.36703">
        <ele>14.56</ele>
        <time>2014-01-23T08:45:59Z</time>
      </trkpt>
      <trkpt lat="43.22965" lon="5.36703">
        <ele>17.44</ele>
        <time>2014-01-23T08:46:02Z</time>
      </trkpt>
      <trkpt lat="43.22965" lon="5.36709">
        <ele>20.81</ele>
        <time>2014-01-23T08:46:08Z</time>
      </trkpt>
      <trkpt lat="43.22965" lon="5.36711">
        <ele>23.69</ele>
        <time>2014-01-23T08:46:12Z</time>
      </trkpt>
      <trkpt lat="43.22968" lon="5.36713">
        <ele>27.05</ele>
        <time>2014-01-23T08:46:17Z</time>
      </trkpt>
      <trkpt lat="43.22969" lon="5.36715">
        <ele>28.5</ele>
        <time>2014-01-23T08:46:20Z</time>
      </trkpt>
      <trkpt lat="43.22968" lon="5.36717">
        <ele>29.46</ele>
        <time>2014-01-23T08:46:22Z</time>
      </trkpt>
      <trkpt lat="43.22974" lon="5.36724">
        <ele>31.86</ele>
        <time>2014-01-23T08:46:29Z</time>
      </trkpt>
      <trkpt lat="43.22987" lon="5.36735">
        <ele>35.23</ele>
        <time>2014-01-23T08:46:41Z</time>
      </trkpt>
      <trkpt lat="43.23005" lon="5.36739">
        <ele>37.63</ele>
        <time>2014-01-23T08:46:55Z</time>
      </trkpt>
      <trkpt lat="43.23008" lon="5.3674">
        <ele>38.11</ele>
        <time>2014-01-23T08:46:59Z</time>
      </trkpt>
      <trkpt lat="43.23011" lon="5.36741">
        <ele>38.59</ele>
        <time>2014-01-23T08:47:01Z</time>
      </trkpt>
      <trkpt lat="43.23026" lon="5.36742">
        <ele>41.95</ele>
        <time>2014-01-23T08:47:15Z</time>
      </trkpt>
      <trkpt lat="43.23034" lon="5.36743">
        <ele>44.84</ele>
        <time>2014-01-23T08:47:27Z</time>
      </trkpt>
      <trkpt lat="43.23036" lon="5.36743">
        <ele>44.84</ele>
        <time>2014-01-23T08:47:29Z</time>
      </trkpt>
      <trkpt lat="43.23039" lon="5.36741">
        <ele>45.32</ele>
        <time>2014-01-23T08:47:32Z</time>
      </trkpt>
      <trkpt lat="43.23061" lon="5.36726">
        <ele>45.8</ele>
        <time>2014-01-23T08:47:46Z</time>
      </trkpt>
      <trkpt lat="43.23064" lon="5.36724">
        <ele>45.8</ele>
        <time>2014-01-23T08:47:48Z</time>
      </trkpt>
      <trkpt lat="43.23069" lon="5.3672">
        <ele>45.8</ele>
        <time>2014-01-23T08:47:52Z</time>
      </trkpt>
      <trkpt lat="43.23081" lon="5.36719">
        <ele>45.8</ele>
        <time>2014-01-23T08:48:05Z</time>
      </trkpt>
      <trkpt lat="43.23084" lon="5.36719">
        <ele>45.32</ele>
        <time>2014-01-23T08:48:08Z</time>
      </trkpt>
      <trkpt lat="43.23089" lon="5.36713">
        <ele>44.36</ele>
        <time>2014-01-23T08:48:14Z</time>
      </trkpt>
      <trkpt lat="43.23092" lon="5.36714">
        <ele>44.36</ele>
        <time>2014-01-23T08:48:17Z</time>
      </trkpt>
      <trkpt lat="43.23098" lon="5.36719">
        <ele>44.84</ele>
        <time>2014-01-23T08:48:25Z</time>
      </trkpt>
      <trkpt lat="43.23098" lon="5.36723">
        <ele>45.32</ele>
        <time>2014-01-23T08:48:27Z</time>
      </trkpt>
      <trkpt lat="43.23097" lon="5.36729">
        <ele>47.24</ele>
        <time>2014-01-23T08:48:30Z</time>
      </trkpt>
      <trkpt lat="43.23098" lon="5.36737">
        <ele>50.13</ele>
        <time>2014-01-23T08:48:37Z</time>
      </trkpt>
      <trkpt lat="43.23102" lon="5.36741">
        <ele>48.2</ele>
        <time>2014-01-23T08:48:45Z</time>
      </trkpt>
      <trkpt lat="43.23106" lon="5.36738">
        <ele>47.24</ele>
        <time>2014-01-23T08:48:48Z</time>
      </trkpt>
      <trkpt lat="43.23107" lon="5.36736">
        <ele>47.24</ele>
        <time>2014-01-23T08:48:50Z</time>
      </trkpt>
      <trkpt lat="43.23114" lon="5.3672">
        <ele>44.84</ele>
        <time>2014-01-23T08:49:00Z</time>
      </trkpt>
      <trkpt lat="43.23122" lon="5.36722">
        <ele>44.36</ele>
        <time>2014-01-23T08:49:12Z</time>
      </trkpt>
      <trkpt lat="43.23131" lon="5.3672">
        <ele>44.84</ele>
        <time>2014-01-23T08:49:16Z</time>
      </trkpt>
      <trkpt lat="43.23143" lon="5.36728">
        <ele>44.84</ele>
        <time>2014-01-23T08:49:27Z</time>
      </trkpt>
      <trkpt lat="43.23149" lon="5.36732">
        <ele>44.84</ele>
        <time>2014-01-23T08:49:32Z</time>
      </trkpt>
      <trkpt lat="43.23151" lon="5.36737">
        <ele>44.84</ele>
        <time>2014-01-23T08:49:35Z</time>
      </trkpt>
      <trkpt lat="43.23156" lon="5.36738">
        <ele>44.84</ele>
        <time>2014-01-23T08:49:38Z</time>
      </trkpt>
      <trkpt lat="43.23168" lon="5.36744">
        <ele>45.32</ele>
        <time>2014-01-23T08:49:50Z</time>
      </trkpt>
      <trkpt lat="43.23168" lon="5.36745">
        <ele>45.8</ele>
        <time>2014-01-23T08:50:04Z</time>
      </trkpt>
      <trkpt lat="43.23169" lon="5.36746">
        <ele>45.8</ele>
        <time>2014-01-23T08:50:27Z</time>
      </trkpt>
      <trkpt lat="43.23168" lon="5.36747">
        <ele>45.8</ele>
        <time>2014-01-23T08:50:51Z</time>
      </trkpt>
      <trkpt lat="43.23171" lon="5.3676">
        <ele>46.76</ele>
        <time>2014-01-23T08:51:01Z</time>
      </trkpt>
      <trkpt lat="43.23175" lon="5.36778">
        <ele>48.2</ele>
        <time>2014-01-23T08:51:10Z</time>
      </trkpt>
      <trkpt lat="43.23176" lon="5.36801">
        <ele>49.65</ele>
        <time>2014-01-23T08:51:23Z</time>
      </trkpt>
      <trkpt lat="43.23169" lon="5.36833">
        <ele>52.05</ele>
        <time>2014-01-23T08:51:41Z</time>
      </trkpt>
      <trkpt lat="43.23169" lon="5.36845">
        <ele>52.53</ele>
        <time>2014-01-23T08:51:59Z</time>
      </trkpt>
      <trkpt lat="43.23172" lon="5.36844">
        <ele>52.53</ele>
        <time>2014-01-23T08:52:01Z</time>
      </trkpt>
      <trkpt lat="43.23176" lon="5.36835">
        <ele>51.57</ele>
        <time>2014-01-23T08:52:10Z</time>
      </trkpt>
      <trkpt lat="43.23178" lon="5.36828">
        <ele>51.09</ele>
        <time>2014-01-23T08:52:14Z</time>
      </trkpt>
      <trkpt lat="43.23178" lon="5.36816">
        <ele>50.13</ele>
        <time>2014-01-23T08:52:23Z</time>
      </trkpt>
      <trkpt lat="43.23179" lon="5.36808">
        <ele>49.65</ele>
        <time>2014-01-23T08:52:38Z</time>
      </trkpt>
      <trkpt lat="43.2318" lon="5.36811">
        <ele>50.13</ele>
        <time>2014-01-23T08:52:53Z</time>
      </trkpt>
      <trkpt lat="43.2318" lon="5.36814">
        <ele>50.61</ele>
        <time>2014-01-23T08:53:09Z</time>
      </trkpt>
      <trkpt lat="43.23187" lon="5.36815">
        <ele>48.2</ele>
        <time>2014-01-23T08:53:19Z</time>
      </trkpt>
      <trkpt lat="43.2319" lon="5.36811">
        <ele>47.72</ele>
        <time>2014-01-23T08:53:22Z</time>
      </trkpt>
      <trkpt lat="43.23195" lon="5.36801">
        <ele>46.76</ele>
        <time>2014-01-23T08:53:28Z</time>
      </trkpt>
      <trkpt lat="43.23209" lon="5.36788">
        <ele>44.84</ele>
        <time>2014-01-23T08:53:40Z</time>
      </trkpt>
      <trkpt lat="43.23215" lon="5.36788">
        <ele>44.36</ele>
        <time>2014-01-23T08:53:44Z</time>
      </trkpt>
      <trkpt lat="43.23222" lon="5.36806">
        <ele>44.36</ele>
        <time>2014-01-23T08:53:59Z</time>
      </trkpt>
      <trkpt lat="43.23223" lon="5.3681">
        <ele>44.36</ele>
        <time>2014-01-23T08:54:17Z</time>
      </trkpt>
      <trkpt lat="43.23229" lon="5.36822">
        <ele>44.36</ele>
        <time>2014-01-23T08:54:25Z</time>
      </trkpt>
      <trkpt lat="43.23229" lon="5.36827">
        <ele>44.36</ele>
        <time>2014-01-23T08:54:28Z</time>
      </trkpt>
      <trkpt lat="43.23231" lon="5.36837">
        <ele>44.36</ele>
        <time>2014-01-23T08:54:33Z</time>
      </trkpt>
      <trkpt lat="43.23257" lon="5.36857">
        <ele>43.88</ele>
        <time>2014-01-23T08:54:53Z</time>
      </trkpt>
      <trkpt lat="43.23264" lon="5.3687">
        <ele>43.88</ele>
        <time>2014-01-23T08:55:03Z</time>
      </trkpt>
      <trkpt lat="43.23276" lon="5.36891">
        <ele>43.88</ele>
        <time>2014-01-23T08:55:18Z</time>
      </trkpt>
      <trkpt lat="43.23281" lon="5.36897">
        <ele>43.88</ele>
        <time>2014-01-23T08:55:23Z</time>
      </trkpt>
      <trkpt lat="43.23285" lon="5.36905">
        <ele>43.88</ele>
        <time>2014-01-23T08:55:28Z</time>
      </trkpt>
      <trkpt lat="43.23295" lon="5.36931">
        <ele>43.88</ele>
        <time>2014-01-23T08:55:42Z</time>
      </trkpt>
      <trkpt lat="43.23296" lon="5.36937">
        <ele>43.88</ele>
        <time>2014-01-23T08:55:45Z</time>
      </trkpt>
      <trkpt lat="43.23299" lon="5.3695">
        <ele>43.88</ele>
        <time>2014-01-23T08:55:53Z</time>
      </trkpt>
      <trkpt lat="43.23301" lon="5.36965">
        <ele>43.88</ele>
        <time>2014-01-23T08:56:06Z</time>
      </trkpt>
      <trkpt lat="43.23305" lon="5.36987">
        <ele>43.88</ele>
        <time>2014-01-23T08:56:18Z</time>
      </trkpt>
      <trkpt lat="43.23304" lon="5.37019">
        <ele>43.88</ele>
        <time>2014-01-23T08:56:32Z</time>
      </trkpt>
      <trkpt lat="43.23307" lon="5.37039">
        <ele>43.4</ele>
        <time>2014-01-23T08:56:47Z</time>
      </trkpt>
      <trkpt lat="43.23312" lon="5.3706">
        <ele>41.95</ele>
        <time>2014-01-23T08:57:00Z</time>
      </trkpt>
      <trkpt lat="43.23297" lon="5.3708">
        <ele>44.84</ele>
        <time>2014-01-23T08:57:14Z</time>
      </trkpt>
      <trkpt lat="43.23298" lon="5.37087">
        <ele>44.84</ele>
        <time>2014-01-23T08:57:29Z</time>
      </trkpt>
      <trkpt lat="43.23296" lon="5.37101">
        <ele>43.88</ele>
        <time>2014-01-23T08:57:44Z</time>
      </trkpt>
      <trkpt lat="43.23291" lon="5.37119">
        <ele>42.92</ele>
        <time>2014-01-23T08:57:59Z</time>
      </trkpt>
      <trkpt lat="43.23285" lon="5.3714">
        <ele>43.88</ele>
        <time>2014-01-23T08:58:11Z</time>
      </trkpt>
      <trkpt lat="43.23276" lon="5.37165">
        <ele>43.4</ele>
        <time>2014-01-23T08:58:27Z</time>
      </trkpt>
      <trkpt lat="43.23273" lon="5.37174">
        <ele>43.4</ele>
        <time>2014-01-23T08:58:41Z</time>
      </trkpt>
      <trkpt lat="43.23262" lon="5.37193">
        <ele>43.88</ele>
        <time>2014-01-23T08:58:59Z</time>
      </trkpt>
      <trkpt lat="43.23253" lon="5.37203">
        <ele>43.88</ele>
        <time>2014-01-23T08:59:13Z</time>
      </trkpt>
      <trkpt lat="43.23239" lon="5.37209">
        <ele>44.36</ele>
        <time>2014-01-23T08:59:26Z</time>
      </trkpt>
      <trkpt lat="43.2323" lon="5.37231">
        <ele>47.72</ele>
        <time>2014-01-23T08:59:39Z</time>
      </trkpt>
      <trkpt lat="43.23229" lon="5.37249">
        <ele>47.72</ele>
        <time>2014-01-23T08:59:44Z</time>
      </trkpt>
      <trkpt lat="43.23233" lon="5.37251">
        <ele>48.68</ele>
        <time>2014-01-23T08:59:55Z</time>
      </trkpt>
      <trkpt lat="43.23236" lon="5.37253">
        <ele>48.2</ele>
        <time>2014-01-23T09:00:07Z</time>
      </trkpt>
      <trkpt lat="43.23235" lon="5.37255">
        <ele>47.72</ele>
        <time>2014-01-23T09:00:09Z</time>
      </trkpt>
      <trkpt lat="43.23233" lon="5.37258">
        <ele>49.16</ele>
        <time>2014-01-23T09:00:12Z</time>
      </trkpt>
      <trkpt lat="43.2323" lon="5.37264">
        <ele>49.16</ele>
        <time>2014-01-23T09:00:26Z</time>
      </trkpt>
      <trkpt lat="43.23226" lon="5.37268">
        <ele>52.05</ele>
        <time>2014-01-23T09:00:39Z</time>
      </trkpt>
      <trkpt lat="43.23223" lon="5.37274">
        <ele>52.05</ele>
        <time>2014-01-23T09:00:58Z</time>
      </trkpt>
      <trkpt lat="43.23222" lon="5.37275">
        <ele>51.09</ele>
        <time>2014-01-23T09:01:20Z</time>
      </trkpt>
      <trkpt lat="43.23221" lon="5.37277">
        <ele>50.61</ele>
        <time>2014-01-23T09:01:42Z</time>
      </trkpt>
      <trkpt lat="43.2322" lon="5.3728">
        <ele>50.13</ele>
        <time>2014-01-23T09:02:02Z</time>
      </trkpt>
      <trkpt lat="43.2322" lon="5.37302">
        <ele>47.24</ele>
        <time>2014-01-23T09:02:20Z</time>
      </trkpt>
      <trkpt lat="43.23213" lon="5.37311">
        <ele>44.84</ele>
        <time>2014-01-23T09:02:36Z</time>
      </trkpt>
      <trkpt lat="43.23211" lon="5.37314">
        <ele>45.32</ele>
        <time>2014-01-23T09:02:58Z</time>
      </trkpt>
      <trkpt lat="43.23205" lon="5.3732">
        <ele>41.95</ele>
        <time>2014-01-23T09:03:13Z</time>
      </trkpt>
      <trkpt lat="43.23185" lon="5.37312">
        <ele>40.99</ele>
        <time>2014-01-23T09:03:26Z</time>
      </trkpt>
      <trkpt lat="43.23184" lon="5.37318">
        <ele>40.99</ele>
        <time>2014-01-23T09:03:30Z</time>
      </trkpt>
      <trkpt lat="43.23181" lon="5.37357">
        <ele>40.03</ele>
        <time>2014-01-23T09:03:49Z</time>
      </trkpt>
      <trkpt lat="43.23182" lon="5.37373">
        <ele>36.67</ele>
        <time>2014-01-23T09:04:03Z</time>
      </trkpt>
      <trkpt lat="43.23181" lon="5.37383">
        <ele>36.67</ele>
        <time>2014-01-23T09:04:25Z</time>
      </trkpt>
      <trkpt lat="43.23171" lon="5.37396">
        <ele>37.15</ele>
        <time>2014-01-23T09:04:35Z</time>
      </trkpt>
      <trkpt lat="43.23165" lon="5.37412">
        <ele>36.67</ele>
        <time>2014-01-23T09:04:42Z</time>
      </trkpt>
      <trkpt lat="43.23155" lon="5.37419">
        <ele>36.67</ele>
        <time>2014-01-23T09:04:50Z</time>
      </trkpt>
      <trkpt lat="43.23142" lon="5.37443">
        <ele>37.15</ele>
        <time>2014-01-23T09:05:06Z</time>
      </trkpt>
      <trkpt lat="43.23128" lon="5.37453">
        <ele>37.63</ele>
        <time>2014-01-23T09:05:22Z</time>
      </trkpt>
      <trkpt lat="43.23117" lon="5.37464">
        <ele>38.11</ele>
        <time>2014-01-23T09:05:36Z</time>
      </trkpt>
      <trkpt lat="43.2311" lon="5.37475">
        <ele>39.07</ele>
        <time>2014-01-23T09:05:48Z</time>
      </trkpt>
      <trkpt lat="43.23096" lon="5.37481">
        <ele>40.03</ele>
        <time>2014-01-23T09:06:01Z</time>
      </trkpt>
      <trkpt lat="43.23081" lon="5.37484">
        <ele>40.51</ele>
        <time>2014-01-23T09:06:13Z</time>
      </trkpt>
      <trkpt lat="43.23066" lon="5.37503">
        <ele>41.95</ele>
        <time>2014-01-23T09:06:26Z</time>
      </trkpt>
      <trkpt lat="43.23053" lon="5.37519">
        <ele>43.4</ele>
        <time>2014-01-23T09:06:44Z</time>
      </trkpt>
      <trkpt lat="43.23047" lon="5.37527">
        <ele>43.88</ele>
        <time>2014-01-23T09:06:52Z</time>
      </trkpt>
      <trkpt lat="43.23034" lon="5.37537">
        <ele>44.84</ele>
        <time>2014-01-23T09:07:07Z</time>
      </trkpt>
      <trkpt lat="43.23028" lon="5.37546">
        <ele>46.28</ele>
        <time>2014-01-23T09:07:20Z</time>
      </trkpt>
      <trkpt lat="43.2302" lon="5.37563">
        <ele>47.72</ele>
        <time>2014-01-23T09:07:37Z</time>
      </trkpt>
      <trkpt lat="43.23011" lon="5.37577">
        <ele>49.65</ele>
        <time>2014-01-23T09:07:52Z</time>
      </trkpt>
      <trkpt lat="43.23007" lon="5.37587">
        <ele>51.57</ele>
        <time>2014-01-23T09:08:05Z</time>
      </trkpt>
      <trkpt lat="43.23001" lon="5.37597">
        <ele>52.05</ele>
        <time>2014-01-23T09:08:23Z</time>
      </trkpt>
      <trkpt lat="43.23" lon="5.37599">
        <ele>52.53</ele>
        <time>2014-01-23T09:08:39Z</time>
      </trkpt>
      <trkpt lat="43.22999" lon="5.37604">
        <ele>53.49</ele>
        <time>2014-01-23T09:08:57Z</time>
      </trkpt>
      <trkpt lat="43.22997" lon="5.37614">
        <ele>55.89</ele>
        <time>2014-01-23T09:09:13Z</time>
      </trkpt>
      <trkpt lat="43.22994" lon="5.37623">
        <ele>58.78</ele>
        <time>2014-01-23T09:09:32Z</time>
      </trkpt>
      <trkpt lat="43.22991" lon="5.3764">
        <ele>61.18</ele>
        <time>2014-01-23T09:09:50Z</time>
      </trkpt>
      <trkpt lat="43.22989" lon="5.37649">
        <ele>63.58</ele>
        <time>2014-01-23T09:10:07Z</time>
      </trkpt>
      <trkpt lat="43.22985" lon="5.37653">
        <ele>65.51</ele>
        <time>2014-01-23T09:10:26Z</time>
      </trkpt>
      <trkpt lat="43.22985" lon="5.37665">
        <ele>68.39</ele>
        <time>2014-01-23T09:10:47Z</time>
      </trkpt>
      <trkpt lat="43.22985" lon="5.37672">
        <ele>70.79</ele>
        <time>2014-01-23T09:11:03Z</time>
      </trkpt>
      <trkpt lat="43.22984" lon="5.37674">
        <ele>72.24</ele>
        <time>2014-01-23T09:11:25Z</time>
      </trkpt>
      <trkpt lat="43.22984" lon="5.37675">
        <ele>72.24</ele>
        <time>2014-01-23T09:11:45Z</time>
      </trkpt>
      <trkpt lat="43.22982" lon="5.37688">
        <ele>75.6</ele>
        <time>2014-01-23T09:12:05Z</time>
      </trkpt>
      <trkpt lat="43.2298" lon="5.37696">
        <ele>78.48</ele>
        <time>2014-01-23T09:12:22Z</time>
      </trkpt>
      <trkpt lat="43.22978" lon="5.37704">
        <ele>81.85</ele>
        <time>2014-01-23T09:12:40Z</time>
      </trkpt>
      <trkpt lat="43.22975" lon="5.37712">
        <ele>83.77</ele>
        <time>2014-01-23T09:12:55Z</time>
      </trkpt>
      <trkpt lat="43.22971" lon="5.37719">
        <ele>85.69</ele>
        <time>2014-01-23T09:13:10Z</time>
      </trkpt>
      <trkpt lat="43.22962" lon="5.37722">
        <ele>88.58</ele>
        <time>2014-01-23T09:13:28Z</time>
      </trkpt>
      <trkpt lat="43.22958" lon="5.37728">
        <ele>90.02</ele>
        <time>2014-01-23T09:13:45Z</time>
      </trkpt>
      <trkpt lat="43.22957" lon="5.3773">
        <ele>91.46</ele>
        <time>2014-01-23T09:14:01Z</time>
      </trkpt>
      <trkpt lat="43.22957" lon="5.37735">
        <ele>91.94</ele>
        <time>2014-01-23T09:14:20Z</time>
      </trkpt>
      <trkpt lat="43.22955" lon="5.37737">
        <ele>92.42</ele>
        <time>2014-01-23T09:14:40Z</time>
      </trkpt>
      <trkpt lat="43.22955" lon="5.37737">
        <ele>91.94</ele>
        <time>2014-01-23T09:14:43Z</time>
      </trkpt>
      <trkpt lat="43.22954" lon="5.37736">
        <ele>92.42</ele>
        <time>2014-01-23T09:14:56Z</time>
      </trkpt>
      <trkpt lat="43.22954" lon="5.37735">
        <ele>92.42</ele>
        <time>2014-01-23T09:15:12Z</time>
      </trkpt>
      <trkpt lat="43.22953" lon="5.37733">
        <ele>92.9</ele>
        <time>2014-01-23T09:15:25Z</time>
      </trkpt>
      <trkpt lat="43.22952" lon="5.37741">
        <ele>94.83</ele>
        <time>2014-01-23T09:15:42Z</time>
      </trkpt>
      <trkpt lat="43.22951" lon="5.37746">
        <ele>97.23</ele>
        <time>2014-01-23T09:15:59Z</time>
      </trkpt>
      <trkpt lat="43.22949" lon="5.37757">
        <ele>99.63</ele>
        <time>2014-01-23T09:16:18Z</time>
      </trkpt>
      <trkpt lat="43.2295" lon="5.37758">
        <ele>100.6</ele>
        <time>2014-01-23T09:16:41Z</time>
      </trkpt>
      <trkpt lat="43.2295" lon="5.37759">
        <ele>100.6</ele>
        <time>2014-01-23T09:17:13Z</time>
      </trkpt>
      <trkpt lat="43.22949" lon="5.37759">
        <ele>100.6</ele>
        <time>2014-01-23T09:17:37Z</time>
      </trkpt>
      <trkpt lat="43.22949" lon="5.3776">
        <ele>100.6</ele>
        <time>2014-01-23T09:17:59Z</time>
      </trkpt>
      <trkpt lat="43.22949" lon="5.3776">
        <ele>100.6</ele>
        <time>2014-01-23T09:18:28Z</time>
      </trkpt>
      <trkpt lat="43.22948" lon="5.37762">
        <ele>102.52</ele>
        <time>2014-01-23T09:18:53Z</time>
      </trkpt>
      <trkpt lat="43.22943" lon="5.3778">
        <ele>105.4</ele>
        <time>2014-01-23T09:19:09Z</time>
      </trkpt>
      <trkpt lat="43.22943" lon="5.37781">
        <ele>105.88</ele>
        <time>2014-01-23T09:19:36Z</time>
      </trkpt>
      <trkpt lat="43.22943" lon="5.37782">
        <ele>105.88</ele>
        <time>2014-01-23T09:20:06Z</time>
      </trkpt>
      <trkpt lat="43.22942" lon="5.37784">
        <ele>106.84</ele>
        <time>2014-01-23T09:20:29Z</time>
      </trkpt>
      <trkpt lat="43.22934" lon="5.37789">
        <ele>108.29</ele>
        <time>2014-01-23T09:20:47Z</time>
      </trkpt>
      <trkpt lat="43.22924" lon="5.37799">
        <ele>111.17</ele>
        <time>2014-01-23T09:21:06Z</time>
      </trkpt>
      <trkpt lat="43.2292" lon="5.37807">
        <ele>113.09</ele>
        <time>2014-01-23T09:21:23Z</time>
      </trkpt>
      <trkpt lat="43.22916" lon="5.37818">
        <ele>115.98</ele>
        <time>2014-01-23T09:21:41Z</time>
      </trkpt>
      <trkpt lat="43.22912" lon="5.37826">
        <ele>117.9</ele>
        <time>2014-01-23T09:22:00Z</time>
      </trkpt>
      <trkpt lat="43.22909" lon="5.3783">
        <ele>119.34</ele>
        <time>2014-01-23T09:22:12Z</time>
      </trkpt>
      <trkpt lat="43.22907" lon="5.37836">
        <ele>120.78</ele>
        <time>2014-01-23T09:22:28Z</time>
      </trkpt>
      <trkpt lat="43.22906" lon="5.37841">
        <ele>123.19</ele>
        <time>2014-01-23T09:22:44Z</time>
      </trkpt>
      <trkpt lat="43.229" lon="5.3785">
        <ele>124.63</ele>
        <time>2014-01-23T09:22:59Z</time>
      </trkpt>
      <trkpt lat="43.22895" lon="5.3786">
        <ele>127.03</ele>
        <time>2014-01-23T09:23:12Z</time>
      </trkpt>
      <trkpt lat="43.22884" lon="5.37869">
        <ele>128.47</ele>
        <time>2014-01-23T09:23:33Z</time>
      </trkpt>
      <trkpt lat="43.22882" lon="5.37881">
        <ele>130.4</ele>
        <time>2014-01-23T09:23:50Z</time>
      </trkpt>
      <trkpt lat="43.22879" lon="5.37892">
        <ele>132.32</ele>
        <time>2014-01-23T09:24:05Z</time>
      </trkpt>
      <trkpt lat="43.22876" lon="5.37896">
        <ele>134.24</ele>
        <time>2014-01-23T09:24:20Z</time>
      </trkpt>
      <trkpt lat="43.22875" lon="5.37903">
        <ele>136.16</ele>
        <time>2014-01-23T09:24:37Z</time>
      </trkpt>
      <trkpt lat="43.22874" lon="5.37909">
        <ele>139.05</ele>
        <time>2014-01-23T09:24:56Z</time>
      </trkpt>
      <trkpt lat="43.22875" lon="5.37912">
        <ele>139.53</ele>
        <time>2014-01-23T09:25:14Z</time>
      </trkpt>
      <trkpt lat="43.22873" lon="5.37914">
        <ele>141.93</ele>
        <time>2014-01-23T09:25:27Z</time>
      </trkpt>
      <trkpt lat="43.22872" lon="5.37918">
        <ele>144.34</ele>
        <time>2014-01-23T09:25:43Z</time>
      </trkpt>
      <trkpt lat="43.22871" lon="5.37928">
        <ele>145.78</ele>
        <time>2014-01-23T09:25:57Z</time>
      </trkpt>
      <trkpt lat="43.22871" lon="5.37934">
        <ele>148.18</ele>
        <time>2014-01-23T09:26:13Z</time>
      </trkpt>
      <trkpt lat="43.2287" lon="5.37939">
        <ele>150.58</ele>
        <time>2014-01-23T09:26:36Z</time>
      </trkpt>
      <trkpt lat="43.22866" lon="5.37953">
        <ele>153.95</ele>
        <time>2014-01-23T09:26:52Z</time>
      </trkpt>
      <trkpt lat="43.2286" lon="5.37957">
        <ele>154.91</ele>
        <time>2014-01-23T09:27:10Z</time>
      </trkpt>
      <trkpt lat="43.22859" lon="5.37957">
        <ele>154.91</ele>
        <time>2014-01-23T09:27:30Z</time>
      </trkpt>
      <trkpt lat="43.22857" lon="5.37956">
        <ele>155.39</ele>
        <time>2014-01-23T09:27:52Z</time>
      </trkpt>
      <trkpt lat="43.22855" lon="5.37955">
        <ele>155.39</ele>
        <time>2014-01-23T09:28:17Z</time>
      </trkpt>
      <trkpt lat="43.22858" lon="5.37952">
        <ele>154.91</ele>
        <time>2014-01-23T09:28:36Z</time>
      </trkpt>
      <trkpt lat="43.2286" lon="5.37953">
        <ele>155.39</ele>
        <time>2014-01-23T09:28:53Z</time>
      </trkpt>
      <trkpt lat="43.22858" lon="5.37956">
        <ele>154.91</ele>
        <time>2014-01-23T09:29:17Z</time>
      </trkpt>
      <trkpt lat="43.22857" lon="5.37953">
        <ele>154.91</ele>
        <time>2014-01-23T09:29:40Z</time>
      </trkpt>
      <trkpt lat="43.22859" lon="5.37953">
        <ele>154.91</ele>
        <time>2014-01-23T09:30:02Z</time>
      </trkpt>
      <trkpt lat="43.22862" lon="5.3795">
        <ele>154.43</ele>
        <time>2014-01-23T09:30:16Z</time>
      </trkpt>
      <trkpt lat="43.2286" lon="5.37949">
        <ele>154.43</ele>
        <time>2014-01-23T09:30:29Z</time>
      </trkpt>
      <trkpt lat="43.2286" lon="5.37949">
        <ele>154.91</ele>
        <time>2014-01-23T09:30:55Z</time>
      </trkpt>
      <trkpt lat="43.22861" lon="5.37949">
        <ele>154.91</ele>
        <time>2014-01-23T09:31:21Z</time>
      </trkpt>
      <trkpt lat="43.22864" lon="5.37946">
        <ele>153.95</ele>
        <time>2014-01-23T09:31:35Z</time>
      </trkpt>
      <trkpt lat="43.22873" lon="5.37953">
        <ele>154.91</ele>
        <time>2014-01-23T09:31:53Z</time>
      </trkpt>
      <trkpt lat="43.22871" lon="5.37951">
        <ele>154.91</ele>
        <time>2014-01-23T09:32:16Z</time>
      </trkpt>
      <trkpt lat="43.22877" lon="5.37947">
        <ele>156.35</ele>
        <time>2014-01-23T09:32:35Z</time>
      </trkpt>
      <trkpt lat="43.22884" lon="5.37943">
        <ele>157.79</ele>
        <time>2014-01-23T09:32:54Z</time>
      </trkpt>
      <trkpt lat="43.22897" lon="5.3794">
        <ele>159.72</ele>
        <time>2014-01-23T09:33:10Z</time>
      </trkpt>
      <trkpt lat="43.22906" lon="5.37939">
        <ele>162.6</ele>
        <time>2014-01-23T09:33:29Z</time>
      </trkpt>
      <trkpt lat="43.22919" lon="5.3794">
        <ele>164.52</ele>
        <time>2014-01-23T09:33:47Z</time>
      </trkpt>
      <trkpt lat="43.22931" lon="5.37939">
        <ele>165.48</ele>
        <time>2014-01-23T09:34:05Z</time>
      </trkpt>
      <trkpt lat="43.22939" lon="5.37937">
        <ele>167.41</ele>
        <time>2014-01-23T09:34:22Z</time>
      </trkpt>
      <trkpt lat="43.22944" lon="5.37937">
        <ele>169.81</ele>
        <time>2014-01-23T09:34:41Z</time>
      </trkpt>
      <trkpt lat="43.22953" lon="5.37932">
        <ele>170.77</ele>
        <time>2014-01-23T09:34:56Z</time>
      </trkpt>
      <trkpt lat="43.22965" lon="5.37932">
        <ele>172.21</ele>
        <time>2014-01-23T09:35:12Z</time>
      </trkpt>
      <trkpt lat="43.22972" lon="5.37932">
        <ele>172.21</ele>
        <time>2014-01-23T09:35:27Z</time>
      </trkpt>
      <trkpt lat="43.22978" lon="5.37934">
        <ele>173.17</ele>
        <time>2014-01-23T09:35:42Z</time>
      </trkpt>
      <trkpt lat="43.22988" lon="5.37942">
        <ele>174.14</ele>
        <time>2014-01-23T09:35:56Z</time>
      </trkpt>
      <trkpt lat="43.23" lon="5.37948">
        <ele>176.54</ele>
        <time>2014-01-23T09:36:13Z</time>
      </trkpt>
      <trkpt lat="43.23014" lon="5.37953">
        <ele>178.46</ele>
        <time>2014-01-23T09:36:29Z</time>
      </trkpt>
      <trkpt lat="43.2302" lon="5.37959">
        <ele>180.38</ele>
        <time>2014-01-23T09:36:46Z</time>
      </trkpt>
      <trkpt lat="43.23023" lon="5.37963">
        <ele>181.83</ele>
        <time>2014-01-23T09:37:02Z</time>
      </trkpt>
      <trkpt lat="43.2303" lon="5.37981">
        <ele>183.75</ele>
        <time>2014-01-23T09:37:16Z</time>
      </trkpt>
      <trkpt lat="43.23034" lon="5.37983">
        <ele>186.63</ele>
        <time>2014-01-23T09:37:32Z</time>
      </trkpt>
      <trkpt lat="43.23043" lon="5.37985">
        <ele>188.08</ele>
        <time>2014-01-23T09:37:46Z</time>
      </trkpt>
      <trkpt lat="43.23051" lon="5.37981">
        <ele>189.04</ele>
        <time>2014-01-23T09:38:00Z</time>
      </trkpt>
      <trkpt lat="43.23056" lon="5.37985">
        <ele>189.52</ele>
        <time>2014-01-23T09:38:14Z</time>
      </trkpt>
      <trkpt lat="43.23057" lon="5.37991">
        <ele>189.52</ele>
        <time>2014-01-23T09:38:19Z</time>
      </trkpt>
      <trkpt lat="43.23074" lon="5.38007">
        <ele>190.48</ele>
        <time>2014-01-23T09:38:39Z</time>
      </trkpt>
      <trkpt lat="43.23083" lon="5.38022">
        <ele>191.92</ele>
        <time>2014-01-23T09:38:58Z</time>
      </trkpt>
      <trkpt lat="43.23093" lon="5.38031">
        <ele>193.84</ele>
        <time>2014-01-23T09:39:15Z</time>
      </trkpt>
      <trkpt lat="43.23102" lon="5.38044">
        <ele>194.32</ele>
        <time>2014-01-23T09:39:33Z</time>
      </trkpt>
      <trkpt lat="43.23107" lon="5.38057">
        <ele>195.77</ele>
        <time>2014-01-23T09:39:50Z</time>
      </trkpt>
      <trkpt lat="43.23108" lon="5.38061">
        <ele>194.8</ele>
        <time>2014-01-23T09:40:07Z</time>
      </trkpt>
      <trkpt lat="43.23111" lon="5.38062">
        <ele>194.8</ele>
        <time>2014-01-23T09:40:22Z</time>
      </trkpt>
      <trkpt lat="43.23113" lon="5.38063">
        <ele>194.32</ele>
        <time>2014-01-23T09:40:43Z</time>
      </trkpt>
      <trkpt lat="43.23118" lon="5.38064">
        <ele>194.32</ele>
        <time>2014-01-23T09:40:47Z</time>
      </trkpt>
      <trkpt lat="43.23121" lon="5.3807">
        <ele>193.84</ele>
        <time>2014-01-23T09:41:02Z</time>
      </trkpt>
      <trkpt lat="43.23121" lon="5.38071">
        <ele>194.32</ele>
        <time>2014-01-23T09:41:31Z</time>
      </trkpt>
      <trkpt lat="43.23121" lon="5.38071">
        <ele>194.32</ele>
        <time>2014-01-23T09:41:54Z</time>
      </trkpt>
      <trkpt lat="43.23124" lon="5.38077">
        <ele>194.8</ele>
        <time>2014-01-23T09:42:11Z</time>
      </trkpt>
      <trkpt lat="43.23124" lon="5.38092">
        <ele>196.25</ele>
        <time>2014-01-23T09:42:26Z</time>
      </trkpt>
      <trkpt lat="43.23126" lon="5.38103">
        <ele>198.17</ele>
        <time>2014-01-23T09:42:39Z</time>
      </trkpt>
      <trkpt lat="43.2312" lon="5.38111">
        <ele>200.09</ele>
        <time>2014-01-23T09:42:55Z</time>
      </trkpt>
      <trkpt lat="43.23118" lon="5.38115">
        <ele>202.01</ele>
        <time>2014-01-23T09:43:12Z</time>
      </trkpt>
      <trkpt lat="43.23116" lon="5.3812">
        <ele>203.46</ele>
        <time>2014-01-23T09:43:27Z</time>
      </trkpt>
      <trkpt lat="43.23115" lon="5.38123">
        <ele>203.94</ele>
        <time>2014-01-23T09:43:46Z</time>
      </trkpt>
      <trkpt lat="43.23114" lon="5.38125">
        <ele>204.42</ele>
        <time>2014-01-23T09:44:13Z</time>
      </trkpt>
      <trkpt lat="43.23114" lon="5.38125">
        <ele>204.42</ele>
        <time>2014-01-23T09:44:36Z</time>
      </trkpt>
      <trkpt lat="43.23114" lon="5.38125">
        <ele>204.42</ele>
        <time>2014-01-23T09:45:03Z</time>
      </trkpt>
      <trkpt lat="43.23113" lon="5.38125">
        <ele>204.9</ele>
        <time>2014-01-23T09:45:19Z</time>
      </trkpt>
      <trkpt lat="43.23112" lon="5.38129">
        <ele>205.38</ele>
        <time>2014-01-23T09:45:23Z</time>
      </trkpt>
      <trkpt lat="43.23099" lon="5.38155">
        <ele>208.74</ele>
        <time>2014-01-23T09:45:38Z</time>
      </trkpt>
      <trkpt lat="43.23099" lon="5.38157">
        <ele>208.74</ele>
        <time>2014-01-23T09:45:39Z</time>
      </trkpt>
      <trkpt lat="43.2309" lon="5.38172">
        <ele>209.22</ele>
        <time>2014-01-23T09:45:51Z</time>
      </trkpt>
      <trkpt lat="43.23089" lon="5.38174">
        <ele>209.22</ele>
        <time>2014-01-23T09:45:52Z</time>
      </trkpt>
      <trkpt lat="43.23079" lon="5.38189">
        <ele>208.74</ele>
        <time>2014-01-23T09:46:05Z</time>
      </trkpt>
      <trkpt lat="43.2307" lon="5.38209">
        <ele>207.3</ele>
        <time>2014-01-23T09:46:21Z</time>
      </trkpt>
      <trkpt lat="43.23064" lon="5.38221">
        <ele>206.34</ele>
        <time>2014-01-23T09:46:34Z</time>
      </trkpt>
      <trkpt lat="43.23059" lon="5.38233">
        <ele>205.38</ele>
        <time>2014-01-23T09:46:51Z</time>
      </trkpt>
      <trkpt lat="43.23059" lon="5.38234">
        <ele>204.9</ele>
        <time>2014-01-23T09:46:52Z</time>
      </trkpt>
      <trkpt lat="43.23058" lon="5.38238">
        <ele>205.38</ele>
        <time>2014-01-23T09:46:55Z</time>
      </trkpt>
      <trkpt lat="43.23055" lon="5.3825">
        <ele>205.38</ele>
        <time>2014-01-23T09:47:04Z</time>
      </trkpt>
      <trkpt lat="43.23053" lon="5.38253">
        <ele>205.38</ele>
        <time>2014-01-23T09:47:06Z</time>
      </trkpt>
      <trkpt lat="43.23048" lon="5.3827">
        <ele>205.86</ele>
        <time>2014-01-23T09:47:21Z</time>
      </trkpt>
      <trkpt lat="43.23046" lon="5.38278">
        <ele>205.86</ele>
        <time>2014-01-23T09:47:37Z</time>
      </trkpt>
      <trkpt lat="43.23041" lon="5.38285">
        <ele>205.86</ele>
        <time>2014-01-23T09:47:43Z</time>
      </trkpt>
      <trkpt lat="43.23033" lon="5.38286">
        <ele>206.82</ele>
        <time>2014-01-23T09:47:56Z</time>
      </trkpt>
      <trkpt lat="43.23034" lon="5.38279">
        <ele>206.82</ele>
        <time>2014-01-23T09:48:13Z</time>
      </trkpt>
      <trkpt lat="43.2303" lon="5.38284">
        <ele>207.3</ele>
        <time>2014-01-23T09:48:29Z</time>
      </trkpt>
      <trkpt lat="43.23024" lon="5.38299">
        <ele>206.34</ele>
        <time>2014-01-23T09:48:44Z</time>
      </trkpt>
      <trkpt lat="43.23019" lon="5.383">
        <ele>207.3</ele>
        <time>2014-01-23T09:48:58Z</time>
      </trkpt>
      <trkpt lat="43.23018" lon="5.38299">
        <ele>207.3</ele>
        <time>2014-01-23T09:49:10Z</time>
      </trkpt>
      <trkpt lat="43.23018" lon="5.38297">
        <ele>207.3</ele>
        <time>2014-01-23T09:49:28Z</time>
      </trkpt>
      <trkpt lat="43.2302" lon="5.38297">
        <ele>207.3</ele>
        <time>2014-01-23T09:49:43Z</time>
      </trkpt>
      <trkpt lat="43.23021" lon="5.38296">
        <ele>207.3</ele>
        <time>2014-01-23T09:50:02Z</time>
      </trkpt>
      <trkpt lat="43.23023" lon="5.38297">
        <ele>206.82</ele>
        <time>2014-01-23T09:50:19Z</time>
      </trkpt>
      <trkpt lat="43.23023" lon="5.38298">
        <ele>207.3</ele>
        <time>2014-01-23T09:50:40Z</time>
      </trkpt>
      <trkpt lat="43.23023" lon="5.38298">
        <ele>207.3</ele>
        <time>2014-01-23T09:51:00Z</time>
      </trkpt>
      <trkpt lat="43.23023" lon="5.38298">
        <ele>206.82</ele>
        <time>2014-01-23T09:51:21Z</time>
      </trkpt>
      <trkpt lat="43.23023" lon="5.38298">
        <ele>207.3</ele>
        <time>2014-01-23T09:51:33Z</time>
      </trkpt>
      <trkpt lat="43.23022" lon="5.38299">
        <ele>207.3</ele>
        <time>2014-01-23T09:51:53Z</time>
      </trkpt>
      <trkpt lat="43.23022" lon="5.38298">
        <ele>207.3</ele>
        <time>2014-01-23T09:52:07Z</time>
      </trkpt>
      <trkpt lat="43.23018" lon="5.38299">
        <ele>207.78</ele>
        <time>2014-01-23T09:52:21Z</time>
      </trkpt>
      <trkpt lat="43.23018" lon="5.38299">
        <ele>207.78</ele>
        <time>2014-01-23T09:52:37Z</time>
      </trkpt>
      <trkpt lat="43.23021" lon="5.38296">
        <ele>207.78</ele>
        <time>2014-01-23T09:52:52Z</time>
      </trkpt>
      <trkpt lat="43.23026" lon="5.38296">
        <ele>207.3</ele>
        <time>2014-01-23T09:53:07Z</time>
      </trkpt>
      <trkpt lat="43.23028" lon="5.3829">
        <ele>207.3</ele>
        <time>2014-01-23T09:53:20Z</time>
      </trkpt>
      <trkpt lat="43.23028" lon="5.38289">
        <ele>207.3</ele>
        <time>2014-01-23T09:53:21Z</time>
      </trkpt>
      <trkpt lat="43.2303" lon="5.38284">
        <ele>207.78</ele>
        <time>2014-01-23T09:53:35Z</time>
      </trkpt>
      <trkpt lat="43.2303" lon="5.38284">
        <ele>207.78</ele>
        <time>2014-01-23T09:54:03Z</time>
      </trkpt>
      <trkpt lat="43.2303" lon="5.38284">
        <ele>207.78</ele>
        <time>2014-01-23T09:54:11Z</time>
      </trkpt>
      <trkpt lat="43.23027" lon="5.38289">
        <ele>207.78</ele>
        <time>2014-01-23T09:54:15Z</time>
      </trkpt>
      <trkpt lat="43.23026" lon="5.38292">
        <ele>207.3</ele>
        <time>2014-01-23T09:54:17Z</time>
      </trkpt>
      <trkpt lat="43.23023" lon="5.38296">
        <ele>207.78</ele>
        <time>2014-01-23T09:54:21Z</time>
      </trkpt>
      <trkpt lat="43.23011" lon="5.38295">
        <ele>208.74</ele>
        <time>2014-01-23T09:54:33Z</time>
      </trkpt>
      <trkpt lat="43.23007" lon="5.38295">
        <ele>208.74</ele>
        <time>2014-01-23T09:54:37Z</time>
      </trkpt>
      <trkpt lat="43.23003" lon="5.38296">
        <ele>208.74</ele>
        <time>2014-01-23T09:54:40Z</time>
      </trkpt>
      <trkpt lat="43.22996" lon="5.3829">
        <ele>211.63</ele>
        <time>2014-01-23T09:54:53Z</time>
      </trkpt>
      <trkpt lat="43.22981" lon="5.38282">
        <ele>213.55</ele>
        <time>2014-01-23T09:55:08Z</time>
      </trkpt>
      <trkpt lat="43.22975" lon="5.3827">
        <ele>214.99</ele>
        <time>2014-01-23T09:55:20Z</time>
      </trkpt>
      <trkpt lat="43.22964" lon="5.38259">
        <ele>215.95</ele>
        <time>2014-01-23T09:55:32Z</time>
      </trkpt>
      <trkpt lat="43.2296" lon="5.38251">
        <ele>218.36</ele>
        <time>2014-01-23T09:55:47Z</time>
      </trkpt>
      <trkpt lat="43.22954" lon="5.38247">
        <ele>220.28</ele>
        <time>2014-01-23T09:56:02Z</time>
      </trkpt>
      <trkpt lat="43.2295" lon="5.38243">
        <ele>222.2</ele>
        <time>2014-01-23T09:56:13Z</time>
      </trkpt>
      <trkpt lat="43.22941" lon="5.38243">
        <ele>225.09</ele>
        <time>2014-01-23T09:56:28Z</time>
      </trkpt>
      <trkpt lat="43.22938" lon="5.38236">
        <ele>227.49</ele>
        <time>2014-01-23T09:56:42Z</time>
      </trkpt>
      <trkpt lat="43.22943" lon="5.38232">
        <ele>229.89</ele>
        <time>2014-01-23T09:56:55Z</time>
      </trkpt>
      <trkpt lat="43.22942" lon="5.38231">
        <ele>231.81</ele>
        <time>2014-01-23T09:57:10Z</time>
      </trkpt>
      <trkpt lat="43.22936" lon="5.38225">
        <ele>234.7</ele>
        <time>2014-01-23T09:57:29Z</time>
      </trkpt>
      <trkpt lat="43.22937" lon="5.38218">
        <ele>236.62</ele>
        <time>2014-01-23T09:57:44Z</time>
      </trkpt>
      <trkpt lat="43.22936" lon="5.38215">
        <ele>237.58</ele>
        <time>2014-01-23T09:57:46Z</time>
      </trkpt>
      <trkpt lat="43.22928" lon="5.38215">
        <ele>239.99</ele>
        <time>2014-01-23T09:58:00Z</time>
      </trkpt>
      <trkpt lat="43.22923" lon="5.38214">
        <ele>241.91</ele>
        <time>2014-01-23T09:58:21Z</time>
      </trkpt>
      <trkpt lat="43.22915" lon="5.38211">
        <ele>244.79</ele>
        <time>2014-01-23T09:58:33Z</time>
      </trkpt>
      <trkpt lat="43.22912" lon="5.3821">
        <ele>246.72</ele>
        <time>2014-01-23T09:58:49Z</time>
      </trkpt>
      <trkpt lat="43.22904" lon="5.38204">
        <ele>246.72</ele>
        <time>2014-01-23T09:59:01Z</time>
      </trkpt>
      <trkpt lat="43.22903" lon="5.38193">
        <ele>247.2</ele>
        <time>2014-01-23T09:59:14Z</time>
      </trkpt>
      <trkpt lat="43.22898" lon="5.38185">
        <ele>247.2</ele>
        <time>2014-01-23T09:59:26Z</time>
      </trkpt>
      <trkpt lat="43.22898" lon="5.38185">
        <ele>247.2</ele>
        <time>2014-01-23T09:59:44Z</time>
      </trkpt>
      <trkpt lat="43.22898" lon="5.38184">
        <ele>247.2</ele>
        <time>2014-01-23T10:00:03Z</time>
      </trkpt>
      <trkpt lat="43.22899" lon="5.38184">
        <ele>247.2</ele>
        <time>2014-01-23T10:00:27Z</time>
      </trkpt>
      <trkpt lat="43.22898" lon="5.38184">
        <ele>246.72</ele>
        <time>2014-01-23T10:00:53Z</time>
      </trkpt>
      <trkpt lat="43.22898" lon="5.38184">
        <ele>247.2</ele>
        <time>2014-01-23T10:01:13Z</time>
      </trkpt>
      <trkpt lat="43.22898" lon="5.38184">
        <ele>247.2</ele>
        <time>2014-01-23T10:01:35Z</time>
      </trkpt>
      <trkpt lat="43.22901" lon="5.38193">
        <ele>246.72</ele>
        <time>2014-01-23T10:01:46Z</time>
      </trkpt>
      <trkpt lat="43.22904" lon="5.38205">
        <ele>246.72</ele>
        <time>2014-01-23T10:01:55Z</time>
      </trkpt>
      <trkpt lat="43.229" lon="5.38211">
        <ele>246.23</ele>
        <time>2014-01-23T10:02:01Z</time>
      </trkpt>
      <trkpt lat="43.22895" lon="5.38211">
        <ele>246.23</ele>
        <time>2014-01-23T10:02:04Z</time>
      </trkpt>
      <trkpt lat="43.22887" lon="5.38222">
        <ele>245.75</ele>
        <time>2014-01-23T10:02:12Z</time>
      </trkpt>
      <trkpt lat="43.22878" lon="5.38239">
        <ele>244.31</ele>
        <time>2014-01-23T10:02:26Z</time>
      </trkpt>
      <trkpt lat="43.22879" lon="5.38248">
        <ele>243.35</ele>
        <time>2014-01-23T10:02:34Z</time>
      </trkpt>
      <trkpt lat="43.22876" lon="5.38255">
        <ele>242.87</ele>
        <time>2014-01-23T10:02:40Z</time>
      </trkpt>
      <trkpt lat="43.22865" lon="5.38271">
        <ele>243.35</ele>
        <time>2014-01-23T10:02:53Z</time>
      </trkpt>
      <trkpt lat="43.22863" lon="5.38276">
        <ele>243.35</ele>
        <time>2014-01-23T10:02:59Z</time>
      </trkpt>
      <trkpt lat="43.22862" lon="5.38279">
        <ele>243.35</ele>
        <time>2014-01-23T10:03:13Z</time>
      </trkpt>
      <trkpt lat="43.22861" lon="5.3828">
        <ele>243.83</ele>
        <time>2014-01-23T10:03:28Z</time>
      </trkpt>
      <trkpt lat="43.2286" lon="5.38282">
        <ele>243.83</ele>
        <time>2014-01-23T10:03:43Z</time>
      </trkpt>
      <trkpt lat="43.22859" lon="5.38283">
        <ele>244.31</ele>
        <time>2014-01-23T10:04:00Z</time>
      </trkpt>
      <trkpt lat="43.2286" lon="5.38286">
        <ele>244.31</ele>
        <time>2014-01-23T10:04:21Z</time>
      </trkpt>
      <trkpt lat="43.2286" lon="5.38287">
        <ele>244.31</ele>
        <time>2014-01-23T10:04:43Z</time>
      </trkpt>
      <trkpt lat="43.2286" lon="5.38289">
        <ele>244.31</ele>
        <time>2014-01-23T10:04:59Z</time>
      </trkpt>
      <trkpt lat="43.22861" lon="5.383">
        <ele>243.35</ele>
        <time>2014-01-23T10:05:14Z</time>
      </trkpt>
      <trkpt lat="43.22861" lon="5.38306">
        <ele>243.35</ele>
        <time>2014-01-23T10:05:24Z</time>
      </trkpt>
      <trkpt lat="43.22861" lon="5.38316">
        <ele>243.35</ele>
        <time>2014-01-23T10:05:31Z</time>
      </trkpt>
      <trkpt lat="43.22863" lon="5.38334">
        <ele>244.79</ele>
        <time>2014-01-23T10:05:44Z</time>
      </trkpt>
      <trkpt lat="43.22863" lon="5.38338">
        <ele>244.79</ele>
        <time>2014-01-23T10:05:47Z</time>
      </trkpt>
      <trkpt lat="43.22862" lon="5.38346">
        <ele>245.75</ele>
        <time>2014-01-23T10:05:53Z</time>
      </trkpt>
      <trkpt lat="43.22861" lon="5.38349">
        <ele>245.75</ele>
        <time>2014-01-23T10:05:55Z</time>
      </trkpt>
      <trkpt lat="43.22856" lon="5.3836">
        <ele>246.72</ele>
        <time>2014-01-23T10:06:05Z</time>
      </trkpt>
      <trkpt lat="43.22853" lon="5.38366">
        <ele>247.68</ele>
        <time>2014-01-23T10:06:11Z</time>
      </trkpt>
      <trkpt lat="43.22852" lon="5.3837">
        <ele>248.16</ele>
        <time>2014-01-23T10:06:14Z</time>
      </trkpt>
      <trkpt lat="43.22851" lon="5.38375">
        <ele>247.68</ele>
        <time>2014-01-23T10:06:18Z</time>
      </trkpt>
      <trkpt lat="43.22847" lon="5.3839">
        <ele>247.2</ele>
        <time>2014-01-23T10:06:32Z</time>
      </trkpt>
      <trkpt lat="43.22843" lon="5.38406">
        <ele>245.75</ele>
        <time>2014-01-23T10:06:50Z</time>
      </trkpt>
      <trkpt lat="43.22832" lon="5.38426">
        <ele>243.83</ele>
        <time>2014-01-23T10:07:08Z</time>
      </trkpt>
      <trkpt lat="43.22821" lon="5.38433">
        <ele>242.39</ele>
        <time>2014-01-23T10:07:25Z</time>
      </trkpt>
      <trkpt lat="43.22813" lon="5.38436">
        <ele>241.43</ele>
        <time>2014-01-23T10:07:39Z</time>
      </trkpt>
      <trkpt lat="43.22802" lon="5.38437">
        <ele>241.91</ele>
        <time>2014-01-23T10:07:50Z</time>
      </trkpt>
      <trkpt lat="43.22792" lon="5.38434">
        <ele>241.91</ele>
        <time>2014-01-23T10:08:01Z</time>
      </trkpt>
      <trkpt lat="43.22782" lon="5.38427">
        <ele>242.39</ele>
        <time>2014-01-23T10:08:14Z</time>
      </trkpt>
      <trkpt lat="43.22781" lon="5.38426">
        <ele>242.87</ele>
        <time>2014-01-23T10:08:15Z</time>
      </trkpt>
      <trkpt lat="43.22772" lon="5.38418">
        <ele>243.35</ele>
        <time>2014-01-23T10:08:28Z</time>
      </trkpt>
      <trkpt lat="43.22766" lon="5.38417">
        <ele>242.87</ele>
        <time>2014-01-23T10:08:34Z</time>
      </trkpt>
      <trkpt lat="43.22759" lon="5.38413">
        <ele>242.39</ele>
        <time>2014-01-23T10:08:43Z</time>
      </trkpt>
      <trkpt lat="43.22754" lon="5.38409">
        <ele>242.87</ele>
        <time>2014-01-23T10:08:58Z</time>
      </trkpt>
      <trkpt lat="43.22747" lon="5.38406">
        <ele>240.47</ele>
        <time>2014-01-23T10:09:12Z</time>
      </trkpt>
      <trkpt lat="43.22737" lon="5.38398">
        <ele>240.47</ele>
        <time>2014-01-23T10:09:24Z</time>
      </trkpt>
      <trkpt lat="43.22724" lon="5.38398">
        <ele>239.99</ele>
        <time>2014-01-23T10:09:37Z</time>
      </trkpt>
      <trkpt lat="43.2271" lon="5.38405">
        <ele>239.51</ele>
        <time>2014-01-23T10:09:51Z</time>
      </trkpt>
      <trkpt lat="43.22706" lon="5.38399">
        <ele>241.91</ele>
        <time>2014-01-23T10:10:10Z</time>
      </trkpt>
      <trkpt lat="43.22702" lon="5.38394">
        <ele>242.87</ele>
        <time>2014-01-23T10:10:25Z</time>
      </trkpt>
      <trkpt lat="43.22703" lon="5.38395">
        <ele>242.39</ele>
        <time>2014-01-23T10:10:42Z</time>
      </trkpt>
      <trkpt lat="43.22696" lon="5.38405">
        <ele>242.87</ele>
        <time>2014-01-23T10:10:57Z</time>
      </trkpt>
      <trkpt lat="43.22693" lon="5.38409">
        <ele>242.87</ele>
        <time>2014-01-23T10:11:12Z</time>
      </trkpt>
      <trkpt lat="43.22692" lon="5.38413">
        <ele>241.43</ele>
        <time>2014-01-23T10:11:25Z</time>
      </trkpt>
      <trkpt lat="43.22691" lon="5.38419">
        <ele>240.47</ele>
        <time>2014-01-23T10:11:45Z</time>
      </trkpt>
      <trkpt lat="43.22691" lon="5.38419">
        <ele>240.95</ele>
        <time>2014-01-23T10:12:02Z</time>
      </trkpt>
      <trkpt lat="43.22689" lon="5.3842">
        <ele>241.91</ele>
        <time>2014-01-23T10:12:15Z</time>
      </trkpt>
      <trkpt lat="43.22682" lon="5.38433">
        <ele>241.91</ele>
        <time>2014-01-23T10:12:29Z</time>
      </trkpt>
      <trkpt lat="43.22677" lon="5.38439">
        <ele>241.43</ele>
        <time>2014-01-23T10:12:36Z</time>
      </trkpt>
      <trkpt lat="43.2267" lon="5.38444">
        <ele>240.95</ele>
        <time>2014-01-23T10:12:50Z</time>
      </trkpt>
      <trkpt lat="43.22663" lon="5.38452">
        <ele>239.02</ele>
        <time>2014-01-23T10:13:02Z</time>
      </trkpt>
      <trkpt lat="43.22653" lon="5.38461">
        <ele>239.99</ele>
        <time>2014-01-23T10:13:17Z</time>
      </trkpt>
      <trkpt lat="43.22645" lon="5.38462">
        <ele>241.43</ele>
        <time>2014-01-23T10:13:34Z</time>
      </trkpt>
      <trkpt lat="43.2263" lon="5.38469">
        <ele>239.99</ele>
        <time>2014-01-23T10:13:49Z</time>
      </trkpt>
      <trkpt lat="43.22611" lon="5.38484">
        <ele>237.58</ele>
        <time>2014-01-23T10:14:06Z</time>
      </trkpt>
      <trkpt lat="43.22612" lon="5.38488">
        <ele>235.66</ele>
        <time>2014-01-23T10:14:19Z</time>
      </trkpt>
      <trkpt lat="43.22613" lon="5.38488">
        <ele>233.26</ele>
        <time>2014-01-23T10:14:35Z</time>
      </trkpt>
      <trkpt lat="43.22615" lon="5.38489">
        <ele>229.89</ele>
        <time>2014-01-23T10:14:48Z</time>
      </trkpt>
      <trkpt lat="43.22615" lon="5.38497">
        <ele>227.97</ele>
        <time>2014-01-23T10:14:57Z</time>
      </trkpt>
      <trkpt lat="43.22618" lon="5.38507">
        <ele>224.61</ele>
        <time>2014-01-23T10:15:11Z</time>
      </trkpt>
      <trkpt lat="43.22623" lon="5.38517">
        <ele>221.72</ele>
        <time>2014-01-23T10:15:23Z</time>
      </trkpt>
      <trkpt lat="43.22632" lon="5.38535">
        <ele>218.84</ele>
        <time>2014-01-23T10:15:38Z</time>
      </trkpt>
      <trkpt lat="43.22646" lon="5.38551">
        <ele>217.4</ele>
        <time>2014-01-23T10:15:51Z</time>
      </trkpt>
      <trkpt lat="43.22659" lon="5.38558">
        <ele>215.95</ele>
        <time>2014-01-23T10:16:05Z</time>
      </trkpt>
      <trkpt lat="43.22658" lon="5.38554">
        <ele>216.43</ele>
        <time>2014-01-23T10:16:24Z</time>
      </trkpt>
      <trkpt lat="43.22658" lon="5.38559">
        <ele>214.99</ele>
        <time>2014-01-23T10:16:45Z</time>
      </trkpt>
      <trkpt lat="43.22659" lon="5.38563">
        <ele>214.51</ele>
        <time>2014-01-23T10:16:47Z</time>
      </trkpt>
      <trkpt lat="43.22666" lon="5.38585">
        <ele>212.11</ele>
        <time>2014-01-23T10:17:04Z</time>
      </trkpt>
      <trkpt lat="43.22665" lon="5.38604">
        <ele>212.11</ele>
        <time>2014-01-23T10:17:18Z</time>
      </trkpt>
      <trkpt lat="43.22662" lon="5.38617">
        <ele>213.07</ele>
        <time>2014-01-23T10:17:36Z</time>
      </trkpt>
      <trkpt lat="43.22662" lon="5.38635">
        <ele>214.99</ele>
        <time>2014-01-23T10:17:50Z</time>
      </trkpt>
      <trkpt lat="43.22662" lon="5.38648">
        <ele>217.88</ele>
        <time>2014-01-23T10:18:04Z</time>
      </trkpt>
      <trkpt lat="43.22659" lon="5.38658">
        <ele>219.8</ele>
        <time>2014-01-23T10:18:15Z</time>
      </trkpt>
      <trkpt lat="43.22659" lon="5.38662">
        <ele>220.28</ele>
        <time>2014-01-23T10:18:19Z</time>
      </trkpt>
      <trkpt lat="43.2266" lon="5.38671">
        <ele>223.16</ele>
        <time>2014-01-23T10:18:32Z</time>
      </trkpt>
      <trkpt lat="43.22663" lon="5.3868">
        <ele>226.53</ele>
        <time>2014-01-23T10:18:44Z</time>
      </trkpt>
      <trkpt lat="43.22667" lon="5.38688">
        <ele>228.45</ele>
        <time>2014-01-23T10:18:54Z</time>
      </trkpt>
      <trkpt lat="43.22671" lon="5.38699">
        <ele>230.37</ele>
        <time>2014-01-23T10:19:04Z</time>
      </trkpt>
      <trkpt lat="43.22671" lon="5.38709">
        <ele>231.33</ele>
        <time>2014-01-23T10:19:16Z</time>
      </trkpt>
      <trkpt lat="43.22665" lon="5.38722">
        <ele>229.89</ele>
        <time>2014-01-23T10:19:28Z</time>
      </trkpt>
      <trkpt lat="43.22665" lon="5.38721">
        <ele>229.89</ele>
        <time>2014-01-23T10:19:45Z</time>
      </trkpt>
      <trkpt lat="43.2266" lon="5.38724">
        <ele>227.49</ele>
        <time>2014-01-23T10:20:01Z</time>
      </trkpt>
      <trkpt lat="43.22654" lon="5.38733">
        <ele>224.12</ele>
        <time>2014-01-23T10:20:11Z</time>
      </trkpt>
      <trkpt lat="43.22652" lon="5.38736">
        <ele>222.68</ele>
        <time>2014-01-23T10:20:15Z</time>
      </trkpt>
      <trkpt lat="43.22645" lon="5.38741">
        <ele>219.32</ele>
        <time>2014-01-23T10:20:27Z</time>
      </trkpt>
      <trkpt lat="43.22645" lon="5.38742">
        <ele>218.36</ele>
        <time>2014-01-23T10:20:30Z</time>
      </trkpt>
      <trkpt lat="43.22638" lon="5.38749">
        <ele>216.43</ele>
        <time>2014-01-23T10:20:42Z</time>
      </trkpt>
      <trkpt lat="43.22635" lon="5.38752">
        <ele>213.07</ele>
        <time>2014-01-23T10:20:51Z</time>
      </trkpt>
      <trkpt lat="43.22636" lon="5.38757">
        <ele>210.19</ele>
        <time>2014-01-23T10:21:05Z</time>
      </trkpt>
      <trkpt lat="43.22633" lon="5.38764">
        <ele>208.26</ele>
        <time>2014-01-23T10:21:17Z</time>
      </trkpt>
      <trkpt lat="43.22628" lon="5.38768">
        <ele>205.38</ele>
        <time>2014-01-23T10:21:29Z</time>
      </trkpt>
      <trkpt lat="43.22624" lon="5.38775">
        <ele>203.46</ele>
        <time>2014-01-23T10:21:39Z</time>
      </trkpt>
      <trkpt lat="43.22616" lon="5.38783">
        <ele>200.57</ele>
        <time>2014-01-23T10:21:52Z</time>
      </trkpt>
      <trkpt lat="43.22606" lon="5.38795">
        <ele>198.17</ele>
        <time>2014-01-23T10:22:06Z</time>
      </trkpt>
      <trkpt lat="43.22604" lon="5.38797">
        <ele>197.21</ele>
        <time>2014-01-23T10:22:08Z</time>
      </trkpt>
      <trkpt lat="43.22596" lon="5.38807">
        <ele>193.84</ele>
        <time>2014-01-23T10:22:22Z</time>
      </trkpt>
      <trkpt lat="43.22594" lon="5.38816">
        <ele>191.92</ele>
        <time>2014-01-23T10:22:30Z</time>
      </trkpt>
      <trkpt lat="43.22589" lon="5.38825">
        <ele>189.52</ele>
        <time>2014-01-23T10:22:41Z</time>
      </trkpt>
      <trkpt lat="43.22581" lon="5.38832">
        <ele>189.52</ele>
        <time>2014-01-23T10:22:50Z</time>
      </trkpt>
      <trkpt lat="43.22572" lon="5.38845">
        <ele>190</ele>
        <time>2014-01-23T10:23:03Z</time>
      </trkpt>
      <trkpt lat="43.22568" lon="5.38855">
        <ele>189.52</ele>
        <time>2014-01-23T10:23:11Z</time>
      </trkpt>
      <trkpt lat="43.22566" lon="5.38858">
        <ele>189.52</ele>
        <time>2014-01-23T10:23:13Z</time>
      </trkpt>
      <trkpt lat="43.22562" lon="5.38862">
        <ele>190</ele>
        <time>2014-01-23T10:23:27Z</time>
      </trkpt>
      <trkpt lat="43.22562" lon="5.38863">
        <ele>190</ele>
        <time>2014-01-23T10:23:53Z</time>
      </trkpt>
      <trkpt lat="43.22561" lon="5.38863">
        <ele>190</ele>
        <time>2014-01-23T10:24:13Z</time>
      </trkpt>
      <trkpt lat="43.22561" lon="5.38866">
        <ele>190</ele>
        <time>2014-01-23T10:24:38Z</time>
      </trkpt>
      <trkpt lat="43.2256" lon="5.38866">
        <ele>190.48</ele>
        <time>2014-01-23T10:24:57Z</time>
      </trkpt>
      <trkpt lat="43.2256" lon="5.38865">
        <ele>190</ele>
        <time>2014-01-23T10:25:19Z</time>
      </trkpt>
      <trkpt lat="43.2256" lon="5.38863">
        <ele>190.48</ele>
        <time>2014-01-23T10:25:37Z</time>
      </trkpt>
      <trkpt lat="43.2256" lon="5.38863">
        <ele>190.48</ele>
        <time>2014-01-23T10:26:02Z</time>
      </trkpt>
      <trkpt lat="43.22556" lon="5.38864">
        <ele>190.48</ele>
        <time>2014-01-23T10:26:22Z</time>
      </trkpt>
      <trkpt lat="43.22555" lon="5.38864">
        <ele>190.48</ele>
        <time>2014-01-23T10:26:23Z</time>
      </trkpt>
      <trkpt lat="43.22549" lon="5.38869">
        <ele>190.48</ele>
        <time>2014-01-23T10:26:29Z</time>
      </trkpt>
      <trkpt lat="43.22547" lon="5.38873">
        <ele>190</ele>
        <time>2014-01-23T10:26:32Z</time>
      </trkpt>
      <trkpt lat="43.2254" lon="5.38887">
        <ele>192.4</ele>
        <time>2014-01-23T10:26:46Z</time>
      </trkpt>
      <trkpt lat="43.22538" lon="5.38895">
        <ele>192.88</ele>
        <time>2014-01-23T10:26:55Z</time>
      </trkpt>
      <trkpt lat="43.22537" lon="5.38897">
        <ele>192.88</ele>
        <time>2014-01-23T10:26:57Z</time>
      </trkpt>
      <trkpt lat="43.22531" lon="5.3891">
        <ele>192.4</ele>
        <time>2014-01-23T10:27:09Z</time>
      </trkpt>
      <trkpt lat="43.22526" lon="5.38921">
        <ele>190.96</ele>
        <time>2014-01-23T10:27:21Z</time>
      </trkpt>
      <trkpt lat="43.22524" lon="5.38924">
        <ele>190.96</ele>
        <time>2014-01-23T10:27:25Z</time>
      </trkpt>
      <trkpt lat="43.22513" lon="5.38943">
        <ele>189.04</ele>
        <time>2014-01-23T10:27:39Z</time>
      </trkpt>
      <trkpt lat="43.2251" lon="5.38954">
        <ele>188.56</ele>
        <time>2014-01-23T10:27:49Z</time>
      </trkpt>
      <trkpt lat="43.22508" lon="5.38956">
        <ele>188.08</ele>
        <time>2014-01-23T10:27:51Z</time>
      </trkpt>
      <trkpt lat="43.22495" lon="5.38965">
        <ele>185.19</ele>
        <time>2014-01-23T10:28:05Z</time>
      </trkpt>
      <trkpt lat="43.22488" lon="5.3897">
        <ele>182.79</ele>
        <time>2014-01-23T10:28:16Z</time>
      </trkpt>
      <trkpt lat="43.2249" lon="5.38976">
        <ele>179.9</ele>
        <time>2014-01-23T10:28:31Z</time>
      </trkpt>
      <trkpt lat="43.22487" lon="5.3898">
        <ele>177.98</ele>
        <time>2014-01-23T10:28:41Z</time>
      </trkpt>
      <trkpt lat="43.22484" lon="5.38983">
        <ele>177.5</ele>
        <time>2014-01-23T10:28:45Z</time>
      </trkpt>
      <trkpt lat="43.22479" lon="5.38987">
        <ele>175.1</ele>
        <time>2014-01-23T10:28:50Z</time>
      </trkpt>
      <trkpt lat="43.22473" lon="5.38993">
        <ele>172.21</ele>
        <time>2014-01-23T10:29:02Z</time>
      </trkpt>
      <trkpt lat="43.22469" lon="5.38992">
        <ele>169.81</ele>
        <time>2014-01-23T10:29:13Z</time>
      </trkpt>
      <trkpt lat="43.22463" lon="5.39003">
        <ele>167.41</ele>
        <time>2014-01-23T10:29:24Z</time>
      </trkpt>
      <trkpt lat="43.22457" lon="5.39009">
        <ele>166.45</ele>
        <time>2014-01-23T10:29:30Z</time>
      </trkpt>
      <trkpt lat="43.22453" lon="5.39011">
        <ele>165</ele>
        <time>2014-01-23T10:29:34Z</time>
      </trkpt>
      <trkpt lat="43.22447" lon="5.39018">
        <ele>163.08</ele>
        <time>2014-01-23T10:29:45Z</time>
      </trkpt>
      <trkpt lat="43.22446" lon="5.3902">
        <ele>163.08</ele>
        <time>2014-01-23T10:29:52Z</time>
      </trkpt>
      <trkpt lat="43.22438" lon="5.39023">
        <ele>161.16</ele>
        <time>2014-01-23T10:30:03Z</time>
      </trkpt>
      <trkpt lat="43.22432" lon="5.39025">
        <ele>159.24</ele>
        <time>2014-01-23T10:30:11Z</time>
      </trkpt>
      <trkpt lat="43.22415" lon="5.39034">
        <ele>156.35</ele>
        <time>2014-01-23T10:30:24Z</time>
      </trkpt>
      <trkpt lat="43.22411" lon="5.39032">
        <ele>155.87</ele>
        <time>2014-01-23T10:30:30Z</time>
      </trkpt>
      <trkpt lat="43.22404" lon="5.39026">
        <ele>155.87</ele>
        <time>2014-01-23T10:30:42Z</time>
      </trkpt>
      <trkpt lat="43.22403" lon="5.39023">
        <ele>156.35</ele>
        <time>2014-01-23T10:31:01Z</time>
      </trkpt>
      <trkpt lat="43.22403" lon="5.39023">
        <ele>156.35</ele>
        <time>2014-01-23T10:31:18Z</time>
      </trkpt>
      <trkpt lat="43.22404" lon="5.39022">
        <ele>155.87</ele>
        <time>2014-01-23T10:31:37Z</time>
      </trkpt>
      <trkpt lat="43.22404" lon="5.3902">
        <ele>156.35</ele>
        <time>2014-01-23T10:31:56Z</time>
      </trkpt>
      <trkpt lat="43.22404" lon="5.39018">
        <ele>156.83</ele>
        <time>2014-01-23T10:32:22Z</time>
      </trkpt>
      <trkpt lat="43.22404" lon="5.39018">
        <ele>156.35</ele>
        <time>2014-01-23T10:32:46Z</time>
      </trkpt>
      <trkpt lat="43.22404" lon="5.39017">
        <ele>156.83</ele>
        <time>2014-01-23T10:33:10Z</time>
      </trkpt>
      <trkpt lat="43.22404" lon="5.39017">
        <ele>156.83</ele>
        <time>2014-01-23T10:33:33Z</time>
      </trkpt>
      <trkpt lat="43.22405" lon="5.39017">
        <ele>156.83</ele>
        <time>2014-01-23T10:33:59Z</time>
      </trkpt>
      <trkpt lat="43.22405" lon="5.39017">
        <ele>156.83</ele>
        <time>2014-01-23T10:34:21Z</time>
      </trkpt>
      <trkpt lat="43.22405" lon="5.39018">
        <ele>156.35</ele>
        <time>2014-01-23T10:34:45Z</time>
      </trkpt>
      <trkpt lat="43.22404" lon="5.39018">
        <ele>156.83</ele>
        <time>2014-01-23T10:34:58Z</time>
      </trkpt>
      <trkpt lat="43.22405" lon="5.39016">
        <ele>156.83</ele>
        <time>2014-01-23T10:35:20Z</time>
      </trkpt>
      <trkpt lat="43.22404" lon="5.39013">
        <ele>157.31</ele>
        <time>2014-01-23T10:35:36Z</time>
      </trkpt>
      <trkpt lat="43.22405" lon="5.39009">
        <ele>158.75</ele>
        <time>2014-01-23T10:35:51Z</time>
      </trkpt>
      <trkpt lat="43.22405" lon="5.39007">
        <ele>158.75</ele>
        <time>2014-01-23T10:36:10Z</time>
      </trkpt>
      <trkpt lat="43.22405" lon="5.39005">
        <ele>159.24</ele>
        <time>2014-01-23T10:36:28Z</time>
      </trkpt>
      <trkpt lat="43.22409" lon="5.39001">
        <ele>160.68</ele>
        <time>2014-01-23T10:36:45Z</time>
      </trkpt>
      <trkpt lat="43.22414" lon="5.38996">
        <ele>162.6</ele>
        <time>2014-01-23T10:36:59Z</time>
      </trkpt>
      <trkpt lat="43.22416" lon="5.38991">
        <ele>165.48</ele>
        <time>2014-01-23T10:37:15Z</time>
      </trkpt>
      <trkpt lat="43.22419" lon="5.38982">
        <ele>168.37</ele>
        <time>2014-01-23T10:37:32Z</time>
      </trkpt>
      <trkpt lat="43.22424" lon="5.38981">
        <ele>170.77</ele>
        <time>2014-01-23T10:37:44Z</time>
      </trkpt>
      <trkpt lat="43.22426" lon="5.38979">
        <ele>172.69</ele>
        <time>2014-01-23T10:37:59Z</time>
      </trkpt>
      <trkpt lat="43.22422" lon="5.38969">
        <ele>175.1</ele>
        <time>2014-01-23T10:38:13Z</time>
      </trkpt>
      <trkpt lat="43.22422" lon="5.38962">
        <ele>177.5</ele>
        <time>2014-01-23T10:38:28Z</time>
      </trkpt>
      <trkpt lat="43.22423" lon="5.38955">
        <ele>179.42</ele>
        <time>2014-01-23T10:38:41Z</time>
      </trkpt>
      <trkpt lat="43.22422" lon="5.38952">
        <ele>182.31</ele>
        <time>2014-01-23T10:38:57Z</time>
      </trkpt>
      <trkpt lat="43.22419" lon="5.38945">
        <ele>184.23</ele>
        <time>2014-01-23T10:39:09Z</time>
      </trkpt>
      <trkpt lat="43.22416" lon="5.38943">
        <ele>186.63</ele>
        <time>2014-01-23T10:39:25Z</time>
      </trkpt>
      <trkpt lat="43.22407" lon="5.38938">
        <ele>188.08</ele>
        <time>2014-01-23T10:39:37Z</time>
      </trkpt>
      <trkpt lat="43.22398" lon="5.38934">
        <ele>189.04</ele>
        <time>2014-01-23T10:39:50Z</time>
      </trkpt>
      <trkpt lat="43.22394" lon="5.3893">
        <ele>188.08</ele>
        <time>2014-01-23T10:40:05Z</time>
      </trkpt>
      <trkpt lat="43.22392" lon="5.38928">
        <ele>187.59</ele>
        <time>2014-01-23T10:40:21Z</time>
      </trkpt>
      <trkpt lat="43.22392" lon="5.38927">
        <ele>187.59</ele>
        <time>2014-01-23T10:40:41Z</time>
      </trkpt>
      <trkpt lat="43.22393" lon="5.38925">
        <ele>187.59</ele>
        <time>2014-01-23T10:40:55Z</time>
      </trkpt>
      <trkpt lat="43.22392" lon="5.38923">
        <ele>188.08</ele>
        <time>2014-01-23T10:41:13Z</time>
      </trkpt>
      <trkpt lat="43.22388" lon="5.38919">
        <ele>186.15</ele>
        <time>2014-01-23T10:41:25Z</time>
      </trkpt>
      <trkpt lat="43.22374" lon="5.38919">
        <ele>185.67</ele>
        <time>2014-01-23T10:41:40Z</time>
      </trkpt>
      <trkpt lat="43.2237" lon="5.38919">
        <ele>185.67</ele>
        <time>2014-01-23T10:41:44Z</time>
      </trkpt>
      <trkpt lat="43.22362" lon="5.38917">
        <ele>184.71</ele>
        <time>2014-01-23T10:41:54Z</time>
      </trkpt>
      <trkpt lat="43.22351" lon="5.38914">
        <ele>184.71</ele>
        <time>2014-01-23T10:42:06Z</time>
      </trkpt>
      <trkpt lat="43.22347" lon="5.38917">
        <ele>184.23</ele>
        <time>2014-01-23T10:42:21Z</time>
      </trkpt>
      <trkpt lat="43.22344" lon="5.38914">
        <ele>185.19</ele>
        <time>2014-01-23T10:42:33Z</time>
      </trkpt>
      <trkpt lat="43.22338" lon="5.38923">
        <ele>185.19</ele>
        <time>2014-01-23T10:42:46Z</time>
      </trkpt>
      <trkpt lat="43.22338" lon="5.38921">
        <ele>185.19</ele>
        <time>2014-01-23T10:43:10Z</time>
      </trkpt>
      <trkpt lat="43.22335" lon="5.38924">
        <ele>184.71</ele>
        <time>2014-01-23T10:43:17Z</time>
      </trkpt>
      <trkpt lat="43.22326" lon="5.38929">
        <ele>185.19</ele>
        <time>2014-01-23T10:43:28Z</time>
      </trkpt>
      <trkpt lat="43.22322" lon="5.38938">
        <ele>183.75</ele>
        <time>2014-01-23T10:43:37Z</time>
      </trkpt>
      <trkpt lat="43.22319" lon="5.38942">
        <ele>183.75</ele>
        <time>2014-01-23T10:43:40Z</time>
      </trkpt>
      <trkpt lat="43.2231" lon="5.3895">
        <ele>183.27</ele>
        <time>2014-01-23T10:43:48Z</time>
      </trkpt>
      <trkpt lat="43.22296" lon="5.38962">
        <ele>182.31</ele>
        <time>2014-01-23T10:44:03Z</time>
      </trkpt>
      <trkpt lat="43.22286" lon="5.38963">
        <ele>183.27</ele>
        <time>2014-01-23T10:44:16Z</time>
      </trkpt>
      <trkpt lat="43.22284" lon="5.38961">
        <ele>183.75</ele>
        <time>2014-01-23T10:44:20Z</time>
      </trkpt>
      <trkpt lat="43.22273" lon="5.3896">
        <ele>183.27</ele>
        <time>2014-01-23T10:44:33Z</time>
      </trkpt>
      <trkpt lat="43.22266" lon="5.38955">
        <ele>184.71</ele>
        <time>2014-01-23T10:44:44Z</time>
      </trkpt>
      <trkpt lat="43.22264" lon="5.38954">
        <ele>184.71</ele>
        <time>2014-01-23T10:44:46Z</time>
      </trkpt>
      <trkpt lat="43.22256" lon="5.38951">
        <ele>186.63</ele>
        <time>2014-01-23T10:45:00Z</time>
      </trkpt>
      <trkpt lat="43.2225" lon="5.38948">
        <ele>188.08</ele>
        <time>2014-01-23T10:45:12Z</time>
      </trkpt>
      <trkpt lat="43.22243" lon="5.3895">
        <ele>189.52</ele>
        <time>2014-01-23T10:45:26Z</time>
      </trkpt>
      <trkpt lat="43.22239" lon="5.38956">
        <ele>191.44</ele>
        <time>2014-01-23T10:45:38Z</time>
      </trkpt>
      <trkpt lat="43.22235" lon="5.38956">
        <ele>193.36</ele>
        <time>2014-01-23T10:45:50Z</time>
      </trkpt>
      <trkpt lat="43.2223" lon="5.38954">
        <ele>195.28</ele>
        <time>2014-01-23T10:46:04Z</time>
      </trkpt>
      <trkpt lat="43.22225" lon="5.3896">
        <ele>197.21</ele>
        <time>2014-01-23T10:46:20Z</time>
      </trkpt>
      <trkpt lat="43.22221" lon="5.38961">
        <ele>199.61</ele>
        <time>2014-01-23T10:46:37Z</time>
      </trkpt>
      <trkpt lat="43.22215" lon="5.3896">
        <ele>202.01</ele>
        <time>2014-01-23T10:46:51Z</time>
      </trkpt>
      <trkpt lat="43.22209" lon="5.38959">
        <ele>203.46</ele>
        <time>2014-01-23T10:47:05Z</time>
      </trkpt>
      <trkpt lat="43.22202" lon="5.3896">
        <ele>205.86</ele>
        <time>2014-01-23T10:47:20Z</time>
      </trkpt>
      <trkpt lat="43.22194" lon="5.3896">
        <ele>208.26</ele>
        <time>2014-01-23T10:47:37Z</time>
      </trkpt>
      <trkpt lat="43.22188" lon="5.38961">
        <ele>210.67</ele>
        <time>2014-01-23T10:47:53Z</time>
      </trkpt>
      <trkpt lat="43.22185" lon="5.38961">
        <ele>213.07</ele>
        <time>2014-01-23T10:48:10Z</time>
      </trkpt>
      <trkpt lat="43.2218" lon="5.38962">
        <ele>215.47</ele>
        <time>2014-01-23T10:48:26Z</time>
      </trkpt>
      <trkpt lat="43.22173" lon="5.38963">
        <ele>217.4</ele>
        <time>2014-01-23T10:48:40Z</time>
      </trkpt>
      <trkpt lat="43.22169" lon="5.38968">
        <ele>218.36</ele>
        <time>2014-01-23T10:48:54Z</time>
      </trkpt>
      <trkpt lat="43.22163" lon="5.38973">
        <ele>220.76</ele>
        <time>2014-01-23T10:49:09Z</time>
      </trkpt>
      <trkpt lat="43.22163" lon="5.38977">
        <ele>223.16</ele>
        <time>2014-01-23T10:49:22Z</time>
      </trkpt>
      <trkpt lat="43.2216" lon="5.38982">
        <ele>226.05</ele>
        <time>2014-01-23T10:49:35Z</time>
      </trkpt>
      <trkpt lat="43.22156" lon="5.38986">
        <ele>228.45</ele>
        <time>2014-01-23T10:49:48Z</time>
      </trkpt>
      <trkpt lat="43.22151" lon="5.38991">
        <ele>230.37</ele>
        <time>2014-01-23T10:49:59Z</time>
      </trkpt>
      <trkpt lat="43.22147" lon="5.38993">
        <ele>233.74</ele>
        <time>2014-01-23T10:50:11Z</time>
      </trkpt>
      <trkpt lat="43.22145" lon="5.38997">
        <ele>235.66</ele>
        <time>2014-01-23T10:50:23Z</time>
      </trkpt>
      <trkpt lat="43.22141" lon="5.39002">
        <ele>238.54</ele>
        <time>2014-01-23T10:50:35Z</time>
      </trkpt>
      <trkpt lat="43.22138" lon="5.39004">
        <ele>239.99</ele>
        <time>2014-01-23T10:50:45Z</time>
      </trkpt>
      <trkpt lat="43.22135" lon="5.39007">
        <ele>242.87</ele>
        <time>2014-01-23T10:51:00Z</time>
      </trkpt>
      <trkpt lat="43.22133" lon="5.39014">
        <ele>246.23</ele>
        <time>2014-01-23T10:51:16Z</time>
      </trkpt>
      <trkpt lat="43.22136" lon="5.3902">
        <ele>247.68</ele>
        <time>2014-01-23T10:51:33Z</time>
      </trkpt>
      <trkpt lat="43.22133" lon="5.39027">
        <ele>249.12</ele>
        <time>2014-01-23T10:51:58Z</time>
      </trkpt>
      <trkpt lat="43.22133" lon="5.39032">
        <ele>252.48</ele>
        <time>2014-01-23T10:52:09Z</time>
      </trkpt>
      <trkpt lat="43.22126" lon="5.39043">
        <ele>254.89</ele>
        <time>2014-01-23T10:52:21Z</time>
      </trkpt>
      <trkpt lat="43.22124" lon="5.39046">
        <ele>257.29</ele>
        <time>2014-01-23T10:52:32Z</time>
      </trkpt>
      <trkpt lat="43.22122" lon="5.39054">
        <ele>260.17</ele>
        <time>2014-01-23T10:52:44Z</time>
      </trkpt>
      <trkpt lat="43.22122" lon="5.3906">
        <ele>263.54</ele>
        <time>2014-01-23T10:52:55Z</time>
      </trkpt>
      <trkpt lat="43.22121" lon="5.39065">
        <ele>265.46</ele>
        <time>2014-01-23T10:53:06Z</time>
      </trkpt>
      <trkpt lat="43.22124" lon="5.39072">
        <ele>268.35</ele>
        <time>2014-01-23T10:53:18Z</time>
      </trkpt>
      <trkpt lat="43.22121" lon="5.39079">
        <ele>271.23</ele>
        <time>2014-01-23T10:53:29Z</time>
      </trkpt>
      <trkpt lat="43.22117" lon="5.39082">
        <ele>273.15</ele>
        <time>2014-01-23T10:53:40Z</time>
      </trkpt>
      <trkpt lat="43.22108" lon="5.39083">
        <ele>276.04</ele>
        <time>2014-01-23T10:53:50Z</time>
      </trkpt>
      <trkpt lat="43.22103" lon="5.39084">
        <ele>277.48</ele>
        <time>2014-01-23T10:54:02Z</time>
      </trkpt>
      <trkpt lat="43.22098" lon="5.39086">
        <ele>280.36</ele>
        <time>2014-01-23T10:54:15Z</time>
      </trkpt>
      <trkpt lat="43.22094" lon="5.3909">
        <ele>283.73</ele>
        <time>2014-01-23T10:54:31Z</time>
      </trkpt>
      <trkpt lat="43.22091" lon="5.3909">
        <ele>284.69</ele>
        <time>2014-01-23T10:54:38Z</time>
      </trkpt>
      <trkpt lat="43.22087" lon="5.39094">
        <ele>287.57</ele>
        <time>2014-01-23T10:54:50Z</time>
      </trkpt>
      <trkpt lat="43.22087" lon="5.39094">
        <ele>288.05</ele>
        <time>2014-01-23T10:54:51Z</time>
      </trkpt>
      <trkpt lat="43.22085" lon="5.39099">
        <ele>289.49</ele>
        <time>2014-01-23T10:54:59Z</time>
      </trkpt>
      <trkpt lat="43.22081" lon="5.39102">
        <ele>290.46</ele>
        <time>2014-01-23T10:55:09Z</time>
      </trkpt>
      <trkpt lat="43.22081" lon="5.39107">
        <ele>293.34</ele>
        <time>2014-01-23T10:55:18Z</time>
      </trkpt>
      <trkpt lat="43.22083" lon="5.39119">
        <ele>296.7</ele>
        <time>2014-01-23T10:55:30Z</time>
      </trkpt>
      <trkpt lat="43.22081" lon="5.39127">
        <ele>299.59</ele>
        <time>2014-01-23T10:55:44Z</time>
      </trkpt>
      <trkpt lat="43.22081" lon="5.39137">
        <ele>301.51</ele>
        <time>2014-01-23T10:55:58Z</time>
      </trkpt>
      <trkpt lat="43.2208" lon="5.39146">
        <ele>303.91</ele>
        <time>2014-01-23T10:56:11Z</time>
      </trkpt>
      <trkpt lat="43.22078" lon="5.39151">
        <ele>304.39</ele>
        <time>2014-01-23T10:56:25Z</time>
      </trkpt>
      <trkpt lat="43.22074" lon="5.3916">
        <ele>305.36</ele>
        <time>2014-01-23T10:56:36Z</time>
      </trkpt>
      <trkpt lat="43.22068" lon="5.39168">
        <ele>307.28</ele>
        <time>2014-01-23T10:56:50Z</time>
      </trkpt>
      <trkpt lat="43.22065" lon="5.39169">
        <ele>307.28</ele>
        <time>2014-01-23T10:57:03Z</time>
      </trkpt>
      <trkpt lat="43.22065" lon="5.39169">
        <ele>307.28</ele>
        <time>2014-01-23T10:57:15Z</time>
      </trkpt>
      <trkpt lat="43.22065" lon="5.39169">
        <ele>307.28</ele>
        <time>2014-01-23T10:57:27Z</time>
      </trkpt>
      <trkpt lat="43.22065" lon="5.39169">
        <ele>308.24</ele>
        <time>2014-01-23T10:57:45Z</time>
      </trkpt>
      <trkpt lat="43.22062" lon="5.39172">
        <ele>307.76</ele>
        <time>2014-01-23T10:58:10Z</time>
      </trkpt>
      <trkpt lat="43.22064" lon="5.39171">
        <ele>307.28</ele>
        <time>2014-01-23T10:58:23Z</time>
      </trkpt>
      <trkpt lat="43.22067" lon="5.39171">
        <ele>307.76</ele>
        <time>2014-01-23T10:58:36Z</time>
      </trkpt>
      <trkpt lat="43.22067" lon="5.3917">
        <ele>307.28</ele>
        <time>2014-01-23T10:58:57Z</time>
      </trkpt>
      <trkpt lat="43.22065" lon="5.39171">
        <ele>308.24</ele>
        <time>2014-01-23T10:59:10Z</time>
      </trkpt>
      <trkpt lat="43.22064" lon="5.3917">
        <ele>307.28</ele>
        <time>2014-01-23T10:59:25Z</time>
      </trkpt>
      <trkpt lat="43.22056" lon="5.39172">
        <ele>308.72</ele>
        <time>2014-01-23T10:59:40Z</time>
      </trkpt>
      <trkpt lat="43.22051" lon="5.39174">
        <ele>310.64</ele>
        <time>2014-01-23T10:59:54Z</time>
      </trkpt>
      <trkpt lat="43.22049" lon="5.39175">
        <ele>311.12</ele>
        <time>2014-01-23T11:00:07Z</time>
      </trkpt>
      <trkpt lat="43.22048" lon="5.39175">
        <ele>311.12</ele>
        <time>2014-01-23T11:00:22Z</time>
      </trkpt>
      <trkpt lat="43.22047" lon="5.39175">
        <ele>311.12</ele>
        <time>2014-01-23T11:00:45Z</time>
      </trkpt>
      <trkpt lat="43.22047" lon="5.39175">
        <ele>310.16</ele>
        <time>2014-01-23T11:01:03Z</time>
      </trkpt>
      <trkpt lat="43.22047" lon="5.39175">
        <ele>310.16</ele>
        <time>2014-01-23T11:01:34Z</time>
      </trkpt>
      <trkpt lat="43.22047" lon="5.39175">
        <ele>310.64</ele>
        <time>2014-01-23T11:02:08Z</time>
      </trkpt>
      <trkpt lat="43.22047" lon="5.39174">
        <ele>310.16</ele>
        <time>2014-01-23T11:02:41Z</time>
      </trkpt>
      <trkpt lat="43.22047" lon="5.39173">
        <ele>310.16</ele>
        <time>2014-01-23T11:03:14Z</time>
      </trkpt>
      <trkpt lat="43.22047" lon="5.39173">
        <ele>310.16</ele>
        <time>2014-01-23T11:03:45Z</time>
      </trkpt>
      <trkpt lat="43.22048" lon="5.39173">
        <ele>310.64</ele>
        <time>2014-01-23T11:04:19Z</time>
      </trkpt>
      <trkpt lat="43.22048" lon="5.39173">
        <ele>310.16</ele>
        <time>2014-01-23T11:04:37Z</time>
      </trkpt>
      <trkpt lat="43.22048" lon="5.39173">
        <ele>310.16</ele>
        <time>2014-01-23T11:05:06Z</time>
      </trkpt>
      <trkpt lat="43.22048" lon="5.39174">
        <ele>310.64</ele>
        <time>2014-01-23T11:05:35Z</time>
      </trkpt>
      <trkpt lat="43.22048" lon="5.39174">
        <ele>310.64</ele>
        <time>2014-01-23T11:06:04Z</time>
      </trkpt>
      <trkpt lat="43.22048" lon="5.39174">
        <ele>310.64</ele>
        <time>2014-01-23T11:06:25Z</time>
      </trkpt>
      <trkpt lat="43.22048" lon="5.39175">
        <ele>311.12</ele>
        <time>2014-01-23T11:06:44Z</time>
      </trkpt>
      <trkpt lat="43.22048" lon="5.39175">
        <ele>311.12</ele>
        <time>2014-01-23T11:07:05Z</time>
      </trkpt>
      <trkpt lat="43.22049" lon="5.39175">
        <ele>311.12</ele>
        <time>2014-01-23T11:07:38Z</time>
      </trkpt>
      <trkpt lat="43.22049" lon="5.39175">
        <ele>311.12</ele>
        <time>2014-01-23T11:08:04Z</time>
      </trkpt>
      <trkpt lat="43.22049" lon="5.39176">
        <ele>311.12</ele>
        <time>2014-01-23T11:08:32Z</time>
      </trkpt>
      <trkpt lat="43.22049" lon="5.39175">
        <ele>311.12</ele>
        <time>2014-01-23T11:09:00Z</time>
      </trkpt>
      <trkpt lat="43.22048" lon="5.39176">
        <ele>311.12</ele>
        <time>2014-01-23T11:09:28Z</time>
      </trkpt>
      <trkpt lat="43.22048" lon="5.39176">
        <ele>311.12</ele>
        <time>2014-01-23T11:09:54Z</time>
      </trkpt>
      <trkpt lat="43.22049" lon="5.39176">
        <ele>311.6</ele>
        <time>2014-01-23T11:10:13Z</time>
      </trkpt>
      <trkpt lat="43.22046" lon="5.39175">
        <ele>312.09</ele>
        <time>2014-01-23T11:10:33Z</time>
      </trkpt>
      <trkpt lat="43.22042" lon="5.39181">
        <ele>314.97</ele>
        <time>2014-01-23T11:10:49Z</time>
      </trkpt>
      <trkpt lat="43.22037" lon="5.39177">
        <ele>317.37</ele>
        <time>2014-01-23T11:11:03Z</time>
      </trkpt>
      <trkpt lat="43.22033" lon="5.39182">
        <ele>319.78</ele>
        <time>2014-01-23T11:11:14Z</time>
      </trkpt>
      <trkpt lat="43.22024" lon="5.39184">
        <ele>319.3</ele>
        <time>2014-01-23T11:11:26Z</time>
      </trkpt>
      <trkpt lat="43.2202" lon="5.39187">
        <ele>318.81</ele>
        <time>2014-01-23T11:11:31Z</time>
      </trkpt>
      <trkpt lat="43.22013" lon="5.39186">
        <ele>319.3</ele>
        <time>2014-01-23T11:11:44Z</time>
      </trkpt>
      <trkpt lat="43.22006" lon="5.3918">
        <ele>321.22</ele>
        <time>2014-01-23T11:11:58Z</time>
      </trkpt>
      <trkpt lat="43.22" lon="5.39174">
        <ele>323.62</ele>
        <time>2014-01-23T11:12:12Z</time>
      </trkpt>
      <trkpt lat="43.21993" lon="5.39169">
        <ele>324.1</ele>
        <time>2014-01-23T11:12:23Z</time>
      </trkpt>
      <trkpt lat="43.21987" lon="5.39159">
        <ele>326.99</ele>
        <time>2014-01-23T11:12:38Z</time>
      </trkpt>
      <trkpt lat="43.21982" lon="5.39149">
        <ele>328.91</ele>
        <time>2014-01-23T11:12:52Z</time>
      </trkpt>
      <trkpt lat="43.21973" lon="5.39146">
        <ele>330.35</ele>
        <time>2014-01-23T11:13:06Z</time>
      </trkpt>
      <trkpt lat="43.21964" lon="5.39141">
        <ele>332.27</ele>
        <time>2014-01-23T11:13:20Z</time>
      </trkpt>
      <trkpt lat="43.21957" lon="5.39142">
        <ele>335.16</ele>
        <time>2014-01-23T11:13:34Z</time>
      </trkpt>
      <trkpt lat="43.21953" lon="5.39141">
        <ele>336.12</ele>
        <time>2014-01-23T11:13:45Z</time>
      </trkpt>
      <trkpt lat="43.21948" lon="5.39146">
        <ele>337.56</ele>
        <time>2014-01-23T11:14:00Z</time>
      </trkpt>
      <trkpt lat="43.21946" lon="5.39149">
        <ele>338.52</ele>
        <time>2014-01-23T11:14:04Z</time>
      </trkpt>
      <trkpt lat="43.21938" lon="5.39152">
        <ele>339</ele>
        <time>2014-01-23T11:14:16Z</time>
      </trkpt>
      <trkpt lat="43.21933" lon="5.39153">
        <ele>340.44</ele>
        <time>2014-01-23T11:14:29Z</time>
      </trkpt>
      <trkpt lat="43.21925" lon="5.39162">
        <ele>342.37</ele>
        <time>2014-01-23T11:14:43Z</time>
      </trkpt>
      <trkpt lat="43.21918" lon="5.39168">
        <ele>344.77</ele>
        <time>2014-01-23T11:14:55Z</time>
      </trkpt>
      <trkpt lat="43.21909" lon="5.39172">
        <ele>347.17</ele>
        <time>2014-01-23T11:15:09Z</time>
      </trkpt>
      <trkpt lat="43.21907" lon="5.39174">
        <ele>347.65</ele>
        <time>2014-01-23T11:15:11Z</time>
      </trkpt>
      <trkpt lat="43.21906" lon="5.39178">
        <ele>348.13</ele>
        <time>2014-01-23T11:15:14Z</time>
      </trkpt>
      <trkpt lat="43.21896" lon="5.39182">
        <ele>350.06</ele>
        <time>2014-01-23T11:15:28Z</time>
      </trkpt>
      <trkpt lat="43.21894" lon="5.39183">
        <ele>350.54</ele>
        <time>2014-01-23T11:15:30Z</time>
      </trkpt>
      <trkpt lat="43.21886" lon="5.39187">
        <ele>353.42</ele>
        <time>2014-01-23T11:15:43Z</time>
      </trkpt>
      <trkpt lat="43.21882" lon="5.3918">
        <ele>355.83</ele>
        <time>2014-01-23T11:15:56Z</time>
      </trkpt>
      <trkpt lat="43.2188" lon="5.39175">
        <ele>356.79</ele>
        <time>2014-01-23T11:16:02Z</time>
      </trkpt>
      <trkpt lat="43.21876" lon="5.39169">
        <ele>358.71</ele>
        <time>2014-01-23T11:16:15Z</time>
      </trkpt>
      <trkpt lat="43.21871" lon="5.3916">
        <ele>360.63</ele>
        <time>2014-01-23T11:16:28Z</time>
      </trkpt>
      <trkpt lat="43.21867" lon="5.39152">
        <ele>362.07</ele>
        <time>2014-01-23T11:16:38Z</time>
      </trkpt>
      <trkpt lat="43.21863" lon="5.39139">
        <ele>365.44</ele>
        <time>2014-01-23T11:16:52Z</time>
      </trkpt>
      <trkpt lat="43.21857" lon="5.39129">
        <ele>366.4</ele>
        <time>2014-01-23T11:17:05Z</time>
      </trkpt>
      <trkpt lat="43.21852" lon="5.3912">
        <ele>368.8</ele>
        <time>2014-01-23T11:17:17Z</time>
      </trkpt>
      <trkpt lat="43.21846" lon="5.39112">
        <ele>369.76</ele>
        <time>2014-01-23T11:17:29Z</time>
      </trkpt>
      <trkpt lat="43.21838" lon="5.39103">
        <ele>371.21</ele>
        <time>2014-01-23T11:17:41Z</time>
      </trkpt>
      <trkpt lat="43.21836" lon="5.391">
        <ele>371.69</ele>
        <time>2014-01-23T11:17:45Z</time>
      </trkpt>
      <trkpt lat="43.21835" lon="5.39098">
        <ele>372.17</ele>
        <time>2014-01-23T11:17:47Z</time>
      </trkpt>
      <trkpt lat="43.21826" lon="5.39094">
        <ele>372.65</ele>
        <time>2014-01-23T11:17:59Z</time>
      </trkpt>
      <trkpt lat="43.21818" lon="5.39094">
        <ele>372.65</ele>
        <time>2014-01-23T11:18:15Z</time>
      </trkpt>
      <trkpt lat="43.21816" lon="5.3909">
        <ele>373.13</ele>
        <time>2014-01-23T11:18:30Z</time>
      </trkpt>
      <trkpt lat="43.21814" lon="5.39088">
        <ele>373.61</ele>
        <time>2014-01-23T11:18:44Z</time>
      </trkpt>
      <trkpt lat="43.21812" lon="5.3909">
        <ele>373.13</ele>
        <time>2014-01-23T11:18:58Z</time>
      </trkpt>
      <trkpt lat="43.21812" lon="5.39089">
        <ele>373.13</ele>
        <time>2014-01-23T11:19:18Z</time>
      </trkpt>
      <trkpt lat="43.21808" lon="5.3909">
        <ele>371.69</ele>
        <time>2014-01-23T11:19:33Z</time>
      </trkpt>
      <trkpt lat="43.21799" lon="5.39087">
        <ele>372.17</ele>
        <time>2014-01-23T11:19:46Z</time>
      </trkpt>
      <trkpt lat="43.21797" lon="5.39088">
        <ele>372.17</ele>
        <time>2014-01-23T11:19:59Z</time>
      </trkpt>
      <trkpt lat="43.21797" lon="5.3909">
        <ele>370.73</ele>
        <time>2014-01-23T11:20:15Z</time>
      </trkpt>
      <trkpt lat="43.21796" lon="5.39095">
        <ele>370.73</ele>
        <time>2014-01-23T11:20:39Z</time>
      </trkpt>
      <trkpt lat="43.21795" lon="5.39093">
        <ele>370.24</ele>
        <time>2014-01-23T11:20:56Z</time>
      </trkpt>
      <trkpt lat="43.21788" lon="5.39081">
        <ele>370.24</ele>
        <time>2014-01-23T11:21:12Z</time>
      </trkpt>
      <trkpt lat="43.21788" lon="5.39081">
        <ele>370.73</ele>
        <time>2014-01-23T11:21:27Z</time>
      </trkpt>
      <trkpt lat="43.21786" lon="5.39083">
        <ele>369.76</ele>
        <time>2014-01-23T11:21:47Z</time>
      </trkpt>
      <trkpt lat="43.21787" lon="5.39083">
        <ele>370.24</ele>
        <time>2014-01-23T11:22:09Z</time>
      </trkpt>
      <trkpt lat="43.21784" lon="5.39079">
        <ele>369.28</ele>
        <time>2014-01-23T11:22:23Z</time>
      </trkpt>
      <trkpt lat="43.21777" lon="5.39079">
        <ele>367.84</ele>
        <time>2014-01-23T11:22:36Z</time>
      </trkpt>
      <trkpt lat="43.21777" lon="5.39083">
        <ele>367.36</ele>
        <time>2014-01-23T11:22:49Z</time>
      </trkpt>
      <trkpt lat="43.21779" lon="5.39083">
        <ele>367.36</ele>
        <time>2014-01-23T11:23:19Z</time>
      </trkpt>
      <trkpt lat="43.21778" lon="5.39084">
        <ele>367.36</ele>
        <time>2014-01-23T11:23:46Z</time>
      </trkpt>
      <trkpt lat="43.21779" lon="5.39084">
        <ele>367.84</ele>
        <time>2014-01-23T11:24:15Z</time>
      </trkpt>
      <trkpt lat="43.21778" lon="5.39084">
        <ele>367.84</ele>
        <time>2014-01-23T11:24:42Z</time>
      </trkpt>
      <trkpt lat="43.21777" lon="5.39074">
        <ele>368.32</ele>
        <time>2014-01-23T11:24:57Z</time>
      </trkpt>
      <trkpt lat="43.21774" lon="5.39062">
        <ele>368.8</ele>
        <time>2014-01-23T11:25:11Z</time>
      </trkpt>
      <trkpt lat="43.21769" lon="5.39054">
        <ele>369.76</ele>
        <time>2014-01-23T11:25:24Z</time>
      </trkpt>
      <trkpt lat="43.21761" lon="5.39046">
        <ele>369.28</ele>
        <time>2014-01-23T11:25:36Z</time>
      </trkpt>
      <trkpt lat="43.21753" lon="5.39033">
        <ele>368.32</ele>
        <time>2014-01-23T11:25:51Z</time>
      </trkpt>
      <trkpt lat="43.21751" lon="5.39032">
        <ele>367.84</ele>
        <time>2014-01-23T11:25:54Z</time>
      </trkpt>
      <trkpt lat="43.2174" lon="5.39025">
        <ele>366.4</ele>
        <time>2014-01-23T11:26:10Z</time>
      </trkpt>
      <trkpt lat="43.21735" lon="5.39023">
        <ele>365.92</ele>
        <time>2014-01-23T11:26:23Z</time>
      </trkpt>
      <trkpt lat="43.21726" lon="5.39025">
        <ele>364.48</ele>
        <time>2014-01-23T11:26:37Z</time>
      </trkpt>
      <trkpt lat="43.2172" lon="5.39029">
        <ele>363.52</ele>
        <time>2014-01-23T11:26:46Z</time>
      </trkpt>
      <trkpt lat="43.21717" lon="5.3903">
        <ele>363.04</ele>
        <time>2014-01-23T11:26:49Z</time>
      </trkpt>
      <trkpt lat="43.21704" lon="5.39036">
        <ele>361.59</ele>
        <time>2014-01-23T11:27:04Z</time>
      </trkpt>
      <trkpt lat="43.21696" lon="5.39038">
        <ele>360.15</ele>
        <time>2014-01-23T11:27:14Z</time>
      </trkpt>
      <trkpt lat="43.21684" lon="5.39041">
        <ele>358.71</ele>
        <time>2014-01-23T11:27:27Z</time>
      </trkpt>
      <trkpt lat="43.2167" lon="5.3904">
        <ele>357.27</ele>
        <time>2014-01-23T11:27:42Z</time>
      </trkpt>
      <trkpt lat="43.21664" lon="5.39039">
        <ele>356.31</ele>
        <time>2014-01-23T11:27:49Z</time>
      </trkpt>
      <trkpt lat="43.21659" lon="5.39039">
        <ele>356.79</ele>
        <time>2014-01-23T11:27:54Z</time>
      </trkpt>
      <trkpt lat="43.21648" lon="5.39032">
        <ele>355.83</ele>
        <time>2014-01-23T11:28:08Z</time>
      </trkpt>
      <trkpt lat="43.21638" lon="5.39029">
        <ele>354.38</ele>
        <time>2014-01-23T11:28:23Z</time>
      </trkpt>
      <trkpt lat="43.21629" lon="5.39027">
        <ele>353.42</ele>
        <time>2014-01-23T11:28:36Z</time>
      </trkpt>
      <trkpt lat="43.21622" lon="5.39023">
        <ele>351.5</ele>
        <time>2014-01-23T11:28:50Z</time>
      </trkpt>
      <trkpt lat="43.21618" lon="5.39021">
        <ele>350.06</ele>
        <time>2014-01-23T11:29:03Z</time>
      </trkpt>
      <trkpt lat="43.21617" lon="5.39019">
        <ele>348.62</ele>
        <time>2014-01-23T11:29:19Z</time>
      </trkpt>
      <trkpt lat="43.21614" lon="5.39017">
        <ele>348.13</ele>
        <time>2014-01-23T11:29:34Z</time>
      </trkpt>
      <trkpt lat="43.21613" lon="5.39016">
        <ele>346.21</ele>
        <time>2014-01-23T11:29:42Z</time>
      </trkpt>
      <trkpt lat="43.21603" lon="5.39011">
        <ele>345.73</ele>
        <time>2014-01-23T11:29:53Z</time>
      </trkpt>
      <trkpt lat="43.21598" lon="5.3901">
        <ele>346.69</ele>
        <time>2014-01-23T11:30:05Z</time>
      </trkpt>
      <trkpt lat="43.21591" lon="5.39006">
        <ele>343.81</ele>
        <time>2014-01-23T11:30:20Z</time>
      </trkpt>
      <trkpt lat="43.21585" lon="5.39">
        <ele>341.41</ele>
        <time>2014-01-23T11:30:31Z</time>
      </trkpt>
      <trkpt lat="43.21575" lon="5.38985">
        <ele>341.41</ele>
        <time>2014-01-23T11:30:45Z</time>
      </trkpt>
      <trkpt lat="43.21569" lon="5.38976">
        <ele>340.92</ele>
        <time>2014-01-23T11:30:57Z</time>
      </trkpt>
      <trkpt lat="43.21569" lon="5.38975">
        <ele>340.44</ele>
        <time>2014-01-23T11:30:58Z</time>
      </trkpt>
      <trkpt lat="43.21566" lon="5.38965">
        <ele>340.44</ele>
        <time>2014-01-23T11:31:07Z</time>
      </trkpt>
      <trkpt lat="43.21563" lon="5.38953">
        <ele>341.89</ele>
        <time>2014-01-23T11:31:17Z</time>
      </trkpt>
      <trkpt lat="43.21563" lon="5.38948">
        <ele>339.96</ele>
        <time>2014-01-23T11:31:21Z</time>
      </trkpt>
      <trkpt lat="43.21561" lon="5.38933">
        <ele>340.92</ele>
        <time>2014-01-23T11:31:34Z</time>
      </trkpt>
      <trkpt lat="43.21561" lon="5.38926">
        <ele>340.44</ele>
        <time>2014-01-23T11:31:47Z</time>
      </trkpt>
      <trkpt lat="43.21559" lon="5.38921">
        <ele>338.52</ele>
        <time>2014-01-23T11:32:01Z</time>
      </trkpt>
      <trkpt lat="43.21558" lon="5.38916">
        <ele>338.04</ele>
        <time>2014-01-23T11:32:16Z</time>
      </trkpt>
      <trkpt lat="43.21558" lon="5.38914">
        <ele>338.52</ele>
        <time>2014-01-23T11:32:35Z</time>
      </trkpt>
      <trkpt lat="43.21557" lon="5.38914">
        <ele>337.56</ele>
        <time>2014-01-23T11:32:49Z</time>
      </trkpt>
      <trkpt lat="43.21557" lon="5.38913">
        <ele>337.56</ele>
        <time>2014-01-23T11:33:09Z</time>
      </trkpt>
      <trkpt lat="43.21557" lon="5.38913">
        <ele>338.52</ele>
        <time>2014-01-23T11:33:33Z</time>
      </trkpt>
      <trkpt lat="43.21557" lon="5.38912">
        <ele>338.04</ele>
        <time>2014-01-23T11:33:57Z</time>
      </trkpt>
      <trkpt lat="43.21557" lon="5.38912">
        <ele>338.04</ele>
        <time>2014-01-23T11:34:20Z</time>
      </trkpt>
      <trkpt lat="43.21556" lon="5.38913">
        <ele>338.04</ele>
        <time>2014-01-23T11:34:43Z</time>
      </trkpt>
      <trkpt lat="43.21556" lon="5.38912">
        <ele>337.56</ele>
        <time>2014-01-23T11:35:08Z</time>
      </trkpt>
      <trkpt lat="43.21556" lon="5.38912">
        <ele>338.04</ele>
        <time>2014-01-23T11:35:35Z</time>
      </trkpt>
      <trkpt lat="43.21556" lon="5.38912">
        <ele>338.52</ele>
        <time>2014-01-23T11:35:59Z</time>
      </trkpt>
      <trkpt lat="43.21557" lon="5.38912">
        <ele>338.52</ele>
        <time>2014-01-23T11:36:24Z</time>
      </trkpt>
      <trkpt lat="43.21556" lon="5.38912">
        <ele>338.04</ele>
        <time>2014-01-23T11:36:46Z</time>
      </trkpt>
      <trkpt lat="43.21556" lon="5.38912">
        <ele>337.56</ele>
        <time>2014-01-23T11:37:08Z</time>
      </trkpt>
      <trkpt lat="43.21555" lon="5.38913">
        <ele>338.52</ele>
        <time>2014-01-23T11:37:32Z</time>
      </trkpt>
      <trkpt lat="43.21555" lon="5.38913">
        <ele>339</ele>
        <time>2014-01-23T11:37:59Z</time>
      </trkpt>
      <trkpt lat="43.21555" lon="5.38913">
        <ele>338.52</ele>
        <time>2014-01-23T11:38:24Z</time>
      </trkpt>
      <trkpt lat="43.21555" lon="5.38913">
        <ele>338.52</ele>
        <time>2014-01-23T11:38:47Z</time>
      </trkpt>
      <trkpt lat="43.21555" lon="5.38913">
        <ele>338.52</ele>
        <time>2014-01-23T11:39:12Z</time>
      </trkpt>
      <trkpt lat="43.21555" lon="5.38913">
        <ele>339</ele>
        <time>2014-01-23T11:39:40Z</time>
      </trkpt>
      <trkpt lat="43.21555" lon="5.38913">
        <ele>338.52</ele>
        <time>2014-01-23T11:40:10Z</time>
      </trkpt>
      <trkpt lat="43.21555" lon="5.38913">
        <ele>339.48</ele>
        <time>2014-01-23T11:40:35Z</time>
      </trkpt>
      <trkpt lat="43.21555" lon="5.38913">
        <ele>339</ele>
        <time>2014-01-23T11:40:58Z</time>
      </trkpt>
      <trkpt lat="43.21555" lon="5.38913">
        <ele>338.52</ele>
        <time>2014-01-23T11:41:23Z</time>
      </trkpt>
      <trkpt lat="43.21555" lon="5.38912">
        <ele>338.52</ele>
        <time>2014-01-23T11:41:45Z</time>
      </trkpt>
      <trkpt lat="43.21556" lon="5.38912">
        <ele>339.48</ele>
        <time>2014-01-23T11:42:03Z</time>
      </trkpt>
      <trkpt lat="43.21555" lon="5.38912">
        <ele>339</ele>
        <time>2014-01-23T11:42:29Z</time>
      </trkpt>
      <trkpt lat="43.21556" lon="5.38912">
        <ele>339</ele>
        <time>2014-01-23T11:42:56Z</time>
      </trkpt>
      <trkpt lat="43.21556" lon="5.38912">
        <ele>339.48</ele>
        <time>2014-01-23T11:43:28Z</time>
      </trkpt>
      <trkpt lat="43.21556" lon="5.38912">
        <ele>339.96</ele>
        <time>2014-01-23T11:43:50Z</time>
      </trkpt>
      <trkpt lat="43.21556" lon="5.38912">
        <ele>339.96</ele>
        <time>2014-01-23T11:44:23Z</time>
      </trkpt>
      <trkpt lat="43.21556" lon="5.38912">
        <ele>339.48</ele>
        <time>2014-01-23T11:44:44Z</time>
      </trkpt>
      <trkpt lat="43.21556" lon="5.38912">
        <ele>339.48</ele>
        <time>2014-01-23T11:45:08Z</time>
      </trkpt>
      <trkpt lat="43.21556" lon="5.38912">
        <ele>339.96</ele>
        <time>2014-01-23T11:45:31Z</time>
      </trkpt>
      <trkpt lat="43.21556" lon="5.38913">
        <ele>339</ele>
        <time>2014-01-23T11:45:59Z</time>
      </trkpt>
      <trkpt lat="43.21555" lon="5.38913">
        <ele>339.48</ele>
        <time>2014-01-23T11:46:26Z</time>
      </trkpt>
      <trkpt lat="43.21555" lon="5.38913">
        <ele>340.44</ele>
        <time>2014-01-23T11:46:56Z</time>
      </trkpt>
      <trkpt lat="43.21556" lon="5.38913">
        <ele>339.48</ele>
        <time>2014-01-23T11:47:21Z</time>
      </trkpt>
      <trkpt lat="43.21556" lon="5.38913">
        <ele>339.48</ele>
        <time>2014-01-23T11:47:44Z</time>
      </trkpt>
      <trkpt lat="43.21556" lon="5.38912">
        <ele>339.96</ele>
        <time>2014-01-23T11:48:06Z</time>
      </trkpt>
      <trkpt lat="43.21556" lon="5.38913">
        <ele>339.96</ele>
        <time>2014-01-23T11:48:29Z</time>
      </trkpt>
      <trkpt lat="43.21555" lon="5.38913">
        <ele>339.96</ele>
        <time>2014-01-23T11:48:53Z</time>
      </trkpt>
      <trkpt lat="43.21555" lon="5.38912">
        <ele>339.96</ele>
        <time>2014-01-23T11:49:18Z</time>
      </trkpt>
      <trkpt lat="43.21555" lon="5.38912">
        <ele>339.48</ele>
        <time>2014-01-23T11:49:43Z</time>
      </trkpt>
      <trkpt lat="43.21555" lon="5.38912">
        <ele>340.44</ele>
        <time>2014-01-23T11:50:09Z</time>
      </trkpt>
      <trkpt lat="43.21555" lon="5.38912">
        <ele>339.96</ele>
        <time>2014-01-23T11:50:37Z</time>
      </trkpt>
      <trkpt lat="43.21555" lon="5.38912">
        <ele>340.92</ele>
        <time>2014-01-23T11:51:04Z</time>
      </trkpt>
      <trkpt lat="43.21555" lon="5.38913">
        <ele>339.96</ele>
        <time>2014-01-23T11:51:27Z</time>
      </trkpt>
      <trkpt lat="43.21555" lon="5.38912">
        <ele>340.44</ele>
        <time>2014-01-23T11:51:57Z</time>
      </trkpt>
      <trkpt lat="43.21556" lon="5.38912">
        <ele>340.44</ele>
        <time>2014-01-23T11:52:22Z</time>
      </trkpt>
      <trkpt lat="43.21555" lon="5.38912">
        <ele>340.92</ele>
        <time>2014-01-23T11:52:45Z</time>
      </trkpt>
      <trkpt lat="43.21555" lon="5.38912">
        <ele>341.89</ele>
        <time>2014-01-23T11:53:16Z</time>
      </trkpt>
      <trkpt lat="43.21556" lon="5.38912">
        <ele>340.44</ele>
        <time>2014-01-23T11:53:46Z</time>
      </trkpt>
      <trkpt lat="43.21556" lon="5.38912">
        <ele>340.92</ele>
        <time>2014-01-23T11:54:12Z</time>
      </trkpt>
      <trkpt lat="43.21556" lon="5.38912">
        <ele>341.41</ele>
        <time>2014-01-23T11:54:42Z</time>
      </trkpt>
      <trkpt lat="43.21556" lon="5.38913">
        <ele>340.44</ele>
        <time>2014-01-23T11:55:07Z</time>
      </trkpt>
      <trkpt lat="43.21556" lon="5.38913">
        <ele>340.44</ele>
        <time>2014-01-23T11:55:33Z</time>
      </trkpt>
      <trkpt lat="43.21556" lon="5.38912">
        <ele>340.44</ele>
        <time>2014-01-23T11:56:07Z</time>
      </trkpt>
      <trkpt lat="43.21556" lon="5.38912">
        <ele>341.41</ele>
        <time>2014-01-23T11:56:36Z</time>
      </trkpt>
      <trkpt lat="43.21556" lon="5.38912">
        <ele>343.33</ele>
        <time>2014-01-23T11:56:56Z</time>
      </trkpt>
      <trkpt lat="43.21556" lon="5.38912">
        <ele>341.41</ele>
        <time>2014-01-23T11:57:18Z</time>
      </trkpt>
      <trkpt lat="43.21556" lon="5.38912">
        <ele>340.44</ele>
        <time>2014-01-23T11:57:49Z</time>
      </trkpt>
      <trkpt lat="43.21556" lon="5.38912">
        <ele>341.89</ele>
        <time>2014-01-23T11:58:15Z</time>
      </trkpt>
      <trkpt lat="43.21556" lon="5.38912">
        <ele>341.89</ele>
        <time>2014-01-23T11:58:16Z</time>
      </trkpt>
      <trkpt lat="43.21556" lon="5.38912">
        <ele>340.92</ele>
        <time>2014-01-23T11:58:41Z</time>
      </trkpt>
      <trkpt lat="43.21556" lon="5.38913">
        <ele>340.44</ele>
        <time>2014-01-23T11:59:05Z</time>
      </trkpt>
      <trkpt lat="43.21556" lon="5.38913">
        <ele>340.44</ele>
        <time>2014-01-23T11:59:34Z</time>
      </trkpt>
      <trkpt lat="43.21555" lon="5.38913">
        <ele>341.89</ele>
        <time>2014-01-23T11:59:57Z</time>
      </trkpt>
      <trkpt lat="43.21555" lon="5.38913">
        <ele>340.92</ele>
        <time>2014-01-23T12:00:26Z</time>
      </trkpt>
      <trkpt lat="43.21555" lon="5.38912">
        <ele>340.44</ele>
        <time>2014-01-23T12:00:49Z</time>
      </trkpt>
      <trkpt lat="43.21555" lon="5.38912">
        <ele>341.41</ele>
        <time>2014-01-23T12:01:16Z</time>
      </trkpt>
      <trkpt lat="43.21555" lon="5.38912">
        <ele>341.41</ele>
        <time>2014-01-23T12:01:46Z</time>
      </trkpt>
      <trkpt lat="43.21556" lon="5.38912">
        <ele>340.44</ele>
        <time>2014-01-23T12:02:06Z</time>
      </trkpt>
      <trkpt lat="43.21555" lon="5.38912">
        <ele>342.85</ele>
        <time>2014-01-23T12:02:22Z</time>
      </trkpt>
      <trkpt lat="43.21555" lon="5.38912">
        <ele>340.44</ele>
        <time>2014-01-23T12:02:50Z</time>
      </trkpt>
      <trkpt lat="43.21556" lon="5.38912">
        <ele>341.89</ele>
        <time>2014-01-23T12:03:19Z</time>
      </trkpt>
      <trkpt lat="43.21556" lon="5.38912">
        <ele>340.44</ele>
        <time>2014-01-23T12:03:51Z</time>
      </trkpt>
      <trkpt lat="43.21556" lon="5.38912">
        <ele>340.92</ele>
        <time>2014-01-23T12:04:17Z</time>
      </trkpt>
      <trkpt lat="43.21556" lon="5.38912">
        <ele>340.92</ele>
        <time>2014-01-23T12:04:47Z</time>
      </trkpt>
      <trkpt lat="43.21556" lon="5.38912">
        <ele>340.92</ele>
        <time>2014-01-23T12:05:13Z</time>
      </trkpt>
      <trkpt lat="43.21556" lon="5.38913">
        <ele>340.44</ele>
        <time>2014-01-23T12:05:35Z</time>
      </trkpt>
      <trkpt lat="43.21556" lon="5.38913">
        <ele>340.92</ele>
        <time>2014-01-23T12:05:59Z</time>
      </trkpt>
      <trkpt lat="43.21555" lon="5.38913">
        <ele>341.41</ele>
        <time>2014-01-23T12:06:19Z</time>
      </trkpt>
      <trkpt lat="43.21557" lon="5.38913">
        <ele>339.96</ele>
        <time>2014-01-23T12:06:38Z</time>
      </trkpt>
      <trkpt lat="43.21557" lon="5.38912">
        <ele>340.92</ele>
        <time>2014-01-23T12:07:03Z</time>
      </trkpt>
      <trkpt lat="43.21557" lon="5.38912">
        <ele>341.41</ele>
        <time>2014-01-23T12:07:23Z</time>
      </trkpt>
      <trkpt lat="43.21558" lon="5.38912">
        <ele>342.37</ele>
        <time>2014-01-23T12:07:37Z</time>
      </trkpt>
      <trkpt lat="43.21558" lon="5.38909">
        <ele>341.41</ele>
        <time>2014-01-23T12:07:57Z</time>
      </trkpt>
      <trkpt lat="43.21557" lon="5.38912">
        <ele>340.44</ele>
        <time>2014-01-23T12:08:09Z</time>
      </trkpt>
      <trkpt lat="43.21556" lon="5.38912">
        <ele>341.41</ele>
        <time>2014-01-23T12:08:29Z</time>
      </trkpt>
      <trkpt lat="43.21556" lon="5.38912">
        <ele>340.92</ele>
        <time>2014-01-23T12:08:54Z</time>
      </trkpt>
      <trkpt lat="43.21556" lon="5.38912">
        <ele>341.41</ele>
        <time>2014-01-23T12:09:14Z</time>
      </trkpt>
      <trkpt lat="43.21556" lon="5.38912">
        <ele>340.44</ele>
        <time>2014-01-23T12:09:29Z</time>
      </trkpt>
      <trkpt lat="43.21556" lon="5.38912">
        <ele>342.37</ele>
        <time>2014-01-23T12:09:53Z</time>
      </trkpt>
      <trkpt lat="43.21556" lon="5.38912">
        <ele>342.37</ele>
        <time>2014-01-23T12:10:16Z</time>
      </trkpt>
      <trkpt lat="43.21556" lon="5.38912">
        <ele>340.44</ele>
        <time>2014-01-23T12:10:41Z</time>
      </trkpt>
      <trkpt lat="43.21557" lon="5.38911">
        <ele>341.41</ele>
        <time>2014-01-23T12:11:01Z</time>
      </trkpt>
      <trkpt lat="43.21557" lon="5.38911">
        <ele>342.37</ele>
        <time>2014-01-23T12:11:25Z</time>
      </trkpt>
      <trkpt lat="43.21557" lon="5.38912">
        <ele>340.92</ele>
        <time>2014-01-23T12:11:44Z</time>
      </trkpt>
      <trkpt lat="43.21557" lon="5.38912">
        <ele>341.89</ele>
        <time>2014-01-23T12:12:08Z</time>
      </trkpt>
      <trkpt lat="43.21557" lon="5.38911">
        <ele>341.41</ele>
        <time>2014-01-23T12:12:30Z</time>
      </trkpt>
      <trkpt lat="43.21557" lon="5.38911">
        <ele>342.37</ele>
        <time>2014-01-23T12:13:00Z</time>
      </trkpt>
      <trkpt lat="43.21557" lon="5.38911">
        <ele>342.37</ele>
        <time>2014-01-23T12:13:24Z</time>
      </trkpt>
      <trkpt lat="43.21558" lon="5.38911">
        <ele>342.85</ele>
        <time>2014-01-23T12:13:54Z</time>
      </trkpt>
      <trkpt lat="43.21558" lon="5.38911">
        <ele>340.44</ele>
        <time>2014-01-23T12:14:25Z</time>
      </trkpt>
      <trkpt lat="43.21558" lon="5.38911">
        <ele>342.85</ele>
        <time>2014-01-23T12:14:50Z</time>
      </trkpt>
      <trkpt lat="43.21558" lon="5.38912">
        <ele>340.44</ele>
        <time>2014-01-23T12:15:21Z</time>
      </trkpt>
      <trkpt lat="43.21558" lon="5.38912">
        <ele>343.81</ele>
        <time>2014-01-23T12:15:50Z</time>
      </trkpt>
      <trkpt lat="43.21558" lon="5.38912">
        <ele>340.92</ele>
        <time>2014-01-23T12:16:22Z</time>
      </trkpt>
      <trkpt lat="43.21558" lon="5.38912">
        <ele>340.44</ele>
        <time>2014-01-23T12:16:53Z</time>
      </trkpt>
      <trkpt lat="43.21558" lon="5.38911">
        <ele>340.92</ele>
        <time>2014-01-23T12:17:26Z</time>
      </trkpt>
      <trkpt lat="43.21558" lon="5.38912">
        <ele>342.37</ele>
        <time>2014-01-23T12:18:05Z</time>
      </trkpt>
      <trkpt lat="43.21558" lon="5.38911">
        <ele>341.89</ele>
        <time>2014-01-23T12:18:40Z</time>
      </trkpt>
      <trkpt lat="43.21558" lon="5.38911">
        <ele>340.92</ele>
        <time>2014-01-23T12:19:09Z</time>
      </trkpt>
      <trkpt lat="43.21558" lon="5.38911">
        <ele>341.89</ele>
        <time>2014-01-23T12:19:31Z</time>
      </trkpt>
      <trkpt lat="43.21558" lon="5.38911">
        <ele>340.92</ele>
        <time>2014-01-23T12:20:09Z</time>
      </trkpt>
      <trkpt lat="43.21558" lon="5.38911">
        <ele>341.41</ele>
        <time>2014-01-23T12:20:43Z</time>
      </trkpt>
      <trkpt lat="43.21558" lon="5.38911">
        <ele>341.41</ele>
        <time>2014-01-23T12:21:13Z</time>
      </trkpt>
      <trkpt lat="43.21558" lon="5.38911">
        <ele>341.41</ele>
        <time>2014-01-23T12:21:37Z</time>
      </trkpt>
      <trkpt lat="43.21558" lon="5.38911">
        <ele>340.92</ele>
        <time>2014-01-23T12:22:03Z</time>
      </trkpt>
      <trkpt lat="43.21558" lon="5.38911">
        <ele>341.41</ele>
        <time>2014-01-23T12:22:33Z</time>
      </trkpt>
      <trkpt lat="43.21558" lon="5.38911">
        <ele>340.92</ele>
        <time>2014-01-23T12:23:09Z</time>
      </trkpt>
      <trkpt lat="43.21558" lon="5.38911">
        <ele>341.41</ele>
        <time>2014-01-23T12:23:40Z</time>
      </trkpt>
      <trkpt lat="43.21563" lon="5.38913">
        <ele>340.92</ele>
        <time>2014-01-23T12:24:07Z</time>
      </trkpt>
      <trkpt lat="43.21559" lon="5.3891">
        <ele>340.92</ele>
        <time>2014-01-23T12:24:27Z</time>
      </trkpt>
      <trkpt lat="43.21558" lon="5.38911">
        <ele>339.96</ele>
        <time>2014-01-23T12:24:59Z</time>
      </trkpt>
      <trkpt lat="43.21557" lon="5.38911">
        <ele>339.96</ele>
        <time>2014-01-23T12:25:19Z</time>
      </trkpt>
      <trkpt lat="43.21556" lon="5.38911">
        <ele>340.92</ele>
        <time>2014-01-23T12:25:52Z</time>
      </trkpt>
      <trkpt lat="43.21556" lon="5.38911">
        <ele>340.44</ele>
        <time>2014-01-23T12:26:28Z</time>
      </trkpt>
      <trkpt lat="43.21556" lon="5.38911">
        <ele>340.44</ele>
        <time>2014-01-23T12:26:55Z</time>
      </trkpt>
      <trkpt lat="43.21556" lon="5.38911">
        <ele>340.92</ele>
        <time>2014-01-23T12:27:20Z</time>
      </trkpt>
      <trkpt lat="43.21557" lon="5.38911">
        <ele>341.41</ele>
        <time>2014-01-23T12:27:40Z</time>
      </trkpt>
      <trkpt lat="43.21556" lon="5.38911">
        <ele>341.41</ele>
        <time>2014-01-23T12:28:05Z</time>
      </trkpt>
      <trkpt lat="43.21556" lon="5.38912">
        <ele>341.89</ele>
        <time>2014-01-23T12:28:38Z</time>
      </trkpt>
      <trkpt lat="43.21556" lon="5.38911">
        <ele>340.44</ele>
        <time>2014-01-23T12:29:08Z</time>
      </trkpt>
      <trkpt lat="43.21556" lon="5.38911">
        <ele>340.44</ele>
        <time>2014-01-23T12:29:39Z</time>
      </trkpt>
      <trkpt lat="43.21556" lon="5.38911">
        <ele>340.92</ele>
        <time>2014-01-23T12:30:02Z</time>
      </trkpt>
      <trkpt lat="43.21556" lon="5.38911">
        <ele>339.96</ele>
        <time>2014-01-23T12:30:31Z</time>
      </trkpt>
      <trkpt lat="43.21555" lon="5.38911">
        <ele>340.44</ele>
        <time>2014-01-23T12:31:00Z</time>
      </trkpt>
      <trkpt lat="43.21556" lon="5.38911">
        <ele>339.96</ele>
        <time>2014-01-23T12:31:27Z</time>
      </trkpt>
      <trkpt lat="43.21555" lon="5.38911">
        <ele>341.41</ele>
        <time>2014-01-23T12:31:49Z</time>
      </trkpt>
      <trkpt lat="43.21556" lon="5.38912">
        <ele>341.89</ele>
        <time>2014-01-23T12:32:08Z</time>
      </trkpt>
      <trkpt lat="43.21555" lon="5.38912">
        <ele>340.92</ele>
        <time>2014-01-23T12:32:26Z</time>
      </trkpt>
      <trkpt lat="43.21556" lon="5.38911">
        <ele>341.89</ele>
        <time>2014-01-23T12:32:44Z</time>
      </trkpt>
      <trkpt lat="43.21556" lon="5.38912">
        <ele>340.92</ele>
        <time>2014-01-23T12:33:06Z</time>
      </trkpt>
      <trkpt lat="43.21554" lon="5.38912">
        <ele>342.37</ele>
        <time>2014-01-23T12:33:25Z</time>
      </trkpt>
      <trkpt lat="43.21555" lon="5.38913">
        <ele>341.41</ele>
        <time>2014-01-23T12:33:40Z</time>
      </trkpt>
      <trkpt lat="43.21555" lon="5.38913">
        <ele>341.89</ele>
        <time>2014-01-23T12:34:03Z</time>
      </trkpt>
      <trkpt lat="43.21555" lon="5.38913">
        <ele>341.89</ele>
        <time>2014-01-23T12:34:23Z</time>
      </trkpt>
      <trkpt lat="43.21555" lon="5.38913">
        <ele>341.41</ele>
        <time>2014-01-23T12:34:48Z</time>
      </trkpt>
      <trkpt lat="43.21555" lon="5.38913">
        <ele>341.89</ele>
        <time>2014-01-23T12:35:07Z</time>
      </trkpt>
      <trkpt lat="43.21554" lon="5.38911">
        <ele>340.44</ele>
        <time>2014-01-23T12:35:29Z</time>
      </trkpt>
      <trkpt lat="43.21554" lon="5.38911">
        <ele>340.92</ele>
        <time>2014-01-23T12:35:32Z</time>
      </trkpt>
      <trkpt lat="43.21549" lon="5.38902">
        <ele>339.96</ele>
        <time>2014-01-23T12:35:47Z</time>
      </trkpt>
      <trkpt lat="43.21548" lon="5.38887">
        <ele>338.04</ele>
        <time>2014-01-23T12:36:03Z</time>
      </trkpt>
      <trkpt lat="43.21548" lon="5.38887">
        <ele>339</ele>
        <time>2014-01-23T12:36:22Z</time>
      </trkpt>
      <trkpt lat="43.21548" lon="5.38887">
        <ele>338.04</ele>
        <time>2014-01-23T12:36:40Z</time>
      </trkpt>
      <trkpt lat="43.21546" lon="5.38883">
        <ele>337.56</ele>
        <time>2014-01-23T12:36:54Z</time>
      </trkpt>
      <trkpt lat="43.21546" lon="5.38882">
        <ele>337.56</ele>
        <time>2014-01-23T12:37:18Z</time>
      </trkpt>
      <trkpt lat="43.21545" lon="5.38873">
        <ele>338.04</ele>
        <time>2014-01-23T12:37:31Z</time>
      </trkpt>
      <trkpt lat="43.21545" lon="5.38868">
        <ele>338.52</ele>
        <time>2014-01-23T12:37:43Z</time>
      </trkpt>
      <trkpt lat="43.21546" lon="5.38858">
        <ele>337.08</ele>
        <time>2014-01-23T12:37:52Z</time>
      </trkpt>
      <trkpt lat="43.21547" lon="5.3885">
        <ele>336.12</ele>
        <time>2014-01-23T12:37:58Z</time>
      </trkpt>
      <trkpt lat="43.2155" lon="5.38838">
        <ele>336.12</ele>
        <time>2014-01-23T12:38:06Z</time>
      </trkpt>
      <trkpt lat="43.2155" lon="5.38831">
        <ele>335.64</ele>
        <time>2014-01-23T12:38:12Z</time>
      </trkpt>
      <trkpt lat="43.21551" lon="5.38826">
        <ele>334.68</ele>
        <time>2014-01-23T12:38:16Z</time>
      </trkpt>
      <trkpt lat="43.21555" lon="5.38818">
        <ele>335.64</ele>
        <time>2014-01-23T12:38:29Z</time>
      </trkpt>
      <trkpt lat="43.21553" lon="5.38818">
        <ele>336.12</ele>
        <time>2014-01-23T12:38:55Z</time>
      </trkpt>
      <trkpt lat="43.21553" lon="5.38817">
        <ele>337.08</ele>
        <time>2014-01-23T12:39:00Z</time>
      </trkpt>
      <trkpt lat="43.21553" lon="5.38817">
        <ele>337.56</ele>
        <time>2014-01-23T12:39:03Z</time>
      </trkpt>
      <trkpt lat="43.21556" lon="5.38827">
        <ele>338.04</ele>
        <time>2014-01-23T12:39:12Z</time>
      </trkpt>
      <trkpt lat="43.21557" lon="5.38839">
        <ele>339.48</ele>
        <time>2014-01-23T12:39:24Z</time>
      </trkpt>
      <trkpt lat="43.21559" lon="5.38848">
        <ele>339</ele>
        <time>2014-01-23T12:39:42Z</time>
      </trkpt>
      <trkpt lat="43.2156" lon="5.38857">
        <ele>339.96</ele>
        <time>2014-01-23T12:39:57Z</time>
      </trkpt>
      <trkpt lat="43.21561" lon="5.38867">
        <ele>341.41</ele>
        <time>2014-01-23T12:40:13Z</time>
      </trkpt>
      <trkpt lat="43.2156" lon="5.3887">
        <ele>340.44</ele>
        <time>2014-01-23T12:40:27Z</time>
      </trkpt>
      <trkpt lat="43.2156" lon="5.3887">
        <ele>338.52</ele>
        <time>2014-01-23T12:40:36Z</time>
      </trkpt>
      <trkpt lat="43.2156" lon="5.38872">
        <ele>339.48</ele>
        <time>2014-01-23T12:40:39Z</time>
      </trkpt>
      <trkpt lat="43.21559" lon="5.38883">
        <ele>340.44</ele>
        <time>2014-01-23T12:40:48Z</time>
      </trkpt>
      <trkpt lat="43.2156" lon="5.38886">
        <ele>340.92</ele>
        <time>2014-01-23T12:40:50Z</time>
      </trkpt>
      <trkpt lat="43.2156" lon="5.3889">
        <ele>342.37</ele>
        <time>2014-01-23T12:40:53Z</time>
      </trkpt>
      <trkpt lat="43.21562" lon="5.38894">
        <ele>341.89</ele>
        <time>2014-01-23T12:40:57Z</time>
      </trkpt>
      <trkpt lat="43.21562" lon="5.38911">
        <ele>342.85</ele>
        <time>2014-01-23T12:41:11Z</time>
      </trkpt>
      <trkpt lat="43.21562" lon="5.38924">
        <ele>346.21</ele>
        <time>2014-01-23T12:41:24Z</time>
      </trkpt>
      <trkpt lat="43.21562" lon="5.38927">
        <ele>343.33</ele>
        <time>2014-01-23T12:41:27Z</time>
      </trkpt>
      <trkpt lat="43.21562" lon="5.38944">
        <ele>345.73</ele>
        <time>2014-01-23T12:41:42Z</time>
      </trkpt>
      <trkpt lat="43.21564" lon="5.38958">
        <ele>342.85</ele>
        <time>2014-01-23T12:41:57Z</time>
      </trkpt>
      <trkpt lat="43.21568" lon="5.38971">
        <ele>344.29</ele>
        <time>2014-01-23T12:42:11Z</time>
      </trkpt>
      <trkpt lat="43.21572" lon="5.38982">
        <ele>345.25</ele>
        <time>2014-01-23T12:42:26Z</time>
      </trkpt>
      <trkpt lat="43.21577" lon="5.38987">
        <ele>345.73</ele>
        <time>2014-01-23T12:42:38Z</time>
      </trkpt>
      <trkpt lat="43.21579" lon="5.38991">
        <ele>344.77</ele>
        <time>2014-01-23T12:42:53Z</time>
      </trkpt>
      <trkpt lat="43.21582" lon="5.38996">
        <ele>346.69</ele>
        <time>2014-01-23T12:43:07Z</time>
      </trkpt>
      <trkpt lat="43.21586" lon="5.39001">
        <ele>348.13</ele>
        <time>2014-01-23T12:43:24Z</time>
      </trkpt>
      <trkpt lat="43.21595" lon="5.39006">
        <ele>349.1</ele>
        <time>2014-01-23T12:43:38Z</time>
      </trkpt>
      <trkpt lat="43.21603" lon="5.39011">
        <ele>350.54</ele>
        <time>2014-01-23T12:43:52Z</time>
      </trkpt>
      <trkpt lat="43.21605" lon="5.39012">
        <ele>349.58</ele>
        <time>2014-01-23T12:44:07Z</time>
      </trkpt>
      <trkpt lat="43.2161" lon="5.39013">
        <ele>351.02</ele>
        <time>2014-01-23T12:44:21Z</time>
      </trkpt>
      <trkpt lat="43.21615" lon="5.39016">
        <ele>352.94</ele>
        <time>2014-01-23T12:44:34Z</time>
      </trkpt>
      <trkpt lat="43.21618" lon="5.39019">
        <ele>355.34</ele>
        <time>2014-01-23T12:44:43Z</time>
      </trkpt>
      <trkpt lat="43.21628" lon="5.39025">
        <ele>357.75</ele>
        <time>2014-01-23T12:44:57Z</time>
      </trkpt>
      <trkpt lat="43.21637" lon="5.39028">
        <ele>358.71</ele>
        <time>2014-01-23T12:45:10Z</time>
      </trkpt>
      <trkpt lat="43.21645" lon="5.3903">
        <ele>359.67</ele>
        <time>2014-01-23T12:45:24Z</time>
      </trkpt>
      <trkpt lat="43.21651" lon="5.39033">
        <ele>359.19</ele>
        <time>2014-01-23T12:45:32Z</time>
      </trkpt>
      <trkpt lat="43.21657" lon="5.39038">
        <ele>360.15</ele>
        <time>2014-01-23T12:45:41Z</time>
      </trkpt>
      <trkpt lat="43.21667" lon="5.39038">
        <ele>361.11</ele>
        <time>2014-01-23T12:45:55Z</time>
      </trkpt>
      <trkpt lat="43.21673" lon="5.39038">
        <ele>362.07</ele>
        <time>2014-01-23T12:46:03Z</time>
      </trkpt>
      <trkpt lat="43.21682" lon="5.3904">
        <ele>363.52</ele>
        <time>2014-01-23T12:46:15Z</time>
      </trkpt>
      <trkpt lat="43.21692" lon="5.39038">
        <ele>364.48</ele>
        <time>2014-01-23T12:46:29Z</time>
      </trkpt>
      <trkpt lat="43.21699" lon="5.39038">
        <ele>364.48</ele>
        <time>2014-01-23T12:46:44Z</time>
      </trkpt>
      <trkpt lat="43.21707" lon="5.39035">
        <ele>362.55</ele>
        <time>2014-01-23T12:47:01Z</time>
      </trkpt>
      <trkpt lat="43.21707" lon="5.39034">
        <ele>365.92</ele>
        <time>2014-01-23T12:47:08Z</time>
      </trkpt>
      <trkpt lat="43.21709" lon="5.39033">
        <ele>366.4</ele>
        <time>2014-01-23T12:47:11Z</time>
      </trkpt>
      <trkpt lat="43.21717" lon="5.3903">
        <ele>367.84</ele>
        <time>2014-01-23T12:47:21Z</time>
      </trkpt>
      <trkpt lat="43.21726" lon="5.39025">
        <ele>368.8</ele>
        <time>2014-01-23T12:47:35Z</time>
      </trkpt>
      <trkpt lat="43.21736" lon="5.39023">
        <ele>370.73</ele>
        <time>2014-01-23T12:47:50Z</time>
      </trkpt>
      <trkpt lat="43.2174" lon="5.39025">
        <ele>371.21</ele>
        <time>2014-01-23T12:47:56Z</time>
      </trkpt>
      <trkpt lat="43.21748" lon="5.39032">
        <ele>371.21</ele>
        <time>2014-01-23T12:48:10Z</time>
      </trkpt>
      <trkpt lat="43.21754" lon="5.39038">
        <ele>373.13</ele>
        <time>2014-01-23T12:48:23Z</time>
      </trkpt>
      <trkpt lat="43.2176" lon="5.39046">
        <ele>374.09</ele>
        <time>2014-01-23T12:48:38Z</time>
      </trkpt>
      <trkpt lat="43.21768" lon="5.39056">
        <ele>374.09</ele>
        <time>2014-01-23T12:48:54Z</time>
      </trkpt>
      <trkpt lat="43.21778" lon="5.39063">
        <ele>374.57</ele>
        <time>2014-01-23T12:49:09Z</time>
      </trkpt>
      <trkpt lat="43.2178" lon="5.3907">
        <ele>374.57</ele>
        <time>2014-01-23T12:49:18Z</time>
      </trkpt>
      <trkpt lat="43.2178" lon="5.39072">
        <ele>374.09</ele>
        <time>2014-01-23T12:49:20Z</time>
      </trkpt>
      <trkpt lat="43.21784" lon="5.39081">
        <ele>373.61</ele>
        <time>2014-01-23T12:49:30Z</time>
      </trkpt>
      <trkpt lat="43.21786" lon="5.39083">
        <ele>374.09</ele>
        <time>2014-01-23T12:49:32Z</time>
      </trkpt>
      <trkpt lat="43.21795" lon="5.39095">
        <ele>373.13</ele>
        <time>2014-01-23T12:49:48Z</time>
      </trkpt>
      <trkpt lat="43.21799" lon="5.39102">
        <ele>373.61</ele>
        <time>2014-01-23T12:49:56Z</time>
      </trkpt>
      <trkpt lat="43.21801" lon="5.39105">
        <ele>373.13</ele>
        <time>2014-01-23T12:49:58Z</time>
      </trkpt>
      <trkpt lat="43.2181" lon="5.39122">
        <ele>373.13</ele>
        <time>2014-01-23T12:50:13Z</time>
      </trkpt>
      <trkpt lat="43.21811" lon="5.39137">
        <ele>372.17</ele>
        <time>2014-01-23T12:50:23Z</time>
      </trkpt>
      <trkpt lat="43.21816" lon="5.39163">
        <ele>371.69</ele>
        <time>2014-01-23T12:50:39Z</time>
      </trkpt>
      <trkpt lat="43.21816" lon="5.39166">
        <ele>371.21</ele>
        <time>2014-01-23T12:50:41Z</time>
      </trkpt>
      <trkpt lat="43.21825" lon="5.39185">
        <ele>370.24</ele>
        <time>2014-01-23T12:50:54Z</time>
      </trkpt>
      <trkpt lat="43.21831" lon="5.39209">
        <ele>370.73</ele>
        <time>2014-01-23T12:51:09Z</time>
      </trkpt>
      <trkpt lat="43.21834" lon="5.39222">
        <ele>371.69</ele>
        <time>2014-01-23T12:51:18Z</time>
      </trkpt>
      <trkpt lat="43.21834" lon="5.39244">
        <ele>370.73</ele>
        <time>2014-01-23T12:51:32Z</time>
      </trkpt>
      <trkpt lat="43.21839" lon="5.39259">
        <ele>370.73</ele>
        <time>2014-01-23T12:51:43Z</time>
      </trkpt>
      <trkpt lat="43.21843" lon="5.39276">
        <ele>371.21</ele>
        <time>2014-01-23T12:51:55Z</time>
      </trkpt>
      <trkpt lat="43.21846" lon="5.39292">
        <ele>372.17</ele>
        <time>2014-01-23T12:52:09Z</time>
      </trkpt>
      <trkpt lat="43.2185" lon="5.39302">
        <ele>373.61</ele>
        <time>2014-01-23T12:52:22Z</time>
      </trkpt>
      <trkpt lat="43.21856" lon="5.39315">
        <ele>374.57</ele>
        <time>2014-01-23T12:52:37Z</time>
      </trkpt>
      <trkpt lat="43.21857" lon="5.39326">
        <ele>375.53</ele>
        <time>2014-01-23T12:52:50Z</time>
      </trkpt>
      <trkpt lat="43.21861" lon="5.39336">
        <ele>376.97</ele>
        <time>2014-01-23T12:53:05Z</time>
      </trkpt>
      <trkpt lat="43.21862" lon="5.39348">
        <ele>378.42</ele>
        <time>2014-01-23T12:53:18Z</time>
      </trkpt>
      <trkpt lat="43.21866" lon="5.39361">
        <ele>380.34</ele>
        <time>2014-01-23T12:53:33Z</time>
      </trkpt>
      <trkpt lat="43.21866" lon="5.39374">
        <ele>381.3</ele>
        <time>2014-01-23T12:53:46Z</time>
      </trkpt>
      <trkpt lat="43.21866" lon="5.39378">
        <ele>382.74</ele>
        <time>2014-01-23T12:53:50Z</time>
      </trkpt>
      <trkpt lat="43.21865" lon="5.39384">
        <ele>382.74</ele>
        <time>2014-01-23T12:53:55Z</time>
      </trkpt>
      <trkpt lat="43.21862" lon="5.39396">
        <ele>384.18</ele>
        <time>2014-01-23T12:54:07Z</time>
      </trkpt>
      <trkpt lat="43.21858" lon="5.39409">
        <ele>384.66</ele>
        <time>2014-01-23T12:54:20Z</time>
      </trkpt>
      <trkpt lat="43.21858" lon="5.39412">
        <ele>385.63</ele>
        <time>2014-01-23T12:54:23Z</time>
      </trkpt>
      <trkpt lat="43.2186" lon="5.39423">
        <ele>385.63</ele>
        <time>2014-01-23T12:54:36Z</time>
      </trkpt>
      <trkpt lat="43.21865" lon="5.39436">
        <ele>386.59</ele>
        <time>2014-01-23T12:54:50Z</time>
      </trkpt>
      <trkpt lat="43.21868" lon="5.39449">
        <ele>386.59</ele>
        <time>2014-01-23T12:55:01Z</time>
      </trkpt>
      <trkpt lat="43.21869" lon="5.39452">
        <ele>388.03</ele>
        <time>2014-01-23T12:55:04Z</time>
      </trkpt>
      <trkpt lat="43.2187" lon="5.39457">
        <ele>386.11</ele>
        <time>2014-01-23T12:55:08Z</time>
      </trkpt>
      <trkpt lat="43.21871" lon="5.39472">
        <ele>386.11</ele>
        <time>2014-01-23T12:55:20Z</time>
      </trkpt>
      <trkpt lat="43.21873" lon="5.39487">
        <ele>387.07</ele>
        <time>2014-01-23T12:55:32Z</time>
      </trkpt>
      <trkpt lat="43.21873" lon="5.39498">
        <ele>387.55</ele>
        <time>2014-01-23T12:55:42Z</time>
      </trkpt>
      <trkpt lat="43.21872" lon="5.39502">
        <ele>387.55</ele>
        <time>2014-01-23T12:55:45Z</time>
      </trkpt>
      <trkpt lat="43.21873" lon="5.39512">
        <ele>387.55</ele>
        <time>2014-01-23T12:55:53Z</time>
      </trkpt>
      <trkpt lat="43.21874" lon="5.3952">
        <ele>387.55</ele>
        <time>2014-01-23T12:56:00Z</time>
      </trkpt>
      <trkpt lat="43.21874" lon="5.39523">
        <ele>387.55</ele>
        <time>2014-01-23T12:56:02Z</time>
      </trkpt>
      <trkpt lat="43.21872" lon="5.39536">
        <ele>388.51</ele>
        <time>2014-01-23T12:56:12Z</time>
      </trkpt>
      <trkpt lat="43.21873" lon="5.39545">
        <ele>387.55</ele>
        <time>2014-01-23T12:56:19Z</time>
      </trkpt>
      <trkpt lat="43.21873" lon="5.39552">
        <ele>388.99</ele>
        <time>2014-01-23T12:56:26Z</time>
      </trkpt>
      <trkpt lat="43.21874" lon="5.39555">
        <ele>388.99</ele>
        <time>2014-01-23T12:56:28Z</time>
      </trkpt>
      <trkpt lat="43.21874" lon="5.39566">
        <ele>389.47</ele>
        <time>2014-01-23T12:56:38Z</time>
      </trkpt>
      <trkpt lat="43.21872" lon="5.3958">
        <ele>389.95</ele>
        <time>2014-01-23T12:56:51Z</time>
      </trkpt>
      <trkpt lat="43.21872" lon="5.39595">
        <ele>391.39</ele>
        <time>2014-01-23T12:57:04Z</time>
      </trkpt>
      <trkpt lat="43.21874" lon="5.3961">
        <ele>392.36</ele>
        <time>2014-01-23T12:57:17Z</time>
      </trkpt>
      <trkpt lat="43.21873" lon="5.39621">
        <ele>392.36</ele>
        <time>2014-01-23T12:57:30Z</time>
      </trkpt>
      <trkpt lat="43.21873" lon="5.39625">
        <ele>392.84</ele>
        <time>2014-01-23T12:57:34Z</time>
      </trkpt>
      <trkpt lat="43.21872" lon="5.39628">
        <ele>392.84</ele>
        <time>2014-01-23T12:57:37Z</time>
      </trkpt>
      <trkpt lat="43.21873" lon="5.39635">
        <ele>394.76</ele>
        <time>2014-01-23T12:57:48Z</time>
      </trkpt>
      <trkpt lat="43.21874" lon="5.39635">
        <ele>395.24</ele>
        <time>2014-01-23T12:58:06Z</time>
      </trkpt>
      <trkpt lat="43.21874" lon="5.39635">
        <ele>395.24</ele>
        <time>2014-01-23T12:58:30Z</time>
      </trkpt>
      <trkpt lat="43.21874" lon="5.39635">
        <ele>394.28</ele>
        <time>2014-01-23T12:58:58Z</time>
      </trkpt>
      <trkpt lat="43.21875" lon="5.39635">
        <ele>395.24</ele>
        <time>2014-01-23T12:59:14Z</time>
      </trkpt>
      <trkpt lat="43.21874" lon="5.39635">
        <ele>395.72</ele>
        <time>2014-01-23T12:59:31Z</time>
      </trkpt>
      <trkpt lat="43.21874" lon="5.39635">
        <ele>394.76</ele>
        <time>2014-01-23T12:59:57Z</time>
      </trkpt>
      <trkpt lat="43.21874" lon="5.39635">
        <ele>395.24</ele>
        <time>2014-01-23T13:00:24Z</time>
      </trkpt>
      <trkpt lat="43.21874" lon="5.39635">
        <ele>393.8</ele>
        <time>2014-01-23T13:00:52Z</time>
      </trkpt>
      <trkpt lat="43.21874" lon="5.39634">
        <ele>394.76</ele>
        <time>2014-01-23T13:01:16Z</time>
      </trkpt>
      <trkpt lat="43.21874" lon="5.39634">
        <ele>394.28</ele>
        <time>2014-01-23T13:01:53Z</time>
      </trkpt>
      <trkpt lat="43.21874" lon="5.39635">
        <ele>395.24</ele>
        <time>2014-01-23T13:02:20Z</time>
      </trkpt>
      <trkpt lat="43.21874" lon="5.39635">
        <ele>394.28</ele>
        <time>2014-01-23T13:02:45Z</time>
      </trkpt>
      <trkpt lat="43.21873" lon="5.39635">
        <ele>394.76</ele>
        <time>2014-01-23T13:03:13Z</time>
      </trkpt>
      <trkpt lat="43.21874" lon="5.39635">
        <ele>395.24</ele>
        <time>2014-01-23T13:03:29Z</time>
      </trkpt>
      <trkpt lat="43.21875" lon="5.39637">
        <ele>394.76</ele>
        <time>2014-01-23T13:03:47Z</time>
      </trkpt>
      <trkpt lat="43.21881" lon="5.39638">
        <ele>395.72</ele>
        <time>2014-01-23T13:04:00Z</time>
      </trkpt>
      <trkpt lat="43.21891" lon="5.39639">
        <ele>391.87</ele>
        <time>2014-01-23T13:04:15Z</time>
      </trkpt>
      <trkpt lat="43.21892" lon="5.39638">
        <ele>390.91</ele>
        <time>2014-01-23T13:04:17Z</time>
      </trkpt>
      <trkpt lat="43.21896" lon="5.39636">
        <ele>390.43</ele>
        <time>2014-01-23T13:04:25Z</time>
      </trkpt>
      <trkpt lat="43.21905" lon="5.39636">
        <ele>388.03</ele>
        <time>2014-01-23T13:04:39Z</time>
      </trkpt>
      <trkpt lat="43.21908" lon="5.39633">
        <ele>384.18</ele>
        <time>2014-01-23T13:04:44Z</time>
      </trkpt>
      <trkpt lat="43.21908" lon="5.39633">
        <ele>384.66</ele>
        <time>2014-01-23T13:04:45Z</time>
      </trkpt>
      <trkpt lat="43.21911" lon="5.39629">
        <ele>388.03</ele>
        <time>2014-01-23T13:04:50Z</time>
      </trkpt>
      <trkpt lat="43.21912" lon="5.39627">
        <ele>384.18</ele>
        <time>2014-01-23T13:04:53Z</time>
      </trkpt>
      <trkpt lat="43.21913" lon="5.39626">
        <ele>384.18</ele>
        <time>2014-01-23T13:04:54Z</time>
      </trkpt>
      <trkpt lat="43.21915" lon="5.3962">
        <ele>388.03</ele>
        <time>2014-01-23T13:05:02Z</time>
      </trkpt>
      <trkpt lat="43.21917" lon="5.3962">
        <ele>383.7</ele>
        <time>2014-01-23T13:05:06Z</time>
      </trkpt>
      <trkpt lat="43.21918" lon="5.3962">
        <ele>383.7</ele>
        <time>2014-01-23T13:05:07Z</time>
      </trkpt>
      <trkpt lat="43.21923" lon="5.39613">
        <ele>381.3</ele>
        <time>2014-01-23T13:05:21Z</time>
      </trkpt>
      <trkpt lat="43.2193" lon="5.3961">
        <ele>378.42</ele>
        <time>2014-01-23T13:05:35Z</time>
      </trkpt>
      <trkpt lat="43.2193" lon="5.39609">
        <ele>379.86</ele>
        <time>2014-01-23T13:05:39Z</time>
      </trkpt>
      <trkpt lat="43.21933" lon="5.39603">
        <ele>376.49</ele>
        <time>2014-01-23T13:05:51Z</time>
      </trkpt>
      <trkpt lat="43.21934" lon="5.39603">
        <ele>376.01</ele>
        <time>2014-01-23T13:05:56Z</time>
      </trkpt>
      <trkpt lat="43.21939" lon="5.39601">
        <ele>374.57</ele>
        <time>2014-01-23T13:06:01Z</time>
      </trkpt>
      <trkpt lat="43.21947" lon="5.39591">
        <ele>373.61</ele>
        <time>2014-01-23T13:06:15Z</time>
      </trkpt>
      <trkpt lat="43.21952" lon="5.39586">
        <ele>373.61</ele>
        <time>2014-01-23T13:06:23Z</time>
      </trkpt>
      <trkpt lat="43.21955" lon="5.39583">
        <ele>372.17</ele>
        <time>2014-01-23T13:06:28Z</time>
      </trkpt>
      <trkpt lat="43.21958" lon="5.3958">
        <ele>373.61</ele>
        <time>2014-01-23T13:06:32Z</time>
      </trkpt>
      <trkpt lat="43.21963" lon="5.39566">
        <ele>372.17</ele>
        <time>2014-01-23T13:06:45Z</time>
      </trkpt>
      <trkpt lat="43.21972" lon="5.39554">
        <ele>369.76</ele>
        <time>2014-01-23T13:06:58Z</time>
      </trkpt>
      <trkpt lat="43.21978" lon="5.39545">
        <ele>369.28</ele>
        <time>2014-01-23T13:07:09Z</time>
      </trkpt>
      <trkpt lat="43.21987" lon="5.39535">
        <ele>367.36</ele>
        <time>2014-01-23T13:07:23Z</time>
      </trkpt>
      <trkpt lat="43.2199" lon="5.39534">
        <ele>367.84</ele>
        <time>2014-01-23T13:07:26Z</time>
      </trkpt>
      <trkpt lat="43.21994" lon="5.39533">
        <ele>366.4</ele>
        <time>2014-01-23T13:07:30Z</time>
      </trkpt>
      <trkpt lat="43.21996" lon="5.39531">
        <ele>364.96</ele>
        <time>2014-01-23T13:07:34Z</time>
      </trkpt>
      <trkpt lat="43.21999" lon="5.39527">
        <ele>364</ele>
        <time>2014-01-23T13:07:40Z</time>
      </trkpt>
      <trkpt lat="43.22001" lon="5.39521">
        <ele>361.59</ele>
        <time>2014-01-23T13:07:49Z</time>
      </trkpt>
      <trkpt lat="43.22011" lon="5.3951">
        <ele>364.48</ele>
        <time>2014-01-23T13:08:03Z</time>
      </trkpt>
      <trkpt lat="43.22013" lon="5.39504">
        <ele>362.07</ele>
        <time>2014-01-23T13:08:09Z</time>
      </trkpt>
      <trkpt lat="43.22019" lon="5.39497">
        <ele>365.92</ele>
        <time>2014-01-23T13:08:19Z</time>
      </trkpt>
      <trkpt lat="43.2202" lon="5.39496">
        <ele>365.44</ele>
        <time>2014-01-23T13:08:20Z</time>
      </trkpt>
      <trkpt lat="43.22021" lon="5.39495">
        <ele>361.59</ele>
        <time>2014-01-23T13:08:22Z</time>
      </trkpt>
      <trkpt lat="43.22021" lon="5.39495">
        <ele>362.07</ele>
        <time>2014-01-23T13:08:23Z</time>
      </trkpt>
      <trkpt lat="43.22028" lon="5.3949">
        <ele>363.04</ele>
        <time>2014-01-23T13:08:36Z</time>
      </trkpt>
      <trkpt lat="43.2203" lon="5.39489">
        <ele>361.11</ele>
        <time>2014-01-23T13:08:39Z</time>
      </trkpt>
      <trkpt lat="43.22035" lon="5.39491">
        <ele>357.75</ele>
        <time>2014-01-23T13:08:45Z</time>
      </trkpt>
      <trkpt lat="43.22036" lon="5.39491">
        <ele>358.71</ele>
        <time>2014-01-23T13:08:46Z</time>
      </trkpt>
      <trkpt lat="43.22042" lon="5.39491">
        <ele>358.23</ele>
        <time>2014-01-23T13:08:53Z</time>
      </trkpt>
      <trkpt lat="43.22047" lon="5.39486">
        <ele>355.83</ele>
        <time>2014-01-23T13:09:02Z</time>
      </trkpt>
      <trkpt lat="43.22048" lon="5.39484">
        <ele>354.86</ele>
        <time>2014-01-23T13:09:06Z</time>
      </trkpt>
      <trkpt lat="43.22051" lon="5.39478">
        <ele>357.75</ele>
        <time>2014-01-23T13:09:12Z</time>
      </trkpt>
      <trkpt lat="43.22052" lon="5.39477">
        <ele>354.86</ele>
        <time>2014-01-23T13:09:13Z</time>
      </trkpt>
      <trkpt lat="43.22052" lon="5.39476">
        <ele>354.86</ele>
        <time>2014-01-23T13:09:14Z</time>
      </trkpt>
      <trkpt lat="43.22055" lon="5.39471">
        <ele>353.42</ele>
        <time>2014-01-23T13:09:20Z</time>
      </trkpt>
      <trkpt lat="43.22056" lon="5.39469">
        <ele>356.31</ele>
        <time>2014-01-23T13:09:22Z</time>
      </trkpt>
      <trkpt lat="43.22057" lon="5.39468">
        <ele>352.94</ele>
        <time>2014-01-23T13:09:24Z</time>
      </trkpt>
      <trkpt lat="43.22057" lon="5.39466">
        <ele>352.94</ele>
        <time>2014-01-23T13:09:25Z</time>
      </trkpt>
      <trkpt lat="43.22059" lon="5.39457">
        <ele>352.94</ele>
        <time>2014-01-23T13:09:36Z</time>
      </trkpt>
      <trkpt lat="43.22059" lon="5.39456">
        <ele>354.38</ele>
        <time>2014-01-23T13:09:38Z</time>
      </trkpt>
      <trkpt lat="43.2206" lon="5.39455">
        <ele>351.98</ele>
        <time>2014-01-23T13:09:54Z</time>
      </trkpt>
      <trkpt lat="43.2206" lon="5.39454">
        <ele>353.42</ele>
        <time>2014-01-23T13:10:03Z</time>
      </trkpt>
      <trkpt lat="43.22061" lon="5.39452">
        <ele>350.54</ele>
        <time>2014-01-23T13:10:08Z</time>
      </trkpt>
      <trkpt lat="43.22063" lon="5.39445">
        <ele>350.06</ele>
        <time>2014-01-23T13:10:25Z</time>
      </trkpt>
      <trkpt lat="43.22062" lon="5.39445">
        <ele>351.02</ele>
        <time>2014-01-23T13:10:27Z</time>
      </trkpt>
      <trkpt lat="43.22059" lon="5.39432">
        <ele>348.13</ele>
        <time>2014-01-23T13:10:41Z</time>
      </trkpt>
      <trkpt lat="43.22057" lon="5.39424">
        <ele>347.17</ele>
        <time>2014-01-23T13:10:54Z</time>
      </trkpt>
      <trkpt lat="43.22058" lon="5.39421">
        <ele>347.65</ele>
        <time>2014-01-23T13:11:08Z</time>
      </trkpt>
      <trkpt lat="43.22057" lon="5.39418">
        <ele>348.13</ele>
        <time>2014-01-23T13:11:10Z</time>
      </trkpt>
      <trkpt lat="43.22054" lon="5.39397">
        <ele>348.62</ele>
        <time>2014-01-23T13:11:25Z</time>
      </trkpt>
      <trkpt lat="43.22055" lon="5.39386">
        <ele>351.5</ele>
        <time>2014-01-23T13:11:37Z</time>
      </trkpt>
      <trkpt lat="43.22057" lon="5.39374">
        <ele>351.02</ele>
        <time>2014-01-23T13:11:49Z</time>
      </trkpt>
      <trkpt lat="43.22061" lon="5.39353">
        <ele>351.98</ele>
        <time>2014-01-23T13:12:06Z</time>
      </trkpt>
      <trkpt lat="43.22062" lon="5.39336">
        <ele>352.94</ele>
        <time>2014-01-23T13:12:21Z</time>
      </trkpt>
      <trkpt lat="43.22062" lon="5.39336">
        <ele>352.94</ele>
        <time>2014-01-23T13:12:22Z</time>
      </trkpt>
      <trkpt lat="43.22063" lon="5.3932">
        <ele>351.5</ele>
        <time>2014-01-23T13:12:33Z</time>
      </trkpt>
      <trkpt lat="43.22062" lon="5.39309">
        <ele>351.98</ele>
        <time>2014-01-23T13:12:41Z</time>
      </trkpt>
      <trkpt lat="43.22063" lon="5.39296">
        <ele>350.06</ele>
        <time>2014-01-23T13:12:55Z</time>
      </trkpt>
      <trkpt lat="43.22065" lon="5.39284">
        <ele>348.62</ele>
        <time>2014-01-23T13:13:11Z</time>
      </trkpt>
      <trkpt lat="43.22066" lon="5.39277">
        <ele>345.25</ele>
        <time>2014-01-23T13:13:26Z</time>
      </trkpt>
      <trkpt lat="43.22068" lon="5.39269">
        <ele>343.33</ele>
        <time>2014-01-23T13:13:40Z</time>
      </trkpt>
      <trkpt lat="43.2207" lon="5.39253">
        <ele>345.25</ele>
        <time>2014-01-23T13:13:55Z</time>
      </trkpt>
      <trkpt lat="43.2207" lon="5.39246">
        <ele>345.73</ele>
        <time>2014-01-23T13:14:10Z</time>
      </trkpt>
      <trkpt lat="43.2207" lon="5.39246">
        <ele>344.29</ele>
        <time>2014-01-23T13:14:14Z</time>
      </trkpt>
      <trkpt lat="43.2207" lon="5.39246">
        <ele>341.41</ele>
        <time>2014-01-23T13:14:19Z</time>
      </trkpt>
      <trkpt lat="43.2207" lon="5.39246">
        <ele>344.77</ele>
        <time>2014-01-23T13:14:21Z</time>
      </trkpt>
      <trkpt lat="43.2207" lon="5.39245">
        <ele>344.77</ele>
        <time>2014-01-23T13:14:22Z</time>
      </trkpt>
      <trkpt lat="43.2207" lon="5.39245">
        <ele>342.37</ele>
        <time>2014-01-23T13:14:25Z</time>
      </trkpt>
      <trkpt lat="43.22071" lon="5.39244">
        <ele>345.25</ele>
        <time>2014-01-23T13:14:29Z</time>
      </trkpt>
      <trkpt lat="43.22071" lon="5.39242">
        <ele>342.37</ele>
        <time>2014-01-23T13:14:33Z</time>
      </trkpt>
      <trkpt lat="43.22072" lon="5.3924">
        <ele>340.44</ele>
        <time>2014-01-23T13:14:37Z</time>
      </trkpt>
      <trkpt lat="43.22074" lon="5.39238">
        <ele>340.44</ele>
        <time>2014-01-23T13:14:41Z</time>
      </trkpt>
      <trkpt lat="43.22075" lon="5.39235">
        <ele>339.48</ele>
        <time>2014-01-23T13:14:43Z</time>
      </trkpt>
      <trkpt lat="43.22078" lon="5.3923">
        <ele>338.52</ele>
        <time>2014-01-23T13:14:48Z</time>
      </trkpt>
      <trkpt lat="43.22085" lon="5.39218">
        <ele>339.48</ele>
        <time>2014-01-23T13:15:01Z</time>
      </trkpt>
      <trkpt lat="43.22085" lon="5.39215">
        <ele>336.6</ele>
        <time>2014-01-23T13:15:05Z</time>
      </trkpt>
      <trkpt lat="43.22088" lon="5.39207">
        <ele>336.12</ele>
        <time>2014-01-23T13:15:18Z</time>
      </trkpt>
      <trkpt lat="43.22086" lon="5.39206">
        <ele>335.16</ele>
        <time>2014-01-23T13:15:27Z</time>
      </trkpt>
      <trkpt lat="43.22082" lon="5.392">
        <ele>332.27</ele>
        <time>2014-01-23T13:15:40Z</time>
      </trkpt>
      <trkpt lat="43.22077" lon="5.39197">
        <ele>330.83</ele>
        <time>2014-01-23T13:15:55Z</time>
      </trkpt>
      <trkpt lat="43.22072" lon="5.392">
        <ele>328.43</ele>
        <time>2014-01-23T13:16:11Z</time>
      </trkpt>
      <trkpt lat="43.2207" lon="5.39203">
        <ele>327.95</ele>
        <time>2014-01-23T13:16:27Z</time>
      </trkpt>
      <trkpt lat="43.22069" lon="5.39203">
        <ele>325.54</ele>
        <time>2014-01-23T13:16:36Z</time>
      </trkpt>
      <trkpt lat="43.22061" lon="5.39214">
        <ele>323.14</ele>
        <time>2014-01-23T13:16:49Z</time>
      </trkpt>
      <trkpt lat="43.22058" lon="5.39216">
        <ele>322.18</ele>
        <time>2014-01-23T13:17:04Z</time>
      </trkpt>
      <trkpt lat="43.22048" lon="5.39216">
        <ele>319.78</ele>
        <time>2014-01-23T13:17:20Z</time>
      </trkpt>
      <trkpt lat="43.22048" lon="5.39208">
        <ele>319.78</ele>
        <time>2014-01-23T13:17:38Z</time>
      </trkpt>
      <trkpt lat="43.22048" lon="5.39191">
        <ele>319.3</ele>
        <time>2014-01-23T13:17:53Z</time>
      </trkpt>
      <trkpt lat="43.22047" lon="5.39179">
        <ele>318.81</ele>
        <time>2014-01-23T13:18:10Z</time>
      </trkpt>
      <trkpt lat="43.22045" lon="5.39176">
        <ele>318.81</ele>
        <time>2014-01-23T13:18:35Z</time>
      </trkpt>
      <trkpt lat="43.22045" lon="5.39176">
        <ele>318.33</ele>
        <time>2014-01-23T13:19:03Z</time>
      </trkpt>
      <trkpt lat="43.22045" lon="5.39174">
        <ele>319.3</ele>
        <time>2014-01-23T13:19:24Z</time>
      </trkpt>
      <trkpt lat="43.22046" lon="5.39173">
        <ele>318.33</ele>
        <time>2014-01-23T13:19:54Z</time>
      </trkpt>
      <trkpt lat="43.22046" lon="5.39172">
        <ele>318.81</ele>
        <time>2014-01-23T13:20:25Z</time>
      </trkpt>
      <trkpt lat="43.2205" lon="5.39161">
        <ele>318.33</ele>
        <time>2014-01-23T13:20:38Z</time>
      </trkpt>
      <trkpt lat="43.22052" lon="5.39151">
        <ele>319.3</ele>
        <time>2014-01-23T13:20:51Z</time>
      </trkpt>
      <trkpt lat="43.22055" lon="5.3914">
        <ele>317.85</ele>
        <time>2014-01-23T13:21:07Z</time>
      </trkpt>
      <trkpt lat="43.22055" lon="5.39126">
        <ele>320.74</ele>
        <time>2014-01-23T13:21:20Z</time>
      </trkpt>
      <trkpt lat="43.22055" lon="5.39122">
        <ele>319.78</ele>
        <time>2014-01-23T13:21:30Z</time>
      </trkpt>
      <trkpt lat="43.22054" lon="5.39119">
        <ele>323.14</ele>
        <time>2014-01-23T13:21:35Z</time>
      </trkpt>
      <trkpt lat="43.22054" lon="5.39112">
        <ele>322.66</ele>
        <time>2014-01-23T13:21:49Z</time>
      </trkpt>
      <trkpt lat="43.22053" lon="5.39109">
        <ele>326.02</ele>
        <time>2014-01-23T13:21:52Z</time>
      </trkpt>
      <trkpt lat="43.22053" lon="5.39109">
        <ele>326.02</ele>
        <time>2014-01-23T13:21:53Z</time>
      </trkpt>
      <trkpt lat="43.22052" lon="5.39103">
        <ele>327.47</ele>
        <time>2014-01-23T13:22:08Z</time>
      </trkpt>
      <trkpt lat="43.22052" lon="5.39098">
        <ele>328.43</ele>
        <time>2014-01-23T13:22:17Z</time>
      </trkpt>
      <trkpt lat="43.2205" lon="5.39087">
        <ele>330.35</ele>
        <time>2014-01-23T13:22:29Z</time>
      </trkpt>
      <trkpt lat="43.22047" lon="5.39076">
        <ele>332.75</ele>
        <time>2014-01-23T13:22:41Z</time>
      </trkpt>
      <trkpt lat="43.22043" lon="5.39068">
        <ele>333.23</ele>
        <time>2014-01-23T13:22:52Z</time>
      </trkpt>
      <trkpt lat="43.22039" lon="5.39058">
        <ele>333.71</ele>
        <time>2014-01-23T13:23:07Z</time>
      </trkpt>
      <trkpt lat="43.22034" lon="5.39052">
        <ele>332.27</ele>
        <time>2014-01-23T13:23:26Z</time>
      </trkpt>
      <trkpt lat="43.22033" lon="5.39042">
        <ele>329.39</ele>
        <time>2014-01-23T13:23:41Z</time>
      </trkpt>
      <trkpt lat="43.22033" lon="5.3904">
        <ele>328.43</ele>
        <time>2014-01-23T13:23:43Z</time>
      </trkpt>
      <trkpt lat="43.22031" lon="5.39034">
        <ele>326.02</ele>
        <time>2014-01-23T13:23:56Z</time>
      </trkpt>
      <trkpt lat="43.22024" lon="5.39029">
        <ele>327.47</ele>
        <time>2014-01-23T13:24:11Z</time>
      </trkpt>
      <trkpt lat="43.22022" lon="5.39016">
        <ele>328.43</ele>
        <time>2014-01-23T13:24:25Z</time>
      </trkpt>
      <trkpt lat="43.22023" lon="5.39001">
        <ele>328.43</ele>
        <time>2014-01-23T13:24:37Z</time>
      </trkpt>
      <trkpt lat="43.22023" lon="5.39">
        <ele>329.39</ele>
        <time>2014-01-23T13:24:39Z</time>
      </trkpt>
      <trkpt lat="43.22023" lon="5.38991">
        <ele>326.5</ele>
        <time>2014-01-23T13:24:47Z</time>
      </trkpt>
      <trkpt lat="43.22021" lon="5.38982">
        <ele>325.06</ele>
        <time>2014-01-23T13:24:54Z</time>
      </trkpt>
      <trkpt lat="43.22016" lon="5.38966">
        <ele>323.14</ele>
        <time>2014-01-23T13:25:09Z</time>
      </trkpt>
      <trkpt lat="43.22014" lon="5.38957">
        <ele>320.26</ele>
        <time>2014-01-23T13:25:24Z</time>
      </trkpt>
      <trkpt lat="43.22014" lon="5.38952">
        <ele>318.33</ele>
        <time>2014-01-23T13:25:28Z</time>
      </trkpt>
      <trkpt lat="43.22013" lon="5.38938">
        <ele>319.78</ele>
        <time>2014-01-23T13:25:39Z</time>
      </trkpt>
      <trkpt lat="43.22012" lon="5.38934">
        <ele>320.74</ele>
        <time>2014-01-23T13:25:43Z</time>
      </trkpt>
      <trkpt lat="43.22019" lon="5.38924">
        <ele>323.14</ele>
        <time>2014-01-23T13:25:56Z</time>
      </trkpt>
      <trkpt lat="43.22016" lon="5.38908">
        <ele>321.22</ele>
        <time>2014-01-23T13:26:11Z</time>
      </trkpt>
      <trkpt lat="43.22016" lon="5.38901">
        <ele>318.33</ele>
        <time>2014-01-23T13:26:25Z</time>
      </trkpt>
      <trkpt lat="43.22015" lon="5.3889">
        <ele>315.45</ele>
        <time>2014-01-23T13:26:41Z</time>
      </trkpt>
      <trkpt lat="43.22021" lon="5.38872">
        <ele>313.53</ele>
        <time>2014-01-23T13:26:55Z</time>
      </trkpt>
      <trkpt lat="43.22031" lon="5.38859">
        <ele>315.93</ele>
        <time>2014-01-23T13:27:10Z</time>
      </trkpt>
      <trkpt lat="43.22041" lon="5.38856">
        <ele>317.37</ele>
        <time>2014-01-23T13:27:26Z</time>
      </trkpt>
      <trkpt lat="43.22044" lon="5.38856">
        <ele>318.81</ele>
        <time>2014-01-23T13:27:43Z</time>
      </trkpt>
      <trkpt lat="43.22048" lon="5.38855">
        <ele>320.26</ele>
        <time>2014-01-23T13:27:58Z</time>
      </trkpt>
      <trkpt lat="43.22052" lon="5.38851">
        <ele>321.7</ele>
        <time>2014-01-23T13:28:10Z</time>
      </trkpt>
      <trkpt lat="43.22056" lon="5.3885">
        <ele>324.1</ele>
        <time>2014-01-23T13:28:23Z</time>
      </trkpt>
      <trkpt lat="43.22059" lon="5.38849">
        <ele>326.99</ele>
        <time>2014-01-23T13:28:32Z</time>
      </trkpt>
      <trkpt lat="43.22059" lon="5.38849">
        <ele>326.99</ele>
        <time>2014-01-23T13:28:33Z</time>
      </trkpt>
      <trkpt lat="43.22062" lon="5.38846">
        <ele>327.95</ele>
        <time>2014-01-23T13:28:49Z</time>
      </trkpt>
      <trkpt lat="43.22067" lon="5.38844">
        <ele>328.91</ele>
        <time>2014-01-23T13:29:05Z</time>
      </trkpt>
      <trkpt lat="43.22068" lon="5.38839">
        <ele>331.31</ele>
        <time>2014-01-23T13:29:19Z</time>
      </trkpt>
      <trkpt lat="43.22069" lon="5.38834">
        <ele>331.79</ele>
        <time>2014-01-23T13:29:33Z</time>
      </trkpt>
      <trkpt lat="43.2207" lon="5.38834">
        <ele>332.75</ele>
        <time>2014-01-23T13:30:08Z</time>
      </trkpt>
      <trkpt lat="43.2207" lon="5.38834">
        <ele>332.27</ele>
        <time>2014-01-23T13:30:29Z</time>
      </trkpt>
      <trkpt lat="43.22073" lon="5.3883">
        <ele>332.75</ele>
        <time>2014-01-23T13:30:48Z</time>
      </trkpt>
      <trkpt lat="43.22084" lon="5.38828">
        <ele>332.27</ele>
        <time>2014-01-23T13:31:02Z</time>
      </trkpt>
      <trkpt lat="43.22093" lon="5.38818">
        <ele>335.16</ele>
        <time>2014-01-23T13:31:20Z</time>
      </trkpt>
      <trkpt lat="43.22099" lon="5.38814">
        <ele>336.12</ele>
        <time>2014-01-23T13:31:35Z</time>
      </trkpt>
      <trkpt lat="43.22103" lon="5.38808">
        <ele>339</ele>
        <time>2014-01-23T13:31:51Z</time>
      </trkpt>
      <trkpt lat="43.22108" lon="5.388">
        <ele>341.41</ele>
        <time>2014-01-23T13:32:06Z</time>
      </trkpt>
      <trkpt lat="43.22117" lon="5.38798">
        <ele>341.41</ele>
        <time>2014-01-23T13:32:21Z</time>
      </trkpt>
      <trkpt lat="43.22124" lon="5.38791">
        <ele>343.33</ele>
        <time>2014-01-23T13:32:34Z</time>
      </trkpt>
      <trkpt lat="43.2213" lon="5.38786">
        <ele>343.81</ele>
        <time>2014-01-23T13:32:49Z</time>
      </trkpt>
      <trkpt lat="43.22136" lon="5.3878">
        <ele>339.96</ele>
        <time>2014-01-23T13:33:00Z</time>
      </trkpt>
      <trkpt lat="43.22136" lon="5.38779">
        <ele>340.92</ele>
        <time>2014-01-23T13:33:01Z</time>
      </trkpt>
      <trkpt lat="43.22142" lon="5.3877">
        <ele>340.44</ele>
        <time>2014-01-23T13:33:14Z</time>
      </trkpt>
      <trkpt lat="43.22146" lon="5.38758">
        <ele>339.96</ele>
        <time>2014-01-23T13:33:27Z</time>
      </trkpt>
      <trkpt lat="43.2215" lon="5.38744">
        <ele>342.85</ele>
        <time>2014-01-23T13:33:40Z</time>
      </trkpt>
      <trkpt lat="43.22152" lon="5.3874">
        <ele>341.41</ele>
        <time>2014-01-23T13:33:43Z</time>
      </trkpt>
      <trkpt lat="43.22154" lon="5.38734">
        <ele>342.37</ele>
        <time>2014-01-23T13:33:49Z</time>
      </trkpt>
      <trkpt lat="43.22158" lon="5.38722">
        <ele>342.37</ele>
        <time>2014-01-23T13:34:02Z</time>
      </trkpt>
      <trkpt lat="43.22163" lon="5.38712">
        <ele>343.81</ele>
        <time>2014-01-23T13:34:12Z</time>
      </trkpt>
      <trkpt lat="43.22171" lon="5.38699">
        <ele>342.37</ele>
        <time>2014-01-23T13:34:27Z</time>
      </trkpt>
      <trkpt lat="43.22176" lon="5.38688">
        <ele>344.77</ele>
        <time>2014-01-23T13:34:39Z</time>
      </trkpt>
      <trkpt lat="43.22181" lon="5.38675">
        <ele>344.77</ele>
        <time>2014-01-23T13:34:53Z</time>
      </trkpt>
      <trkpt lat="43.22182" lon="5.38673">
        <ele>346.21</ele>
        <time>2014-01-23T13:34:56Z</time>
      </trkpt>
      <trkpt lat="43.22193" lon="5.38661">
        <ele>347.17</ele>
        <time>2014-01-23T13:35:13Z</time>
      </trkpt>
      <trkpt lat="43.22202" lon="5.38657">
        <ele>347.17</ele>
        <time>2014-01-23T13:35:27Z</time>
      </trkpt>
      <trkpt lat="43.22211" lon="5.38652">
        <ele>350.54</ele>
        <time>2014-01-23T13:35:39Z</time>
      </trkpt>
      <trkpt lat="43.22219" lon="5.38644">
        <ele>350.54</ele>
        <time>2014-01-23T13:35:52Z</time>
      </trkpt>
      <trkpt lat="43.2222" lon="5.38642">
        <ele>351.5</ele>
        <time>2014-01-23T13:35:54Z</time>
      </trkpt>
      <trkpt lat="43.22225" lon="5.38636">
        <ele>352.94</ele>
        <time>2014-01-23T13:36:04Z</time>
      </trkpt>
      <trkpt lat="43.2223" lon="5.38629">
        <ele>353.42</ele>
        <time>2014-01-23T13:36:12Z</time>
      </trkpt>
      <trkpt lat="43.22236" lon="5.38618">
        <ele>354.38</ele>
        <time>2014-01-23T13:36:26Z</time>
      </trkpt>
      <trkpt lat="43.22242" lon="5.38603">
        <ele>355.34</ele>
        <time>2014-01-23T13:36:41Z</time>
      </trkpt>
      <trkpt lat="43.22244" lon="5.38598">
        <ele>359.67</ele>
        <time>2014-01-23T13:36:45Z</time>
      </trkpt>
      <trkpt lat="43.22245" lon="5.38597">
        <ele>358.71</ele>
        <time>2014-01-23T13:36:46Z</time>
      </trkpt>
      <trkpt lat="43.22245" lon="5.38595">
        <ele>357.75</ele>
        <time>2014-01-23T13:36:48Z</time>
      </trkpt>
      <trkpt lat="43.22247" lon="5.3859">
        <ele>357.75</ele>
        <time>2014-01-23T13:36:53Z</time>
      </trkpt>
      <trkpt lat="43.22249" lon="5.38588">
        <ele>357.75</ele>
        <time>2014-01-23T13:36:55Z</time>
      </trkpt>
      <trkpt lat="43.22254" lon="5.38582">
        <ele>355.83</ele>
        <time>2014-01-23T13:37:03Z</time>
      </trkpt>
      <trkpt lat="43.22254" lon="5.3858">
        <ele>357.27</ele>
        <time>2014-01-23T13:37:05Z</time>
      </trkpt>
      <trkpt lat="43.22258" lon="5.3857">
        <ele>357.75</ele>
        <time>2014-01-23T13:37:14Z</time>
      </trkpt>
      <trkpt lat="43.22263" lon="5.38558">
        <ele>357.75</ele>
        <time>2014-01-23T13:37:28Z</time>
      </trkpt>
      <trkpt lat="43.22265" lon="5.38554">
        <ele>359.19</ele>
        <time>2014-01-23T13:37:37Z</time>
      </trkpt>
      <trkpt lat="43.22263" lon="5.3855">
        <ele>359.19</ele>
        <time>2014-01-23T13:37:52Z</time>
      </trkpt>
      <trkpt lat="43.22264" lon="5.38549">
        <ele>357.27</ele>
        <time>2014-01-23T13:38:14Z</time>
      </trkpt>
      <trkpt lat="43.22265" lon="5.38548">
        <ele>358.23</ele>
        <time>2014-01-23T13:38:25Z</time>
      </trkpt>
      <trkpt lat="43.22267" lon="5.38545">
        <ele>359.19</ele>
        <time>2014-01-23T13:38:42Z</time>
      </trkpt>
      <trkpt lat="43.22267" lon="5.38546">
        <ele>357.75</ele>
        <time>2014-01-23T13:39:03Z</time>
      </trkpt>
      <trkpt lat="43.22272" lon="5.38535">
        <ele>359.19</ele>
        <time>2014-01-23T13:39:19Z</time>
      </trkpt>
      <trkpt lat="43.22271" lon="5.38534">
        <ele>359.19</ele>
        <time>2014-01-23T13:39:34Z</time>
      </trkpt>
      <trkpt lat="43.22272" lon="5.38533">
        <ele>360.15</ele>
        <time>2014-01-23T13:39:55Z</time>
      </trkpt>
      <trkpt lat="43.22272" lon="5.38534">
        <ele>359.19</ele>
        <time>2014-01-23T13:40:11Z</time>
      </trkpt>
      <trkpt lat="43.22272" lon="5.38534">
        <ele>359.19</ele>
        <time>2014-01-23T13:40:31Z</time>
      </trkpt>
      <trkpt lat="43.22273" lon="5.38533">
        <ele>358.71</ele>
        <time>2014-01-23T13:40:48Z</time>
      </trkpt>
      <trkpt lat="43.22273" lon="5.38533">
        <ele>358.71</ele>
        <time>2014-01-23T13:41:06Z</time>
      </trkpt>
      <trkpt lat="43.22273" lon="5.38533">
        <ele>357.75</ele>
        <time>2014-01-23T13:41:29Z</time>
      </trkpt>
      <trkpt lat="43.22273" lon="5.38533">
        <ele>357.27</ele>
        <time>2014-01-23T13:41:54Z</time>
      </trkpt>
      <trkpt lat="43.22273" lon="5.38533">
        <ele>359.67</ele>
        <time>2014-01-23T13:42:18Z</time>
      </trkpt>
      <trkpt lat="43.22273" lon="5.38533">
        <ele>357.27</ele>
        <time>2014-01-23T13:42:26Z</time>
      </trkpt>
      <trkpt lat="43.22273" lon="5.38533">
        <ele>358.71</ele>
        <time>2014-01-23T13:42:54Z</time>
      </trkpt>
      <trkpt lat="43.22273" lon="5.38533">
        <ele>356.79</ele>
        <time>2014-01-23T13:43:07Z</time>
      </trkpt>
      <trkpt lat="43.22278" lon="5.38528">
        <ele>357.75</ele>
        <time>2014-01-23T13:43:22Z</time>
      </trkpt>
      <trkpt lat="43.22284" lon="5.38523">
        <ele>359.19</ele>
        <time>2014-01-23T13:43:37Z</time>
      </trkpt>
      <trkpt lat="43.22289" lon="5.38514">
        <ele>360.63</ele>
        <time>2014-01-23T13:43:49Z</time>
      </trkpt>
      <trkpt lat="43.22293" lon="5.38503">
        <ele>360.63</ele>
        <time>2014-01-23T13:44:03Z</time>
      </trkpt>
      <trkpt lat="43.22298" lon="5.38493">
        <ele>360.63</ele>
        <time>2014-01-23T13:44:17Z</time>
      </trkpt>
      <trkpt lat="43.223" lon="5.38489">
        <ele>361.59</ele>
        <time>2014-01-23T13:44:21Z</time>
      </trkpt>
      <trkpt lat="43.22305" lon="5.38477">
        <ele>363.04</ele>
        <time>2014-01-23T13:44:35Z</time>
      </trkpt>
      <trkpt lat="43.2231" lon="5.38464">
        <ele>364</ele>
        <time>2014-01-23T13:44:49Z</time>
      </trkpt>
      <trkpt lat="43.22315" lon="5.38455">
        <ele>363.52</ele>
        <time>2014-01-23T13:45:00Z</time>
      </trkpt>
      <trkpt lat="43.2232" lon="5.38444">
        <ele>364.96</ele>
        <time>2014-01-23T13:45:12Z</time>
      </trkpt>
      <trkpt lat="43.22324" lon="5.38434">
        <ele>365.92</ele>
        <time>2014-01-23T13:45:26Z</time>
      </trkpt>
      <trkpt lat="43.22329" lon="5.38421">
        <ele>366.4</ele>
        <time>2014-01-23T13:45:42Z</time>
      </trkpt>
      <trkpt lat="43.22334" lon="5.3841">
        <ele>368.8</ele>
        <time>2014-01-23T13:45:57Z</time>
      </trkpt>
      <trkpt lat="43.22335" lon="5.38399">
        <ele>369.76</ele>
        <time>2014-01-23T13:46:09Z</time>
      </trkpt>
      <trkpt lat="43.22335" lon="5.3839">
        <ele>370.24</ele>
        <time>2014-01-23T13:46:22Z</time>
      </trkpt>
      <trkpt lat="43.22336" lon="5.38379">
        <ele>371.21</ele>
        <time>2014-01-23T13:46:36Z</time>
      </trkpt>
      <trkpt lat="43.22336" lon="5.38378">
        <ele>372.17</ele>
        <time>2014-01-23T13:46:37Z</time>
      </trkpt>
      <trkpt lat="43.22336" lon="5.3837">
        <ele>373.13</ele>
        <time>2014-01-23T13:46:43Z</time>
      </trkpt>
      <trkpt lat="43.22338" lon="5.38367">
        <ele>370.73</ele>
        <time>2014-01-23T13:46:46Z</time>
      </trkpt>
      <trkpt lat="43.22344" lon="5.38358">
        <ele>372.17</ele>
        <time>2014-01-23T13:46:56Z</time>
      </trkpt>
      <trkpt lat="43.22347" lon="5.38345">
        <ele>368.8</ele>
        <time>2014-01-23T13:47:11Z</time>
      </trkpt>
      <trkpt lat="43.22347" lon="5.38344">
        <ele>373.13</ele>
        <time>2014-01-23T13:47:14Z</time>
      </trkpt>
      <trkpt lat="43.22347" lon="5.38344">
        <ele>371.21</ele>
        <time>2014-01-23T13:47:15Z</time>
      </trkpt>
      <trkpt lat="43.22347" lon="5.38342">
        <ele>369.76</ele>
        <time>2014-01-23T13:47:17Z</time>
      </trkpt>
      <trkpt lat="43.22348" lon="5.38341">
        <ele>372.65</ele>
        <time>2014-01-23T13:47:20Z</time>
      </trkpt>
      <trkpt lat="43.22347" lon="5.38334">
        <ele>371.21</ele>
        <time>2014-01-23T13:47:32Z</time>
      </trkpt>
      <trkpt lat="43.22344" lon="5.3833">
        <ele>369.28</ele>
        <time>2014-01-23T13:47:38Z</time>
      </trkpt>
      <trkpt lat="43.22339" lon="5.38326">
        <ele>366.4</ele>
        <time>2014-01-23T13:47:49Z</time>
      </trkpt>
      <trkpt lat="43.22337" lon="5.38322">
        <ele>370.24</ele>
        <time>2014-01-23T13:47:57Z</time>
      </trkpt>
      <trkpt lat="43.22336" lon="5.38322">
        <ele>367.36</ele>
        <time>2014-01-23T13:48:00Z</time>
      </trkpt>
      <trkpt lat="43.22336" lon="5.38318">
        <ele>364.48</ele>
        <time>2014-01-23T13:48:06Z</time>
      </trkpt>
      <trkpt lat="43.22335" lon="5.38315">
        <ele>361.11</ele>
        <time>2014-01-23T13:48:14Z</time>
      </trkpt>
      <trkpt lat="43.22335" lon="5.38311">
        <ele>362.07</ele>
        <time>2014-01-23T13:48:19Z</time>
      </trkpt>
      <trkpt lat="43.22334" lon="5.38305">
        <ele>356.31</ele>
        <time>2014-01-23T13:48:27Z</time>
      </trkpt>
      <trkpt lat="43.22334" lon="5.38305">
        <ele>357.75</ele>
        <time>2014-01-23T13:48:28Z</time>
      </trkpt>
      <trkpt lat="43.22335" lon="5.38304">
        <ele>355.83</ele>
        <time>2014-01-23T13:48:32Z</time>
      </trkpt>
      <trkpt lat="43.22335" lon="5.38302">
        <ele>359.19</ele>
        <time>2014-01-23T13:48:34Z</time>
      </trkpt>
      <trkpt lat="43.22335" lon="5.383">
        <ele>356.79</ele>
        <time>2014-01-23T13:48:37Z</time>
      </trkpt>
      <trkpt lat="43.22335" lon="5.38295">
        <ele>353.42</ele>
        <time>2014-01-23T13:48:47Z</time>
      </trkpt>
      <trkpt lat="43.22334" lon="5.38289">
        <ele>352.94</ele>
        <time>2014-01-23T13:49:00Z</time>
      </trkpt>
      <trkpt lat="43.22334" lon="5.38286">
        <ele>351.02</ele>
        <time>2014-01-23T13:49:04Z</time>
      </trkpt>
      <trkpt lat="43.22334" lon="5.38282">
        <ele>346.69</ele>
        <time>2014-01-23T13:49:09Z</time>
      </trkpt>
      <trkpt lat="43.22334" lon="5.38281">
        <ele>350.06</ele>
        <time>2014-01-23T13:49:14Z</time>
      </trkpt>
      <trkpt lat="43.22334" lon="5.38281">
        <ele>351.5</ele>
        <time>2014-01-23T13:49:17Z</time>
      </trkpt>
      <trkpt lat="43.22334" lon="5.38282">
        <ele>350.06</ele>
        <time>2014-01-23T13:49:41Z</time>
      </trkpt>
      <trkpt lat="43.22332" lon="5.38278">
        <ele>346.69</ele>
        <time>2014-01-23T13:49:45Z</time>
      </trkpt>
      <trkpt lat="43.22331" lon="5.38274">
        <ele>346.21</ele>
        <time>2014-01-23T13:49:49Z</time>
      </trkpt>
      <trkpt lat="43.2233" lon="5.38269">
        <ele>346.69</ele>
        <time>2014-01-23T13:50:02Z</time>
      </trkpt>
      <trkpt lat="43.2233" lon="5.38268">
        <ele>344.77</ele>
        <time>2014-01-23T13:50:16Z</time>
      </trkpt>
      <trkpt lat="43.2233" lon="5.38266">
        <ele>343.33</ele>
        <time>2014-01-23T13:50:18Z</time>
      </trkpt>
      <trkpt lat="43.2233" lon="5.38265">
        <ele>339</ele>
        <time>2014-01-23T13:50:21Z</time>
      </trkpt>
      <trkpt lat="43.2233" lon="5.38265">
        <ele>343.33</ele>
        <time>2014-01-23T13:50:23Z</time>
      </trkpt>
      <trkpt lat="43.2233" lon="5.38265">
        <ele>341.89</ele>
        <time>2014-01-23T13:50:24Z</time>
      </trkpt>
      <trkpt lat="43.2233" lon="5.38264">
        <ele>345.73</ele>
        <time>2014-01-23T13:50:29Z</time>
      </trkpt>
      <trkpt lat="43.22327" lon="5.38257">
        <ele>341.41</ele>
        <time>2014-01-23T13:50:40Z</time>
      </trkpt>
      <trkpt lat="43.22326" lon="5.38254">
        <ele>339.48</ele>
        <time>2014-01-23T13:50:49Z</time>
      </trkpt>
      <trkpt lat="43.22327" lon="5.3825">
        <ele>336.6</ele>
        <time>2014-01-23T13:51:00Z</time>
      </trkpt>
      <trkpt lat="43.22326" lon="5.38246">
        <ele>334.2</ele>
        <time>2014-01-23T13:51:06Z</time>
      </trkpt>
      <trkpt lat="43.22326" lon="5.38244">
        <ele>335.64</ele>
        <time>2014-01-23T13:51:07Z</time>
      </trkpt>
      <trkpt lat="43.22325" lon="5.38238">
        <ele>334.2</ele>
        <time>2014-01-23T13:51:15Z</time>
      </trkpt>
      <trkpt lat="43.22324" lon="5.38232">
        <ele>332.75</ele>
        <time>2014-01-23T13:51:29Z</time>
      </trkpt>
      <trkpt lat="43.22323" lon="5.38225">
        <ele>330.83</ele>
        <time>2014-01-23T13:51:44Z</time>
      </trkpt>
      <trkpt lat="43.22323" lon="5.38224">
        <ele>330.83</ele>
        <time>2014-01-23T13:51:45Z</time>
      </trkpt>
      <trkpt lat="43.22324" lon="5.3822">
        <ele>329.87</ele>
        <time>2014-01-23T13:51:52Z</time>
      </trkpt>
      <trkpt lat="43.22324" lon="5.38219">
        <ele>329.39</ele>
        <time>2014-01-23T13:52:00Z</time>
      </trkpt>
      <trkpt lat="43.22323" lon="5.38218">
        <ele>326.5</ele>
        <time>2014-01-23T13:52:04Z</time>
      </trkpt>
      <trkpt lat="43.22322" lon="5.38216">
        <ele>326.99</ele>
        <time>2014-01-23T13:52:17Z</time>
      </trkpt>
      <trkpt lat="43.22321" lon="5.38215">
        <ele>324.1</ele>
        <time>2014-01-23T13:52:27Z</time>
      </trkpt>
      <trkpt lat="43.22317" lon="5.3821">
        <ele>321.22</ele>
        <time>2014-01-23T13:52:32Z</time>
      </trkpt>
      <trkpt lat="43.22314" lon="5.38204">
        <ele>321.7</ele>
        <time>2014-01-23T13:52:43Z</time>
      </trkpt>
      <trkpt lat="43.22312" lon="5.38204">
        <ele>319.78</ele>
        <time>2014-01-23T13:52:47Z</time>
      </trkpt>
      <trkpt lat="43.22309" lon="5.38203">
        <ele>316.41</ele>
        <time>2014-01-23T13:52:58Z</time>
      </trkpt>
      <trkpt lat="43.22307" lon="5.38195">
        <ele>314.01</ele>
        <time>2014-01-23T13:53:12Z</time>
      </trkpt>
      <trkpt lat="43.22306" lon="5.38195">
        <ele>313.53</ele>
        <time>2014-01-23T13:53:29Z</time>
      </trkpt>
      <trkpt lat="43.22304" lon="5.38191">
        <ele>310.16</ele>
        <time>2014-01-23T13:53:38Z</time>
      </trkpt>
      <trkpt lat="43.22305" lon="5.3819">
        <ele>309.2</ele>
        <time>2014-01-23T13:53:43Z</time>
      </trkpt>
      <trkpt lat="43.22303" lon="5.3819">
        <ele>307.76</ele>
        <time>2014-01-23T13:53:53Z</time>
      </trkpt>
      <trkpt lat="43.22301" lon="5.38186">
        <ele>305.84</ele>
        <time>2014-01-23T13:54:06Z</time>
      </trkpt>
      <trkpt lat="43.223" lon="5.38187">
        <ele>307.28</ele>
        <time>2014-01-23T13:54:24Z</time>
      </trkpt>
      <trkpt lat="43.223" lon="5.38185">
        <ele>303.43</ele>
        <time>2014-01-23T13:54:31Z</time>
      </trkpt>
      <trkpt lat="43.22299" lon="5.38185">
        <ele>303.43</ele>
        <time>2014-01-23T13:54:32Z</time>
      </trkpt>
      <trkpt lat="43.22297" lon="5.38183">
        <ele>303.43</ele>
        <time>2014-01-23T13:54:35Z</time>
      </trkpt>
      <trkpt lat="43.22293" lon="5.38178">
        <ele>302.95</ele>
        <time>2014-01-23T13:54:49Z</time>
      </trkpt>
      <trkpt lat="43.22293" lon="5.38177">
        <ele>304.39</ele>
        <time>2014-01-23T13:54:54Z</time>
      </trkpt>
      <trkpt lat="43.22293" lon="5.38178">
        <ele>302.95</ele>
        <time>2014-01-23T13:55:16Z</time>
      </trkpt>
      <trkpt lat="43.22293" lon="5.38178">
        <ele>302.47</ele>
        <time>2014-01-23T13:55:36Z</time>
      </trkpt>
      <trkpt lat="43.22293" lon="5.38177">
        <ele>305.36</ele>
        <time>2014-01-23T13:55:55Z</time>
      </trkpt>
      <trkpt lat="43.22293" lon="5.38178">
        <ele>302.95</ele>
        <time>2014-01-23T13:56:06Z</time>
      </trkpt>
      <trkpt lat="43.22293" lon="5.38178">
        <ele>303.43</ele>
        <time>2014-01-23T13:56:34Z</time>
      </trkpt>
      <trkpt lat="43.22294" lon="5.38179">
        <ele>301.51</ele>
        <time>2014-01-23T13:56:55Z</time>
      </trkpt>
      <trkpt lat="43.22293" lon="5.38179">
        <ele>301.99</ele>
        <time>2014-01-23T13:57:09Z</time>
      </trkpt>
      <trkpt lat="43.2229" lon="5.38179">
        <ele>301.99</ele>
        <time>2014-01-23T13:57:19Z</time>
      </trkpt>
      <trkpt lat="43.22286" lon="5.38178">
        <ele>300.55</ele>
        <time>2014-01-23T13:57:23Z</time>
      </trkpt>
      <trkpt lat="43.22284" lon="5.38175">
        <ele>304.39</ele>
        <time>2014-01-23T13:57:27Z</time>
      </trkpt>
      <trkpt lat="43.22284" lon="5.38174">
        <ele>302.95</ele>
        <time>2014-01-23T13:57:28Z</time>
      </trkpt>
      <trkpt lat="43.22283" lon="5.38173">
        <ele>301.51</ele>
        <time>2014-01-23T13:57:40Z</time>
      </trkpt>
      <trkpt lat="43.22283" lon="5.38173">
        <ele>301.99</ele>
        <time>2014-01-23T13:58:05Z</time>
      </trkpt>
      <trkpt lat="43.22283" lon="5.38174">
        <ele>300.55</ele>
        <time>2014-01-23T13:58:12Z</time>
      </trkpt>
      <trkpt lat="43.22283" lon="5.38173">
        <ele>303.43</ele>
        <time>2014-01-23T13:58:15Z</time>
      </trkpt>
      <trkpt lat="43.22283" lon="5.38173">
        <ele>303.43</ele>
        <time>2014-01-23T13:58:38Z</time>
      </trkpt>
      <trkpt lat="43.22283" lon="5.38174">
        <ele>305.36</ele>
        <time>2014-01-23T13:59:05Z</time>
      </trkpt>
      <trkpt lat="43.22283" lon="5.38174">
        <ele>304.39</ele>
        <time>2014-01-23T13:59:29Z</time>
      </trkpt>
      <trkpt lat="43.22283" lon="5.38173">
        <ele>303.91</ele>
        <time>2014-01-23T13:59:34Z</time>
      </trkpt>
      <trkpt lat="43.22284" lon="5.38173">
        <ele>298.15</ele>
        <time>2014-01-23T13:59:38Z</time>
      </trkpt>
      <trkpt lat="43.22284" lon="5.38173">
        <ele>301.03</ele>
        <time>2014-01-23T13:59:41Z</time>
      </trkpt>
      <trkpt lat="43.22284" lon="5.38173">
        <ele>295.26</ele>
        <time>2014-01-23T13:59:43Z</time>
      </trkpt>
      <trkpt lat="43.22284" lon="5.38172">
        <ele>297.67</ele>
        <time>2014-01-23T13:59:46Z</time>
      </trkpt>
      <trkpt lat="43.22281" lon="5.38164">
        <ele>296.22</ele>
        <time>2014-01-23T13:59:54Z</time>
      </trkpt>
      <trkpt lat="43.22279" lon="5.38156">
        <ele>293.82</ele>
        <time>2014-01-23T14:00:03Z</time>
      </trkpt>
      <trkpt lat="43.22279" lon="5.38153">
        <ele>290.94</ele>
        <time>2014-01-23T14:00:05Z</time>
      </trkpt>
      <trkpt lat="43.22278" lon="5.38141">
        <ele>291.42</ele>
        <time>2014-01-23T14:00:19Z</time>
      </trkpt>
      <trkpt lat="43.22277" lon="5.38139">
        <ele>292.86</ele>
        <time>2014-01-23T14:00:39Z</time>
      </trkpt>
      <trkpt lat="43.22277" lon="5.38139">
        <ele>292.86</ele>
        <time>2014-01-23T14:00:40Z</time>
      </trkpt>
      <trkpt lat="43.22277" lon="5.38138">
        <ele>289.01</ele>
        <time>2014-01-23T14:00:50Z</time>
      </trkpt>
      <trkpt lat="43.22277" lon="5.38138">
        <ele>289.49</ele>
        <time>2014-01-23T14:00:51Z</time>
      </trkpt>
      <trkpt lat="43.22277" lon="5.38138">
        <ele>290.46</ele>
        <time>2014-01-23T14:00:53Z</time>
      </trkpt>
      <trkpt lat="43.22277" lon="5.38138">
        <ele>290.94</ele>
        <time>2014-01-23T14:00:59Z</time>
      </trkpt>
      <trkpt lat="43.22278" lon="5.3813">
        <ele>289.49</ele>
        <time>2014-01-23T14:01:06Z</time>
      </trkpt>
      <trkpt lat="43.22281" lon="5.38122">
        <ele>283.73</ele>
        <time>2014-01-23T14:01:15Z</time>
      </trkpt>
      <trkpt lat="43.22281" lon="5.3812">
        <ele>284.69</ele>
        <time>2014-01-23T14:01:16Z</time>
      </trkpt>
      <trkpt lat="43.22282" lon="5.38114">
        <ele>286.13</ele>
        <time>2014-01-23T14:01:30Z</time>
      </trkpt>
      <trkpt lat="43.22282" lon="5.38113">
        <ele>285.65</ele>
        <time>2014-01-23T14:01:35Z</time>
      </trkpt>
      <trkpt lat="43.22284" lon="5.38111">
        <ele>280.84</ele>
        <time>2014-01-23T14:01:41Z</time>
      </trkpt>
      <trkpt lat="43.22284" lon="5.3811">
        <ele>282.77</ele>
        <time>2014-01-23T14:01:42Z</time>
      </trkpt>
      <trkpt lat="43.22287" lon="5.38105">
        <ele>278.92</ele>
        <time>2014-01-23T14:01:46Z</time>
      </trkpt>
      <trkpt lat="43.22289" lon="5.38098">
        <ele>280.84</ele>
        <time>2014-01-23T14:01:51Z</time>
      </trkpt>
      <trkpt lat="43.2229" lon="5.38093">
        <ele>282.77</ele>
        <time>2014-01-23T14:01:54Z</time>
      </trkpt>
      <trkpt lat="43.2229" lon="5.38082">
        <ele>281.8</ele>
        <time>2014-01-23T14:02:02Z</time>
      </trkpt>
      <trkpt lat="43.22291" lon="5.38078">
        <ele>277.96</ele>
        <time>2014-01-23T14:02:05Z</time>
      </trkpt>
      <trkpt lat="43.22294" lon="5.38074">
        <ele>278.92</ele>
        <time>2014-01-23T14:02:09Z</time>
      </trkpt>
      <trkpt lat="43.22295" lon="5.3807">
        <ele>277.96</ele>
        <time>2014-01-23T14:02:12Z</time>
      </trkpt>
      <trkpt lat="43.22296" lon="5.38068">
        <ele>279.4</ele>
        <time>2014-01-23T14:02:14Z</time>
      </trkpt>
      <trkpt lat="43.22297" lon="5.38064">
        <ele>282.77</ele>
        <time>2014-01-23T14:02:18Z</time>
      </trkpt>
      <trkpt lat="43.22298" lon="5.38062">
        <ele>279.4</ele>
        <time>2014-01-23T14:02:20Z</time>
      </trkpt>
      <trkpt lat="43.22297" lon="5.3806">
        <ele>279.4</ele>
        <time>2014-01-23T14:02:21Z</time>
      </trkpt>
      <trkpt lat="43.22299" lon="5.38056">
        <ele>278.92</ele>
        <time>2014-01-23T14:02:26Z</time>
      </trkpt>
      <trkpt lat="43.223" lon="5.3805">
        <ele>277.48</ele>
        <time>2014-01-23T14:02:36Z</time>
      </trkpt>
      <trkpt lat="43.22302" lon="5.38048">
        <ele>278.92</ele>
        <time>2014-01-23T14:02:38Z</time>
      </trkpt>
      <trkpt lat="43.22307" lon="5.3804">
        <ele>277.48</ele>
        <time>2014-01-23T14:02:50Z</time>
      </trkpt>
      <trkpt lat="43.22309" lon="5.38035">
        <ele>278.92</ele>
        <time>2014-01-23T14:03:04Z</time>
      </trkpt>
      <trkpt lat="43.22314" lon="5.38023">
        <ele>276.52</ele>
        <time>2014-01-23T14:03:16Z</time>
      </trkpt>
      <trkpt lat="43.22319" lon="5.38015">
        <ele>277.96</ele>
        <time>2014-01-23T14:03:30Z</time>
      </trkpt>
      <trkpt lat="43.22319" lon="5.38013">
        <ele>275.07</ele>
        <time>2014-01-23T14:03:36Z</time>
      </trkpt>
      <trkpt lat="43.22318" lon="5.3799">
        <ele>275.07</ele>
        <time>2014-01-23T14:03:52Z</time>
      </trkpt>
      <trkpt lat="43.2232" lon="5.37972">
        <ele>274.59</ele>
        <time>2014-01-23T14:04:06Z</time>
      </trkpt>
      <trkpt lat="43.2232" lon="5.37962">
        <ele>276.52</ele>
        <time>2014-01-23T14:04:13Z</time>
      </trkpt>
      <trkpt lat="43.22322" lon="5.37939">
        <ele>274.59</ele>
        <time>2014-01-23T14:04:28Z</time>
      </trkpt>
      <trkpt lat="43.22325" lon="5.37924">
        <ele>275.07</ele>
        <time>2014-01-23T14:04:44Z</time>
      </trkpt>
      <trkpt lat="43.22333" lon="5.37904">
        <ele>274.11</ele>
        <time>2014-01-23T14:05:00Z</time>
      </trkpt>
      <trkpt lat="43.22335" lon="5.37902">
        <ele>274.59</ele>
        <time>2014-01-23T14:05:02Z</time>
      </trkpt>
      <trkpt lat="43.22342" lon="5.37888">
        <ele>274.11</ele>
        <time>2014-01-23T14:05:18Z</time>
      </trkpt>
      <trkpt lat="43.22343" lon="5.37884">
        <ele>273.63</ele>
        <time>2014-01-23T14:05:32Z</time>
      </trkpt>
      <trkpt lat="43.22345" lon="5.37881">
        <ele>275.56</ele>
        <time>2014-01-23T14:05:47Z</time>
      </trkpt>
      <trkpt lat="43.22344" lon="5.37875">
        <ele>273.63</ele>
        <time>2014-01-23T14:06:07Z</time>
      </trkpt>
      <trkpt lat="43.22344" lon="5.37873">
        <ele>274.11</ele>
        <time>2014-01-23T14:06:31Z</time>
      </trkpt>
      <trkpt lat="43.22344" lon="5.37872">
        <ele>275.07</ele>
        <time>2014-01-23T14:06:37Z</time>
      </trkpt>
      <trkpt lat="43.22344" lon="5.37872">
        <ele>273.15</ele>
        <time>2014-01-23T14:06:44Z</time>
      </trkpt>
      <trkpt lat="43.22344" lon="5.37871">
        <ele>275.07</ele>
        <time>2014-01-23T14:06:52Z</time>
      </trkpt>
      <trkpt lat="43.22344" lon="5.3787">
        <ele>275.07</ele>
        <time>2014-01-23T14:07:06Z</time>
      </trkpt>
      <trkpt lat="43.22345" lon="5.37869">
        <ele>272.19</ele>
        <time>2014-01-23T14:07:18Z</time>
      </trkpt>
      <trkpt lat="43.22348" lon="5.37867">
        <ele>268.35</ele>
        <time>2014-01-23T14:07:33Z</time>
      </trkpt>
      <trkpt lat="43.22349" lon="5.37867">
        <ele>267.86</ele>
        <time>2014-01-23T14:07:42Z</time>
      </trkpt>
      <trkpt lat="43.2235" lon="5.37868">
        <ele>266.42</ele>
        <time>2014-01-23T14:07:55Z</time>
      </trkpt>
      <trkpt lat="43.2235" lon="5.37868">
        <ele>263.06</ele>
        <time>2014-01-23T14:08:02Z</time>
      </trkpt>
      <trkpt lat="43.2235" lon="5.37868">
        <ele>262.1</ele>
        <time>2014-01-23T14:08:06Z</time>
      </trkpt>
      <trkpt lat="43.22351" lon="5.3787">
        <ele>258.25</ele>
        <time>2014-01-23T14:08:15Z</time>
      </trkpt>
      <trkpt lat="43.22351" lon="5.3787">
        <ele>261.14</ele>
        <time>2014-01-23T14:08:18Z</time>
      </trkpt>
      <trkpt lat="43.22355" lon="5.37873">
        <ele>258.25</ele>
        <time>2014-01-23T14:08:32Z</time>
      </trkpt>
      <trkpt lat="43.22355" lon="5.37873">
        <ele>258.25</ele>
        <time>2014-01-23T14:08:33Z</time>
      </trkpt>
      <trkpt lat="43.22359" lon="5.37886">
        <ele>256.33</ele>
        <time>2014-01-23T14:08:51Z</time>
      </trkpt>
      <trkpt lat="43.22362" lon="5.37891">
        <ele>253.44</ele>
        <time>2014-01-23T14:09:07Z</time>
      </trkpt>
      <trkpt lat="43.22365" lon="5.37895">
        <ele>250.56</ele>
        <time>2014-01-23T14:09:19Z</time>
      </trkpt>
      <trkpt lat="43.22369" lon="5.37895">
        <ele>247.68</ele>
        <time>2014-01-23T14:09:25Z</time>
      </trkpt>
      <trkpt lat="43.2237" lon="5.37895">
        <ele>246.23</ele>
        <time>2014-01-23T14:09:36Z</time>
      </trkpt>
      <trkpt lat="43.22371" lon="5.37897">
        <ele>245.27</ele>
        <time>2014-01-23T14:09:49Z</time>
      </trkpt>
      <trkpt lat="43.22372" lon="5.37899">
        <ele>242.87</ele>
        <time>2014-01-23T14:09:58Z</time>
      </trkpt>
      <trkpt lat="43.22385" lon="5.3789">
        <ele>243.35</ele>
        <time>2014-01-23T14:10:13Z</time>
      </trkpt>
      <trkpt lat="43.22394" lon="5.37883">
        <ele>240.95</ele>
        <time>2014-01-23T14:10:24Z</time>
      </trkpt>
      <trkpt lat="43.22401" lon="5.37856">
        <ele>238.54</ele>
        <time>2014-01-23T14:10:40Z</time>
      </trkpt>
      <trkpt lat="43.22401" lon="5.37851">
        <ele>239.51</ele>
        <time>2014-01-23T14:11:01Z</time>
      </trkpt>
      <trkpt lat="43.22401" lon="5.37851">
        <ele>239.02</ele>
        <time>2014-01-23T14:11:34Z</time>
      </trkpt>
      <trkpt lat="43.22403" lon="5.37848">
        <ele>238.06</ele>
        <time>2014-01-23T14:12:00Z</time>
      </trkpt>
      <trkpt lat="43.22419" lon="5.37844">
        <ele>237.58</ele>
        <time>2014-01-23T14:12:19Z</time>
      </trkpt>
      <trkpt lat="43.22434" lon="5.37847">
        <ele>237.1</ele>
        <time>2014-01-23T14:12:36Z</time>
      </trkpt>
      <trkpt lat="43.22447" lon="5.3785">
        <ele>236.14</ele>
        <time>2014-01-23T14:12:56Z</time>
      </trkpt>
      <trkpt lat="43.2247" lon="5.37846">
        <ele>234.7</ele>
        <time>2014-01-23T14:13:14Z</time>
      </trkpt>
      <trkpt lat="43.22473" lon="5.37844">
        <ele>234.7</ele>
        <time>2014-01-23T14:13:26Z</time>
      </trkpt>
      <trkpt lat="43.22491" lon="5.37833">
        <ele>233.26</ele>
        <time>2014-01-23T14:13:41Z</time>
      </trkpt>
      <trkpt lat="43.22506" lon="5.37811">
        <ele>231.81</ele>
        <time>2014-01-23T14:13:59Z</time>
      </trkpt>
      <trkpt lat="43.22518" lon="5.37798">
        <ele>232.78</ele>
        <time>2014-01-23T14:14:14Z</time>
      </trkpt>
      <trkpt lat="43.22529" lon="5.37782">
        <ele>232.3</ele>
        <time>2014-01-23T14:14:29Z</time>
      </trkpt>
      <trkpt lat="43.22535" lon="5.37772">
        <ele>231.81</ele>
        <time>2014-01-23T14:14:36Z</time>
      </trkpt>
      <trkpt lat="43.2254" lon="5.37753">
        <ele>229.89</ele>
        <time>2014-01-23T14:14:50Z</time>
      </trkpt>
      <trkpt lat="43.22542" lon="5.37741">
        <ele>227.97</ele>
        <time>2014-01-23T14:15:04Z</time>
      </trkpt>
      <trkpt lat="43.22541" lon="5.3774">
        <ele>226.53</ele>
        <time>2014-01-23T14:15:06Z</time>
      </trkpt>
      <trkpt lat="43.22541" lon="5.37735">
        <ele>225.57</ele>
        <time>2014-01-23T14:15:13Z</time>
      </trkpt>
      <trkpt lat="43.22543" lon="5.37723">
        <ele>223.64</ele>
        <time>2014-01-23T14:15:27Z</time>
      </trkpt>
      <trkpt lat="43.22548" lon="5.377">
        <ele>220.76</ele>
        <time>2014-01-23T14:15:43Z</time>
      </trkpt>
      <trkpt lat="43.22553" lon="5.37679">
        <ele>218.84</ele>
        <time>2014-01-23T14:15:58Z</time>
      </trkpt>
      <trkpt lat="43.22562" lon="5.3766">
        <ele>217.4</ele>
        <time>2014-01-23T14:16:14Z</time>
      </trkpt>
      <trkpt lat="43.2257" lon="5.37649">
        <ele>217.88</ele>
        <time>2014-01-23T14:16:24Z</time>
      </trkpt>
      <trkpt lat="43.22576" lon="5.37639">
        <ele>217.88</ele>
        <time>2014-01-23T14:16:37Z</time>
      </trkpt>
      <trkpt lat="43.22585" lon="5.3762">
        <ele>218.84</ele>
        <time>2014-01-23T14:16:55Z</time>
      </trkpt>
      <trkpt lat="43.22598" lon="5.37607">
        <ele>219.32</ele>
        <time>2014-01-23T14:17:10Z</time>
      </trkpt>
      <trkpt lat="43.22613" lon="5.37602">
        <ele>221.72</ele>
        <time>2014-01-23T14:17:27Z</time>
      </trkpt>
      <trkpt lat="43.2262" lon="5.37598">
        <ele>223.64</ele>
        <time>2014-01-23T14:17:35Z</time>
      </trkpt>
      <trkpt lat="43.22624" lon="5.37591">
        <ele>224.12</ele>
        <time>2014-01-23T14:17:45Z</time>
      </trkpt>
      <trkpt lat="43.22633" lon="5.3758">
        <ele>226.05</ele>
        <time>2014-01-23T14:18:00Z</time>
      </trkpt>
      <trkpt lat="43.2264" lon="5.37568">
        <ele>227.01</ele>
        <time>2014-01-23T14:18:14Z</time>
      </trkpt>
      <trkpt lat="43.22646" lon="5.37554">
        <ele>227.49</ele>
        <time>2014-01-23T14:18:31Z</time>
      </trkpt>
      <trkpt lat="43.2265" lon="5.37545">
        <ele>227.97</ele>
        <time>2014-01-23T14:18:46Z</time>
      </trkpt>
      <trkpt lat="43.2266" lon="5.37528">
        <ele>225.57</ele>
        <time>2014-01-23T14:19:03Z</time>
      </trkpt>
      <trkpt lat="43.22664" lon="5.37521">
        <ele>225.57</ele>
        <time>2014-01-23T14:19:08Z</time>
      </trkpt>
      <trkpt lat="43.2267" lon="5.37503">
        <ele>226.53</ele>
        <time>2014-01-23T14:19:24Z</time>
      </trkpt>
      <trkpt lat="43.2267" lon="5.37503">
        <ele>223.16</ele>
        <time>2014-01-23T14:19:26Z</time>
      </trkpt>
      <trkpt lat="43.2267" lon="5.37501">
        <ele>225.57</ele>
        <time>2014-01-23T14:19:30Z</time>
      </trkpt>
      <trkpt lat="43.22671" lon="5.37493">
        <ele>223.16</ele>
        <time>2014-01-23T14:19:35Z</time>
      </trkpt>
      <trkpt lat="43.22678" lon="5.37472">
        <ele>223.64</ele>
        <time>2014-01-23T14:19:51Z</time>
      </trkpt>
      <trkpt lat="43.22689" lon="5.37453">
        <ele>223.64</ele>
        <time>2014-01-23T14:20:08Z</time>
      </trkpt>
      <trkpt lat="43.227" lon="5.37441">
        <ele>224.12</ele>
        <time>2014-01-23T14:20:23Z</time>
      </trkpt>
      <trkpt lat="43.22706" lon="5.37434">
        <ele>225.57</ele>
        <time>2014-01-23T14:20:36Z</time>
      </trkpt>
      <trkpt lat="43.22709" lon="5.37428">
        <ele>223.64</ele>
        <time>2014-01-23T14:20:45Z</time>
      </trkpt>
      <trkpt lat="43.22711" lon="5.37423">
        <ele>223.16</ele>
        <time>2014-01-23T14:20:51Z</time>
      </trkpt>
      <trkpt lat="43.22713" lon="5.37414">
        <ele>221.24</ele>
        <time>2014-01-23T14:21:00Z</time>
      </trkpt>
      <trkpt lat="43.22714" lon="5.37408">
        <ele>219.32</ele>
        <time>2014-01-23T14:21:05Z</time>
      </trkpt>
      <trkpt lat="43.22714" lon="5.37407">
        <ele>220.28</ele>
        <time>2014-01-23T14:21:06Z</time>
      </trkpt>
      <trkpt lat="43.22714" lon="5.37399">
        <ele>217.88</ele>
        <time>2014-01-23T14:21:14Z</time>
      </trkpt>
      <trkpt lat="43.22714" lon="5.37386">
        <ele>215.47</ele>
        <time>2014-01-23T14:21:26Z</time>
      </trkpt>
      <trkpt lat="43.22714" lon="5.37384">
        <ele>213.07</ele>
        <time>2014-01-23T14:21:39Z</time>
      </trkpt>
      <trkpt lat="43.22714" lon="5.37379">
        <ele>210.67</ele>
        <time>2014-01-23T14:21:47Z</time>
      </trkpt>
      <trkpt lat="43.22713" lon="5.37366">
        <ele>207.3</ele>
        <time>2014-01-23T14:21:59Z</time>
      </trkpt>
      <trkpt lat="43.22713" lon="5.37365">
        <ele>206.34</ele>
        <time>2014-01-23T14:22:01Z</time>
      </trkpt>
      <trkpt lat="43.22712" lon="5.3736">
        <ele>203.94</ele>
        <time>2014-01-23T14:22:15Z</time>
      </trkpt>
      <trkpt lat="43.22711" lon="5.37358">
        <ele>202.49</ele>
        <time>2014-01-23T14:22:18Z</time>
      </trkpt>
      <trkpt lat="43.22711" lon="5.37356">
        <ele>201.53</ele>
        <time>2014-01-23T14:22:22Z</time>
      </trkpt>
      <trkpt lat="43.22708" lon="5.37333">
        <ele>198.17</ele>
        <time>2014-01-23T14:22:38Z</time>
      </trkpt>
      <trkpt lat="43.22707" lon="5.37322">
        <ele>196.73</ele>
        <time>2014-01-23T14:22:51Z</time>
      </trkpt>
      <trkpt lat="43.22706" lon="5.37316">
        <ele>193.84</ele>
        <time>2014-01-23T14:23:04Z</time>
      </trkpt>
      <trkpt lat="43.22706" lon="5.37316">
        <ele>192.88</ele>
        <time>2014-01-23T14:23:06Z</time>
      </trkpt>
      <trkpt lat="43.22706" lon="5.3731">
        <ele>192.88</ele>
        <time>2014-01-23T14:23:20Z</time>
      </trkpt>
      <trkpt lat="43.22704" lon="5.37301">
        <ele>190</ele>
        <time>2014-01-23T14:23:31Z</time>
      </trkpt>
      <trkpt lat="43.22701" lon="5.37291">
        <ele>188.08</ele>
        <time>2014-01-23T14:23:37Z</time>
      </trkpt>
      <trkpt lat="43.22697" lon="5.3728">
        <ele>187.11</ele>
        <time>2014-01-23T14:23:53Z</time>
      </trkpt>
      <trkpt lat="43.22693" lon="5.37271">
        <ele>184.23</ele>
        <time>2014-01-23T14:24:08Z</time>
      </trkpt>
      <trkpt lat="43.22692" lon="5.37261">
        <ele>181.35</ele>
        <time>2014-01-23T14:24:27Z</time>
      </trkpt>
      <trkpt lat="43.2269" lon="5.37257">
        <ele>177.98</ele>
        <time>2014-01-23T14:24:41Z</time>
      </trkpt>
      <trkpt lat="43.22687" lon="5.37248">
        <ele>175.1</ele>
        <time>2014-01-23T14:24:54Z</time>
      </trkpt>
      <trkpt lat="43.22685" lon="5.37242">
        <ele>171.25</ele>
        <time>2014-01-23T14:25:10Z</time>
      </trkpt>
      <trkpt lat="43.22685" lon="5.3724">
        <ele>167.89</ele>
        <time>2014-01-23T14:25:22Z</time>
      </trkpt>
      <trkpt lat="43.22684" lon="5.37239">
        <ele>166.93</ele>
        <time>2014-01-23T14:25:24Z</time>
      </trkpt>
      <trkpt lat="43.22685" lon="5.37235">
        <ele>166.45</ele>
        <time>2014-01-23T14:25:40Z</time>
      </trkpt>
      <trkpt lat="43.22683" lon="5.37227">
        <ele>165</ele>
        <time>2014-01-23T14:25:55Z</time>
      </trkpt>
      <trkpt lat="43.22676" lon="5.37208">
        <ele>166.45</ele>
        <time>2014-01-23T14:26:15Z</time>
      </trkpt>
      <trkpt lat="43.2267" lon="5.37194">
        <ele>165.96</ele>
        <time>2014-01-23T14:26:41Z</time>
      </trkpt>
      <trkpt lat="43.22668" lon="5.37191">
        <ele>166.45</ele>
        <time>2014-01-23T14:27:05Z</time>
      </trkpt>
      <trkpt lat="43.22665" lon="5.37187">
        <ele>166.45</ele>
        <time>2014-01-23T14:27:28Z</time>
      </trkpt>
      <trkpt lat="43.22664" lon="5.37185">
        <ele>167.41</ele>
        <time>2014-01-23T14:27:53Z</time>
      </trkpt>
      <trkpt lat="43.22663" lon="5.37183">
        <ele>166.93</ele>
        <time>2014-01-23T14:28:20Z</time>
      </trkpt>
      <trkpt lat="43.22662" lon="5.3718">
        <ele>167.41</ele>
        <time>2014-01-23T14:28:49Z</time>
      </trkpt>
      <trkpt lat="43.22661" lon="5.37177">
        <ele>167.41</ele>
        <time>2014-01-23T14:29:11Z</time>
      </trkpt>
      <trkpt lat="43.22662" lon="5.37172">
        <ele>168.37</ele>
        <time>2014-01-23T14:29:31Z</time>
      </trkpt>
      <trkpt lat="43.22661" lon="5.37168">
        <ele>167.89</ele>
        <time>2014-01-23T14:29:55Z</time>
      </trkpt>
      <trkpt lat="43.2266" lon="5.37165">
        <ele>167.41</ele>
        <time>2014-01-23T14:30:18Z</time>
      </trkpt>
      <trkpt lat="43.2266" lon="5.37165">
        <ele>166.93</ele>
        <time>2014-01-23T14:30:43Z</time>
      </trkpt>
      <trkpt lat="43.2266" lon="5.37164">
        <ele>167.41</ele>
        <time>2014-01-23T14:31:02Z</time>
      </trkpt>
      <trkpt lat="43.22659" lon="5.37163">
        <ele>167.41</ele>
        <time>2014-01-23T14:31:27Z</time>
      </trkpt>
      <trkpt lat="43.22659" lon="5.37163">
        <ele>168.85</ele>
        <time>2014-01-23T14:31:44Z</time>
      </trkpt>
      <trkpt lat="43.22659" lon="5.37163">
        <ele>167.89</ele>
        <time>2014-01-23T14:32:05Z</time>
      </trkpt>
      <trkpt lat="43.22658" lon="5.37164">
        <ele>168.85</ele>
        <time>2014-01-23T14:32:32Z</time>
      </trkpt>
      <trkpt lat="43.22658" lon="5.37164">
        <ele>168.37</ele>
        <time>2014-01-23T14:33:01Z</time>
      </trkpt>
      <trkpt lat="43.22658" lon="5.37164">
        <ele>168.37</ele>
        <time>2014-01-23T14:33:25Z</time>
      </trkpt>
      <trkpt lat="43.22658" lon="5.37164">
        <ele>168.85</ele>
        <time>2014-01-23T14:33:45Z</time>
      </trkpt>
      <trkpt lat="43.22658" lon="5.37164">
        <ele>168.85</ele>
        <time>2014-01-23T14:34:05Z</time>
      </trkpt>
      <trkpt lat="43.22659" lon="5.37164">
        <ele>168.37</ele>
        <time>2014-01-23T14:34:29Z</time>
      </trkpt>
      <trkpt lat="43.22659" lon="5.37164">
        <ele>170.29</ele>
        <time>2014-01-23T14:34:49Z</time>
      </trkpt>
      <trkpt lat="43.22659" lon="5.37165">
        <ele>167.89</ele>
        <time>2014-01-23T14:35:09Z</time>
      </trkpt>
      <trkpt lat="43.22659" lon="5.37166">
        <ele>167.41</ele>
        <time>2014-01-23T14:35:26Z</time>
      </trkpt>
      <trkpt lat="43.22659" lon="5.37166">
        <ele>166.45</ele>
        <time>2014-01-23T14:35:37Z</time>
      </trkpt>
      <trkpt lat="43.2266" lon="5.37168">
        <ele>169.81</ele>
        <time>2014-01-23T14:35:53Z</time>
      </trkpt>
      <trkpt lat="43.22661" lon="5.3717">
        <ele>170.77</ele>
        <time>2014-01-23T14:35:59Z</time>
      </trkpt>
      <trkpt lat="43.22662" lon="5.37173">
        <ele>172.69</ele>
        <time>2014-01-23T14:36:12Z</time>
      </trkpt>
      <trkpt lat="43.22664" lon="5.37175">
        <ele>171.25</ele>
        <time>2014-01-23T14:36:29Z</time>
      </trkpt>
      <trkpt lat="43.22663" lon="5.37168">
        <ele>169.33</ele>
        <time>2014-01-23T14:36:46Z</time>
      </trkpt>
      <trkpt lat="43.22661" lon="5.37167">
        <ele>167.89</ele>
        <time>2014-01-23T14:37:04Z</time>
      </trkpt>
      <trkpt lat="43.22661" lon="5.37166">
        <ele>167.41</ele>
        <time>2014-01-23T14:37:26Z</time>
      </trkpt>
      <trkpt lat="43.22661" lon="5.37164">
        <ele>169.33</ele>
        <time>2014-01-23T14:37:51Z</time>
      </trkpt>
      <trkpt lat="43.22661" lon="5.37165">
        <ele>169.81</ele>
        <time>2014-01-23T14:38:10Z</time>
      </trkpt>
      <trkpt lat="43.22661" lon="5.37165">
        <ele>169.33</ele>
        <time>2014-01-23T14:38:41Z</time>
      </trkpt>
      <trkpt lat="43.22664" lon="5.37153">
        <ele>168.85</ele>
        <time>2014-01-23T14:38:57Z</time>
      </trkpt>
      <trkpt lat="43.22673" lon="5.37127">
        <ele>167.41</ele>
        <time>2014-01-23T14:39:14Z</time>
      </trkpt>
      <trkpt lat="43.22684" lon="5.37113">
        <ele>165.48</ele>
        <time>2014-01-23T14:39:31Z</time>
      </trkpt>
      <trkpt lat="43.22689" lon="5.37107">
        <ele>165.48</ele>
        <time>2014-01-23T14:39:36Z</time>
      </trkpt>
      <trkpt lat="43.22693" lon="5.37097">
        <ele>165.48</ele>
        <time>2014-01-23T14:39:44Z</time>
      </trkpt>
      <trkpt lat="43.22698" lon="5.37079">
        <ele>162.6</ele>
        <time>2014-01-23T14:39:59Z</time>
      </trkpt>
      <trkpt lat="43.227" lon="5.37073">
        <ele>164.04</ele>
        <time>2014-01-23T14:40:04Z</time>
      </trkpt>
      <trkpt lat="43.22703" lon="5.3706">
        <ele>161.64</ele>
        <time>2014-01-23T14:40:18Z</time>
      </trkpt>
      <trkpt lat="43.22704" lon="5.37061">
        <ele>161.16</ele>
        <time>2014-01-23T14:40:42Z</time>
      </trkpt>
      <trkpt lat="43.22711" lon="5.37069">
        <ele>158.27</ele>
        <time>2014-01-23T14:40:58Z</time>
      </trkpt>
      <trkpt lat="43.22714" lon="5.37072">
        <ele>155.87</ele>
        <time>2014-01-23T14:41:12Z</time>
      </trkpt>
      <trkpt lat="43.22715" lon="5.37074">
        <ele>153.47</ele>
        <time>2014-01-23T14:41:26Z</time>
      </trkpt>
      <trkpt lat="43.22717" lon="5.37078">
        <ele>150.58</ele>
        <time>2014-01-23T14:41:41Z</time>
      </trkpt>
      <trkpt lat="43.22719" lon="5.37082">
        <ele>151.06</ele>
        <time>2014-01-23T14:41:58Z</time>
      </trkpt>
      <trkpt lat="43.2272" lon="5.37083">
        <ele>150.58</ele>
        <time>2014-01-23T14:42:09Z</time>
      </trkpt>
      <trkpt lat="43.22719" lon="5.37092">
        <ele>153.95</ele>
        <time>2014-01-23T14:42:20Z</time>
      </trkpt>
      <trkpt lat="43.22722" lon="5.37092">
        <ele>152.51</ele>
        <time>2014-01-23T14:42:41Z</time>
      </trkpt>
      <trkpt lat="43.22722" lon="5.37092">
        <ele>153.95</ele>
        <time>2014-01-23T14:42:46Z</time>
      </trkpt>
      <trkpt lat="43.22722" lon="5.37092">
        <ele>153.95</ele>
        <time>2014-01-23T14:43:03Z</time>
      </trkpt>
      <trkpt lat="43.22722" lon="5.37093">
        <ele>153.47</ele>
        <time>2014-01-23T14:43:07Z</time>
      </trkpt>
      <trkpt lat="43.22725" lon="5.37098">
        <ele>155.39</ele>
        <time>2014-01-23T14:43:23Z</time>
      </trkpt>
      <trkpt lat="43.22724" lon="5.37096">
        <ele>153.95</ele>
        <time>2014-01-23T14:43:26Z</time>
      </trkpt>
      <trkpt lat="43.22722" lon="5.37085">
        <ele>154.43</ele>
        <time>2014-01-23T14:43:36Z</time>
      </trkpt>
      <trkpt lat="43.22718" lon="5.37081">
        <ele>156.35</ele>
        <time>2014-01-23T14:43:48Z</time>
      </trkpt>
      <trkpt lat="43.22708" lon="5.37074">
        <ele>158.75</ele>
        <time>2014-01-23T14:44:03Z</time>
      </trkpt>
      <trkpt lat="43.22703" lon="5.37064">
        <ele>160.68</ele>
        <time>2014-01-23T14:44:14Z</time>
      </trkpt>
      <trkpt lat="43.22701" lon="5.37054">
        <ele>161.16</ele>
        <time>2014-01-23T14:44:27Z</time>
      </trkpt>
      <trkpt lat="43.22709" lon="5.37042">
        <ele>160.68</ele>
        <time>2014-01-23T14:44:43Z</time>
      </trkpt>
      <trkpt lat="43.22718" lon="5.37031">
        <ele>160.68</ele>
        <time>2014-01-23T14:45:01Z</time>
      </trkpt>
      <trkpt lat="43.22719" lon="5.37025">
        <ele>162.12</ele>
        <time>2014-01-23T14:45:18Z</time>
      </trkpt>
      <trkpt lat="43.22718" lon="5.3702">
        <ele>159.72</ele>
        <time>2014-01-23T14:45:34Z</time>
      </trkpt>
      <trkpt lat="43.22717" lon="5.37019">
        <ele>159.72</ele>
        <time>2014-01-23T14:45:35Z</time>
      </trkpt>
      <trkpt lat="43.22715" lon="5.37008">
        <ele>156.83</ele>
        <time>2014-01-23T14:45:48Z</time>
      </trkpt>
      <trkpt lat="43.22717" lon="5.37001">
        <ele>153.95</ele>
        <time>2014-01-23T14:46:00Z</time>
      </trkpt>
      <trkpt lat="43.22712" lon="5.36991">
        <ele>151.06</ele>
        <time>2014-01-23T14:46:14Z</time>
      </trkpt>
      <trkpt lat="43.2271" lon="5.36989">
        <ele>148.18</ele>
        <time>2014-01-23T14:46:27Z</time>
      </trkpt>
      <trkpt lat="43.22709" lon="5.36987">
        <ele>147.7</ele>
        <time>2014-01-23T14:46:29Z</time>
      </trkpt>
      <trkpt lat="43.22704" lon="5.36973">
        <ele>144.34</ele>
        <time>2014-01-23T14:46:42Z</time>
      </trkpt>
      <trkpt lat="43.22701" lon="5.36963">
        <ele>141.93</ele>
        <time>2014-01-23T14:46:55Z</time>
      </trkpt>
      <trkpt lat="43.22701" lon="5.3696">
        <ele>140.01</ele>
        <time>2014-01-23T14:46:58Z</time>
      </trkpt>
      <trkpt lat="43.22699" lon="5.36952">
        <ele>137.61</ele>
        <time>2014-01-23T14:47:17Z</time>
      </trkpt>
      <trkpt lat="43.22691" lon="5.36934">
        <ele>135.2</ele>
        <time>2014-01-23T14:47:34Z</time>
      </trkpt>
      <trkpt lat="43.22683" lon="5.36918">
        <ele>132.8</ele>
        <time>2014-01-23T14:47:50Z</time>
      </trkpt>
      <trkpt lat="43.22678" lon="5.36909">
        <ele>130.88</ele>
        <time>2014-01-23T14:48:07Z</time>
      </trkpt>
      <trkpt lat="43.22675" lon="5.36902">
        <ele>127.51</ele>
        <time>2014-01-23T14:48:17Z</time>
      </trkpt>
      <trkpt lat="43.22668" lon="5.36885">
        <ele>124.63</ele>
        <time>2014-01-23T14:48:32Z</time>
      </trkpt>
      <trkpt lat="43.22664" lon="5.36874">
        <ele>122.71</ele>
        <time>2014-01-23T14:48:45Z</time>
      </trkpt>
      <trkpt lat="43.22657" lon="5.36856">
        <ele>120.78</ele>
        <time>2014-01-23T14:48:59Z</time>
      </trkpt>
      <trkpt lat="43.22655" lon="5.36852">
        <ele>118.86</ele>
        <time>2014-01-23T14:49:03Z</time>
      </trkpt>
      <trkpt lat="43.22652" lon="5.36843">
        <ele>117.9</ele>
        <time>2014-01-23T14:49:10Z</time>
      </trkpt>
      <trkpt lat="43.22644" lon="5.36826">
        <ele>114.53</ele>
        <time>2014-01-23T14:49:27Z</time>
      </trkpt>
      <trkpt lat="43.22643" lon="5.36825">
        <ele>114.05</ele>
        <time>2014-01-23T14:49:29Z</time>
      </trkpt>
      <trkpt lat="43.22637" lon="5.36817">
        <ele>112.61</ele>
        <time>2014-01-23T14:49:45Z</time>
      </trkpt>
      <trkpt lat="43.22633" lon="5.36806">
        <ele>109.73</ele>
        <time>2014-01-23T14:50:00Z</time>
      </trkpt>
      <trkpt lat="43.22626" lon="5.36789">
        <ele>106.84</ele>
        <time>2014-01-23T14:50:13Z</time>
      </trkpt>
      <trkpt lat="43.22627" lon="5.36784">
        <ele>104.92</ele>
        <time>2014-01-23T14:50:20Z</time>
      </trkpt>
      <trkpt lat="43.22627" lon="5.36767">
        <ele>103.48</ele>
        <time>2014-01-23T14:50:36Z</time>
      </trkpt>
      <trkpt lat="43.22627" lon="5.36747">
        <ele>102.52</ele>
        <time>2014-01-23T14:50:52Z</time>
      </trkpt>
      <trkpt lat="43.22631" lon="5.3673">
        <ele>100.6</ele>
        <time>2014-01-23T14:51:06Z</time>
      </trkpt>
      <trkpt lat="43.22635" lon="5.36711">
        <ele>99.15</ele>
        <time>2014-01-23T14:51:21Z</time>
      </trkpt>
      <trkpt lat="43.22638" lon="5.36705">
        <ele>97.71</ele>
        <time>2014-01-23T14:51:38Z</time>
      </trkpt>
      <trkpt lat="43.22638" lon="5.36703">
        <ele>97.23</ele>
        <time>2014-01-23T14:51:56Z</time>
      </trkpt>
      <trkpt lat="43.22639" lon="5.36702">
        <ele>96.75</ele>
        <time>2014-01-23T14:52:21Z</time>
      </trkpt>
      <trkpt lat="43.22639" lon="5.36703">
        <ele>97.23</ele>
        <time>2014-01-23T14:52:48Z</time>
      </trkpt>
      <trkpt lat="43.22641" lon="5.36704">
        <ele>96.75</ele>
        <time>2014-01-23T14:53:14Z</time>
      </trkpt>
      <trkpt lat="43.22642" lon="5.36705">
        <ele>97.23</ele>
        <time>2014-01-23T14:53:41Z</time>
      </trkpt>
      <trkpt lat="43.22643" lon="5.36705">
        <ele>96.75</ele>
        <time>2014-01-23T14:54:08Z</time>
      </trkpt>
      <trkpt lat="43.22644" lon="5.36706">
        <ele>96.75</ele>
        <time>2014-01-23T14:54:37Z</time>
      </trkpt>
      <trkpt lat="43.22648" lon="5.36706">
        <ele>96.75</ele>
        <time>2014-01-23T14:55:02Z</time>
      </trkpt>
      <trkpt lat="43.22646" lon="5.36705">
        <ele>97.23</ele>
        <time>2014-01-23T14:55:31Z</time>
      </trkpt>
      <trkpt lat="43.22646" lon="5.36704">
        <ele>97.71</ele>
        <time>2014-01-23T14:56:04Z</time>
      </trkpt>
      <trkpt lat="43.22649" lon="5.36707">
        <ele>94.35</ele>
        <time>2014-01-23T14:56:25Z</time>
      </trkpt>
      <trkpt lat="43.22662" lon="5.36705">
        <ele>90.98</ele>
        <time>2014-01-23T14:56:37Z</time>
      </trkpt>
      <trkpt lat="43.2267" lon="5.36703">
        <ele>88.1</ele>
        <time>2014-01-23T14:56:51Z</time>
      </trkpt>
      <trkpt lat="43.22679" lon="5.36703">
        <ele>84.73</ele>
        <time>2014-01-23T14:57:07Z</time>
      </trkpt>
      <trkpt lat="43.22692" lon="5.36704">
        <ele>81.85</ele>
        <time>2014-01-23T14:57:22Z</time>
      </trkpt>
      <trkpt lat="43.22705" lon="5.36696">
        <ele>78.48</ele>
        <time>2014-01-23T14:57:36Z</time>
      </trkpt>
      <trkpt lat="43.22712" lon="5.36689">
        <ele>75.6</ele>
        <time>2014-01-23T14:57:48Z</time>
      </trkpt>
      <trkpt lat="43.22729" lon="5.36694">
        <ele>73.2</ele>
        <time>2014-01-23T14:58:05Z</time>
      </trkpt>
      <trkpt lat="43.22741" lon="5.36696">
        <ele>69.83</ele>
        <time>2014-01-23T14:58:21Z</time>
      </trkpt>
      <trkpt lat="43.22751" lon="5.36696">
        <ele>66.95</ele>
        <time>2014-01-23T14:58:34Z</time>
      </trkpt>
      <trkpt lat="43.22761" lon="5.36693">
        <ele>64.55</ele>
        <time>2014-01-23T14:58:44Z</time>
      </trkpt>
      <trkpt lat="43.22771" lon="5.36694">
        <ele>61.18</ele>
        <time>2014-01-23T14:59:03Z</time>
      </trkpt>
      <trkpt lat="43.22781" lon="5.367">
        <ele>58.78</ele>
        <time>2014-01-23T14:59:12Z</time>
      </trkpt>
      <trkpt lat="43.22788" lon="5.36701">
        <ele>57.34</ele>
        <time>2014-01-23T14:59:33Z</time>
      </trkpt>
      <trkpt lat="43.228" lon="5.36696">
        <ele>55.41</ele>
        <time>2014-01-23T14:59:49Z</time>
      </trkpt>
      <trkpt lat="43.22816" lon="5.3669">
        <ele>53.97</ele>
        <time>2014-01-23T15:00:05Z</time>
      </trkpt>
      <trkpt lat="43.22834" lon="5.36696">
        <ele>52.53</ele>
        <time>2014-01-23T15:00:21Z</time>
      </trkpt>
      <trkpt lat="43.2285" lon="5.36695">
        <ele>50.61</ele>
        <time>2014-01-23T15:00:35Z</time>
      </trkpt>
      <trkpt lat="43.22871" lon="5.36696">
        <ele>49.65</ele>
        <time>2014-01-23T15:00:51Z</time>
      </trkpt>
      <trkpt lat="43.22873" lon="5.36695">
        <ele>49.16</ele>
        <time>2014-01-23T15:00:54Z</time>
      </trkpt>
      <trkpt lat="43.22878" lon="5.36693">
        <ele>48.68</ele>
        <time>2014-01-23T15:01:00Z</time>
      </trkpt>
      <trkpt lat="43.22892" lon="5.36681">
        <ele>46.28</ele>
        <time>2014-01-23T15:01:16Z</time>
      </trkpt>
      <trkpt lat="43.22906" lon="5.36675">
        <ele>44.36</ele>
        <time>2014-01-23T15:01:30Z</time>
      </trkpt>
      <trkpt lat="43.22911" lon="5.3667">
        <ele>44.36</ele>
        <time>2014-01-23T15:01:39Z</time>
      </trkpt>
      <trkpt lat="43.22927" lon="5.36669">
        <ele>42.44</ele>
        <time>2014-01-23T15:01:56Z</time>
      </trkpt>
      <trkpt lat="43.22944" lon="5.36673">
        <ele>40.99</ele>
        <time>2014-01-23T15:02:09Z</time>
      </trkpt>
      <trkpt lat="43.22959" lon="5.36677">
        <ele>40.51</ele>
        <time>2014-01-23T15:02:25Z</time>
      </trkpt>
      <trkpt lat="43.22966" lon="5.36673">
        <ele>40.03</ele>
        <time>2014-01-23T15:02:40Z</time>
      </trkpt>
      <trkpt lat="43.22969" lon="5.36669">
        <ele>40.03</ele>
        <time>2014-01-23T15:03:00Z</time>
      </trkpt>
      <trkpt lat="43.22975" lon="5.36668">
        <ele>39.55</ele>
        <time>2014-01-23T15:03:13Z</time>
      </trkpt>
      <trkpt lat="43.22987" lon="5.36666">
        <ele>39.07</ele>
        <time>2014-01-23T15:03:27Z</time>
      </trkpt>
      <trkpt lat="43.22989" lon="5.36665">
        <ele>38.59</ele>
        <time>2014-01-23T15:03:29Z</time>
      </trkpt>
      <trkpt lat="43.23003" lon="5.3666">
        <ele>38.11</ele>
        <time>2014-01-23T15:03:45Z</time>
      </trkpt>
      <trkpt lat="43.2302" lon="5.36653">
        <ele>37.63</ele>
        <time>2014-01-23T15:04:00Z</time>
      </trkpt>
      <trkpt lat="43.23038" lon="5.36647">
        <ele>36.19</ele>
        <time>2014-01-23T15:04:17Z</time>
      </trkpt>
      <trkpt lat="43.23053" lon="5.36643">
        <ele>36.67</ele>
        <time>2014-01-23T15:04:30Z</time>
      </trkpt>
      <trkpt lat="43.23064" lon="5.36641">
        <ele>36.19</ele>
        <time>2014-01-23T15:04:44Z</time>
      </trkpt>
    </trkseg>
  </trk>
</gpx>